[[{"header":{"parameterUnit":"m.s-1","parameterCategory":1,"la1":30.6,"la2":29.2853,"lo1":-89.7004,"lo2":-87.6739,"dy":0.0162,"dx":0.0183,"nx":112,"ny":82,"refTime":"2023-05-29T06:00:00:Z","depth":0,"parameterNumber":2,"parameterNumberName":"U-component_of_WINDS"},"data":[0.0,0.0,0.0,0.0,0.0,0.0,0.0,0.0,0.0,0.0,0.0,0.0,0.0,0.0,0.0,0.0,0.0,0.0,0.0,0.0,0.0,0.0,0.0,0.0,0.0,0.0,0.0,0.0,0.0,0.0,0.0,0.0,0.0,0.0,0.0,0.0,0.0,0.0,0.0,0.0,0.0,0.0,0.0,0.0,0.0,0.0,0.0,0.0,0.0,0.0,0.0,0.0,0.0,0.0,0.0,0.0,0.0,0.0,0.0,0.0,0.0,0.0,0.0,0.0,0.0,0.0,0.0,0.0,0.0,0.0,0.0,0.0,0.0,0.0,0.0,0.0,0.0,0.0,0.0,0.0,0.0,0.0,0.0,0.0,0.0,0.0,0.0,0.0,0.0,0.0,2.4794,2.5718,2.4918,2.433,2.4385,2.4385,2.5037,2.6609,0.0,0.0,0.0,0.0,0.0,0.0,0.0,0.0,0.0,0.0,0.0,0.0,0.0,0.0,0.0,0.0,0.0,0.0,0.0,0.0,0.0,0.0,0.0,0.0,0.0,0.0,0.0,0.0,0.0,0.0,0.0,0.0,0.0,0.0,0.0,0.0,0.0,0.0,0.0,0.0,0.0,0.0,0.0,0.0,0.0,0.0,0.0,0.0,0.0,0.0,0.0,0.0,0.0,0.0,0.0,0.0,0.0,0.0,0.0,0.0,0.0,0.0,0.0,0.0,0.0,0.0,0.0,0.0,0.0,0.0,0.0,0.0,0.0,0.0,0.0,0.0,0.0,0.0,0.0,0.0,0.0,0.0,0.0,0.0,0.0,0.0,0.0,0.0,0.0,0.0,0.0,0.0,0.0,0.0,0.0,0.0,0.0,0.0,0.0,0.0,0.0,0.0,0.0,0.0,2.443,2.4931,2.4836,2.4856,2.5186,2.5205,2.5906,2.7487,0.0,0.0,0.0,0.0,0.0,0.0,0.0,0.0,0.0,0.0,0.0,0.0,0.0,0.0,0.0,0.0,0.0,0.0,0.0,0.0,0.0,0.0,0.0,0.0,0.0,0.0,0.0,0.0,0.0,0.0,0.0,0.0,0.0,0.0,0.0,0.0,0.0,0.0,0.0,0.0,0.0,0.0,0.0,0.0,0.0,0.0,0.0,0.0,0.0,0.0,0.0,0.0,0.0,0.0,0.0,0.0,0.0,0.0,0.0,0.0,0.0,0.0,0.0,0.0,0.0,0.0,0.0,0.0,0.0,0.0,0.0,0.0,0.0,0.0,0.0,0.0,0.0,0.0,0.0,0.0,0.0,0.0,0.0,0.0,0.0,0.0,0.0,0.0,0.0,0.0,0.0,0.0,0.0,0.0,0.0,0.0,0.0,0.0,0.0,0.0,0.0,0.0,0.0,2.5083,2.5108,2.5102,2.5131,2.5205,2.5388,2.5388,2.6095,2.7688,2.7426,0.0,0.0,0.0,0.0,0.0,0.0,0.0,0.0,0.0,0.0,0.0,0.0,0.0,0.0,0.0,0.0,0.0,0.0,0.0,0.0,0.0,0.0,0.0,0.0,0.0,0.0,0.0,0.0,0.0,0.0,0.0,0.0,0.0,0.0,0.0,0.0,0.0,0.0,0.0,0.0,0.0,0.0,0.0,0.0,0.0,0.0,0.0,0.0,0.0,0.0,0.0,0.0,0.0,0.0,0.0,0.0,0.0,0.0,0.0,0.0,0.0,0.0,0.0,0.0,0.0,0.0,0.0,0.0,0.0,0.0,0.0,0.0,0.0,0.0,0.0,0.0,0.0,0.0,0.0,0.0,0.0,0.0,0.0,0.0,0.0,0.0,0.0,0.0,0.0,0.0,0.0,0.0,0.0,0.0,0.0,0.0,0.0,0.0,0.0,0.0,0.0,0.0,2.5566,2.5716,2.5577,2.5535,2.5572,2.5682,2.5682,2.6371,2.8009,2.8111,0.0,0.0,0.0,0.0,0.0,0.0,0.0,0.0,0.0,0.0,0.0,0.0,0.0,0.0,0.0,0.0,0.0,0.0,0.0,0.0,0.0,0.0,0.0,0.0,0.0,0.0,0.0,0.0,0.0,0.0,0.0,0.0,0.0,0.0,0.0,0.0,0.0,0.0,0.0,0.0,0.0,0.0,0.0,0.0,0.0,0.0,0.0,0.0,0.0,0.0,0.0,0.0,0.0,0.0,0.0,0.0,0.0,0.0,0.0,0.0,0.0,0.0,0.0,0.0,0.0,0.0,0.0,0.0,0.0,0.0,0.0,0.0,0.0,0.0,0.0,0.0,0.0,0.0,0.0,0.0,0.0,0.0,0.0,0.0,0.0,0.0,0.0,0.0,0.0,0.0,0.0,0.0,0.0,0.0,0.0,0.0,0.0,0.0,0.0,0.0,0.0,0.0,2.5877,2.5551,2.5929,2.5966,2.6104,2.6463,2.6527,2.7239,2.8886,2.9017,0.0,0.0,0.0,0.0,0.0,0.0,0.0,0.0,0.0,0.0,0.0,0.0,0.0,0.0,0.0,0.0,0.0,0.0,0.0,0.0,0.0,0.0,0.0,0.0,0.0,0.0,0.0,0.0,0.0,0.0,0.0,0.0,0.0,0.0,0.0,0.0,0.0,0.0,0.0,0.0,0.0,0.0,0.0,0.0,0.0,0.0,0.0,0.0,0.0,0.0,0.0,0.0,0.0,0.0,0.0,0.0,0.0,0.0,0.0,0.0,0.0,0.0,0.0,0.0,0.0,0.0,0.0,0.0,0.0,0.0,0.0,0.0,0.0,0.0,0.0,0.0,0.0,0.0,0.0,0.0,0.0,0.0,0.0,0.0,0.0,0.0,0.0,0.0,0.0,0.0,0.0,0.0,0.0,0.0,0.0,0.0,0.0,0.0,0.0,0.0,0.0,0.0,2.6368,2.6432,2.6379,2.638,2.6435,2.66,2.6591,2.7314,2.8986,0.0,0.0,0.0,0.0,0.0,0.0,0.0,0.0,0.0,0.0,0.0,0.0,0.0,0.0,0.0,0.0,0.0,0.0,0.0,0.0,0.0,0.0,0.0,0.0,0.0,0.0,0.0,0.0,0.0,0.0,0.0,0.0,0.0,0.0,0.0,0.0,0.0,0.0,0.0,0.0,0.0,0.0,0.0,0.0,0.0,0.0,0.0,0.0,0.0,0.0,0.0,0.0,0.0,0.0,0.0,0.0,0.0,0.0,0.0,0.0,0.0,0.0,0.0,0.0,0.0,0.0,0.0,0.0,0.0,0.0,0.0,0.0,0.0,0.0,0.0,0.0,0.0,0.0,0.0,0.0,0.0,0.0,0.0,0.0,0.0,0.0,0.0,0.0,0.0,0.0,0.0,0.0,0.0,0.0,0.0,0.0,0.0,0.0,0.0,0.0,0.0,0.0,2.693,2.696,2.6833,2.6609,2.6591,2.6591,2.6591,2.6591,2.7314,2.8986,0.0,0.0,0.0,0.0,0.0,0.0,0.0,0.0,0.0,0.0,0.0,0.0,0.0,0.0,0.0,0.0,0.0,0.0,0.0,0.0,0.0,0.0,0.0,0.0,0.0,0.0,0.0,0.0,0.0,0.0,0.0,0.0,0.0,0.0,0.0,0.0,0.0,0.0,0.0,0.0,0.0,0.0,0.0,0.0,0.0,0.0,0.0,0.0,0.0,0.0,0.0,0.0,0.0,0.0,0.0,0.0,0.0,0.0,0.0,0.0,0.0,0.0,0.0,0.0,0.0,0.0,0.0,0.0,0.0,0.0,0.0,0.0,0.0,0.0,0.0,0.0,0.0,0.0,0.0,0.0,0.0,0.0,0.0,0.0,0.0,0.0,0.0,0.0,0.0,0.0,0.0,0.0,0.0,0.0,0.0,0.0,0.0,0.0,0.0,0.0,0.0,0.0,2.882,2.7638,2.6591,2.6591,2.6591,2.6591,2.6591,2.6591,2.7314,0.0,0.0,0.0,0.0,0.0,0.0,0.0,0.0,0.0,0.0,0.0,0.0,0.0,0.0,0.0,0.0,0.0,0.0,0.0,0.0,0.0,0.0,0.0,0.0,0.0,0.0,0.0,0.0,0.0,0.0,0.0,0.0,0.0,0.0,0.0,0.0,0.0,0.0,0.0,0.0,0.0,0.0,0.0,0.0,0.0,0.0,0.0,0.0,0.0,0.0,0.0,0.0,0.0,0.0,0.0,0.0,0.0,0.0,0.0,0.0,0.0,0.0,0.0,0.0,0.0,0.0,0.0,0.0,0.0,0.0,0.0,0.0,0.0,0.0,0.0,0.0,0.0,0.0,0.0,0.0,0.0,0.0,0.0,0.0,0.0,0.0,0.0,0.0,0.0,0.0,0.0,0.0,0.0,0.0,0.0,0.0,0.0,0.0,0.0,0.0,0.0,0.0,0.0,2.726,2.6899,2.6591,2.6591,2.6591,2.6591,2.6591,2.6591,2.7314,2.8986,0.0,0.0,0.0,0.0,0.0,0.0,0.0,0.0,0.0,0.0,0.0,0.0,0.0,0.0,0.0,0.0,0.0,0.0,0.0,0.0,0.0,0.0,0.0,0.0,0.0,0.0,0.0,0.0,0.0,0.0,0.0,0.0,0.0,0.0,0.0,0.0,0.0,0.0,0.0,0.0,0.0,0.0,0.0,0.0,0.0,0.0,0.0,0.0,0.0,0.0,0.0,0.0,0.0,0.0,0.0,0.0,0.0,0.0,0.0,0.0,0.0,0.0,0.0,0.0,0.0,0.0,0.0,0.0,0.0,0.0,0.0,0.0,0.0,0.0,0.0,0.0,0.0,0.0,0.0,0.0,0.0,0.0,0.0,0.0,0.0,0.0,0.0,0.0,0.0,0.0,0.0,0.0,0.0,0.0,0.0,0.0,0.0,0.0,0.0,0.0,0.0,0.0,2.7503,2.7008,2.6646,2.6811,2.671,2.6646,2.6839,2.6683,2.7152,2.8509,0.0,0.0,0.0,0.0,0.0,0.0,0.0,0.0,0.0,0.0,0.0,0.0,0.0,0.0,0.0,0.0,0.0,0.0,0.0,0.0,0.0,0.0,0.0,0.0,0.0,0.0,0.0,0.0,0.0,0.0,0.0,0.0,0.0,0.0,0.0,0.0,0.0,0.0,0.0,0.0,0.0,0.0,0.0,0.0,0.0,0.0,0.0,0.0,0.0,0.0,0.0,0.0,0.0,0.0,0.0,0.0,0.0,0.0,0.0,0.0,0.0,0.0,0.0,0.0,0.0,0.0,0.0,0.0,0.0,0.0,0.0,0.0,0.0,0.0,0.0,0.0,0.0,0.0,0.0,0.0,0.0,0.0,0.0,0.0,0.0,0.0,0.0,0.0,0.0,0.0,0.0,0.0,0.0,0.0,0.0,0.0,0.0,0.0,0.0,0.0,0.0,0.0,2.8893,2.7725,2.6857,2.7224,2.693,2.6875,2.7224,2.693,2.7065,2.7868,0.0,0.0,0.0,0.0,0.0,0.0,0.0,0.0,0.0,0.0,0.0,0.0,0.0,0.0,0.0,0.0,0.0,0.0,0.0,0.0,0.0,0.0,0.0,0.0,0.0,0.0,0.0,0.0,0.0,0.0,0.0,0.0,0.0,0.0,0.0,0.0,0.0,0.0,0.0,0.0,0.0,0.0,0.0,0.0,0.0,0.0,0.0,0.0,0.0,0.0,0.0,0.0,0.0,0.0,0.0,0.0,0.0,0.0,0.0,0.0,2.2143,2.2065,0.0,0.0,0.0,0.0,0.0,0.0,0.0,0.0,0.0,0.0,0.0,0.0,0.0,0.0,0.0,0.0,0.0,0.0,0.0,0.0,0.0,0.0,0.0,0.0,0.0,0.0,0.0,0.0,0.0,0.0,0.0,0.0,0.0,0.0,0.0,0.0,0.0,0.0,0.0,0.0,2.9017,2.8239,2.7573,2.7665,2.7591,2.7573,2.7665,2.7591,2.7902,2.8695,2.8917,0.0,0.0,0.0,0.0,0.0,0.0,0.0,0.0,0.0,0.0,0.0,0.0,0.0,0.0,0.0,0.0,0.0,0.0,0.0,0.0,0.0,0.0,0.0,0.0,0.0,0.0,0.0,0.0,0.0,0.0,0.0,0.0,0.0,0.0,0.0,0.0,0.0,0.0,0.0,0.0,0.0,0.0,0.0,0.0,0.0,0.0,0.0,0.0,0.0,0.0,0.0,0.0,0.0,0.0,0.0,0.0,0.0,0.0,0.0,2.2091,2.2011,0.0,0.0,0.0,0.0,0.0,0.0,0.0,0.0,0.0,0.0,0.0,0.0,0.0,0.0,0.0,0.0,0.0,0.0,0.0,0.0,0.0,0.0,0.0,0.0,0.0,0.0,0.0,0.0,0.0,0.0,0.0,0.0,0.0,0.0,0.0,0.0,0.0,0.0,0.0,0.0,2.8971,2.8361,2.7867,2.8069,2.7922,2.7885,2.8069,2.7903,2.7992,2.8399,2.8794,0.0,0.0,0.0,0.0,0.0,0.0,0.0,0.0,0.0,0.0,0.0,0.0,0.0,0.0,0.0,0.0,0.0,0.0,0.0,0.0,0.0,0.0,0.0,0.0,0.0,0.0,0.0,0.0,0.0,0.0,0.0,0.0,0.0,0.0,0.0,0.0,0.0,0.0,0.0,0.0,0.0,0.0,0.0,0.0,0.0,0.0,0.0,0.0,0.0,0.0,0.0,0.0,0.0,2.2048,2.208,2.208,2.2143,2.2175,2.2175,2.2175,2.2096,2.2011,2.2011,0.0,0.0,0.0,0.0,0.0,0.0,0.0,0.0,0.0,0.0,0.0,0.0,0.0,0.0,0.0,0.0,0.0,0.0,0.0,0.0,0.0,0.0,2.7298,2.7298,2.7555,2.761,2.6967,0.0,0.0,0.0,0.0,0.0,0.0,0.0,0.0,0.0,0.0,0.0,2.9116,2.851,2.8142,2.8462,2.8215,2.8142,2.8462,2.8197,2.8014,2.8014,2.8624,2.9079,0.0,0.0,0.0,0.0,0.0,0.0,0.0,0.0,0.0,0.0,0.0,0.0,0.0,0.0,0.0,0.0,0.0,0.0,0.0,0.0,0.0,0.0,0.0,0.0,0.0,0.0,0.0,0.0,0.0,0.0,0.0,0.0,1.9884,1.9884,0.0,0.0,0.0,0.0,0.0,0.0,0.0,0.0,0.0,0.0,0.0,0.0,0.0,2.1581,2.2011,2.1937,2.1937,2.1984,2.2302,2.2446,2.2434,2.2736,2.2879,2.2879,2.2879,0.0,2.2011,2.2011,0.0,0.0,0.0,0.0,0.0,0.0,0.0,0.0,0.0,0.0,0.0,0.0,0.0,0.0,0.0,0.0,0.0,0.0,0.0,0.0,0.0,0.0,2.772,2.772,2.7757,2.7775,2.7665,2.7646,2.7646,2.7701,2.772,2.7738,0.0,0.0,0.0,0.0,0.0,0.0,3.0064,2.9399,2.8876,2.8931,2.8876,2.8876,2.8931,2.8876,2.8858,2.8858,2.8947,2.937,3.0189,2.9891,0.0,0.0,0.0,0.0,0.0,0.0,0.0,0.0,0.0,0.0,0.0,0.0,0.0,0.0,0.0,0.0,0.0,0.0,0.0,0.0,0.0,0.0,0.0,0.0,0.0,0.0,0.0,0.0,0.0,2.0432,2.0464,2.0464,2.0591,2.0686,0.0,0.0,0.0,0.0,0.0,0.0,0.0,0.0,0.0,2.1735,2.1735,2.191,2.2287,2.2287,2.2477,2.2847,2.2978,2.3181,2.34,2.3559,2.3623,2.3623,2.3623,2.3448,2.3158,2.2748,2.2545,2.2545,0.0,0.0,0.0,0.0,2.2784,2.2799,2.2958,2.2994,2.3025,2.3216,0.0,0.0,0.0,0.0,0.0,0.0,0.0,2.5201,2.5352,2.647,2.7575,2.7575,2.8046,2.8472,2.8472,2.8472,2.8417,2.8197,2.8142,2.8215,2.8436,2.8472,0.0,0.0,0.0,2.8969,2.9549,2.9242,2.9005,2.9005,2.9005,2.9005,2.9005,2.9005,2.9005,2.9005,2.9005,2.9183,2.9597,2.9879,3.0248,0.0,0.0,0.0,0.0,0.0,0.0,0.0,0.0,0.0,0.0,0.0,0.0,0.0,0.0,0.0,0.0,0.0,0.0,0.0,0.0,0.0,0.0,0.0,0.0,0.0,0.0,0.0,0.0,2.0724,2.0899,2.0899,2.0899,2.0899,0.0,0.0,0.0,0.0,0.0,0.0,2.155,2.1841,2.2064,2.2255,2.2255,2.2461,2.2907,2.2923,2.3149,2.3644,2.3644,2.38,2.4114,2.4114,2.4114,2.4114,2.4114,2.4114,2.4066,2.3527,2.3276,2.3276,2.3276,2.3276,2.3276,2.3276,2.3276,2.3276,2.3276,2.3276,2.3324,2.3565,2.3644,2.3721,2.4005,0.0,0.0,0.0,0.0,2.5188,2.5241,2.6287,2.7293,2.7293,2.8045,2.8737,2.8737,2.8886,2.8902,2.8608,2.8535,2.8645,2.8968,2.9005,0.0,2.9005,2.9005,2.9005,2.9005,2.9005,2.9005,2.9005,2.9005,2.9005,2.9005,2.9005,2.9005,2.9005,2.9005,2.9005,2.9005,2.9656,3.0039,3.0039,0.0,0.0,0.0,0.0,0.0,0.0,0.0,0.0,0.0,0.0,0.0,0.0,0.0,0.0,0.0,0.0,0.0,0.0,0.0,0.0,0.0,0.0,0.0,0.0,0.0,0.0,0.0,0.0,0.0,2.0899,2.0899,0.0,0.0,0.0,0.0,2.1365,2.1735,2.1952,2.1952,2.1995,2.2287,2.2942,2.2958,2.3292,2.3989,2.4034,2.405,2.4082,2.4082,2.4098,2.4114,2.4114,2.4114,2.4114,2.4114,2.4114,2.4114,2.4082,2.402,2.402,2.402,2.402,2.402,2.402,2.402,2.402,2.402,2.402,2.4066,2.4052,2.4082,2.4052,2.4068,2.4114,0.0,0.0,2.5057,2.5631,2.5965,2.652,2.7021,2.7021,2.7551,2.805,2.805,2.8558,2.8975,2.8957,2.8986,2.8986,2.9005,0.0,2.9005,2.9005,2.9005,2.9005,2.9005,2.9005,2.9005,2.9005,2.9005,2.9005,2.9005,2.9005,2.9005,2.9005,2.9005,2.9005,2.9005,2.9035,2.9064,2.9064,2.9981,0.0,0.0,0.0,0.0,0.0,0.0,0.0,0.0,0.0,0.0,0.0,0.0,0.0,0.0,0.0,0.0,0.0,0.0,0.0,0.0,0.0,0.0,0.0,0.0,0.0,0.0,0.0,0.0,2.1216,2.1206,0.0,2.1587,2.173,2.1783,2.1783,2.2307,2.2641,2.2641,2.3098,2.3448,2.3702,2.3718,2.383,2.4114,2.4114,2.4195,2.4418,2.4418,2.4545,2.4738,2.4738,2.4738,2.4738,2.4738,2.4738,2.4738,2.4738,2.4498,2.4114,2.4114,2.4114,2.4114,2.4114,2.4114,2.4114,2.4114,2.4114,2.4145,2.4339,2.4577,2.4738,2.4738,2.4738,2.4754,2.4881,2.5096,2.5359,2.5699,2.6244,2.6929,2.7599,2.824,2.8826,2.9305,2.9611,2.9764,2.9764,2.9544,2.939,2.939,2.958,2.9764,2.9764,2.9764,2.9764,2.9764,2.9764,2.9654,2.9427,2.939,2.9299,2.9042,2.9005,2.9005,2.9005,2.9005,2.9005,2.9005,2.9005,2.9005,2.9005,2.9331,2.9509,0.0,0.0,0.0,0.0,0.0,0.0,0.0,0.0,0.0,0.0,0.0,0.0,0.0,0.0,0.0,0.0,0.0,0.0,0.0,0.0,0.0,0.0,0.0,0.0,0.0,2.1074,2.1201,2.155,2.1692,2.1894,2.2143,2.2382,2.2525,2.2525,2.3038,2.3371,2.3371,2.383,2.4161,2.4259,2.4259,2.4323,2.4434,2.4434,2.4561,2.4754,2.4881,2.5056,2.5263,2.5405,2.5453,2.5453,2.5453,2.5453,2.5453,2.5453,2.5214,2.4798,2.4529,2.4434,2.4434,2.4434,2.4434,2.4434,2.4434,2.4434,2.4482,2.472,2.4992,2.5247,2.5247,2.5373,2.5453,2.5453,2.564,2.5844,2.6085,2.6653,2.7361,2.8054,2.8689,2.9284,2.9769,3.0049,3.0204,3.0204,2.9965,2.9813,2.9813,3.002,3.0204,3.0204,3.0204,3.0204,3.0204,3.0204,3.0094,2.9849,2.9813,2.9647,2.9243,2.9207,2.9152,2.9023,2.9005,2.9005,2.9005,2.9005,2.9005,2.9005,2.9005,2.9005,2.9005,0.0,0.0,0.0,0.0,0.0,0.0,0.0,0.0,0.0,0.0,0.0,0.0,0.0,0.0,0.0,0.0,0.0,0.0,0.0,0.0,0.0,0.0,0.0,2.1486,2.1428,2.1581,2.1984,2.2334,2.2557,2.2557,2.3136,2.3533,2.3533,2.388,2.4129,2.4129,2.4145,2.4275,2.4609,2.4641,2.4785,2.5119,2.5135,2.5135,2.5151,2.5453,2.5628,2.5628,2.6025,2.6216,2.6216,2.6216,2.6216,2.6216,2.6216,2.6216,2.6136,2.5405,2.5135,2.5135,2.5135,2.5135,2.5135,2.5135,2.5135,2.5135,2.5135,2.5342,2.5628,2.5628,2.5913,2.6232,2.6232,2.6711,2.7252,2.7268,2.7775,2.8312,2.8361,2.8818,2.9243,2.9275,2.9823,3.0277,3.0277,3.0277,3.0259,3.0222,3.0222,3.0241,3.0241,3.0241,0.0,3.0241,3.0241,3.0241,3.0222,3.0222,3.0057,2.9666,2.9629,2.9464,2.9048,2.9042,2.9023,2.9023,2.9023,2.9005,2.9005,2.9005,2.9005,2.9005,0.0,0.0,0.0,0.0,0.0,0.0,0.0,0.0,0.0,0.0,0.0,0.0,0.0,0.0,0.0,0.0,0.0,0.0,0.0,0.0,0.0,2.2143,2.2255,2.1862,2.2037,2.2339,2.2688,2.301,2.3356,2.3623,2.383,2.3941,2.3941,2.4275,2.4466,2.4466,2.4674,2.4865,2.496,2.5214,2.5358,2.5453,2.5739,2.5898,2.5898,2.5993,2.6041,2.6041,2.6136,2.6216,2.6216,2.6216,2.6216,2.6216,2.6216,2.6216,2.6184,2.5961,2.5898,2.5898,2.5898,2.5898,2.5898,2.5898,2.5898,2.5898,2.5898,2.5961,2.6041,2.6041,2.6455,2.6934,2.6934,2.7442,2.8048,2.8288,2.8516,2.884,2.9585,3.0157,3.063,3.1117,3.1596,3.1928,3.1928,3.1928,3.1653,3.0772,3.0864,3.1047,3.1047,3.1047,3.1047,3.1047,3.1047,3.0937,3.0662,3.0626,3.0461,3.0057,3.002,2.9984,2.9874,2.9611,2.9445,2.9445,2.917,2.9005,2.9005,2.9005,2.9005,0.0,0.0,0.0,0.0,0.0,0.0,0.0,0.0,0.0,0.0,0.0,0.0,0.0,0.0,0.0,0.0,0.0,0.0,0.0,0.0,0.0,0.0,2.2704,2.2911,2.2875,2.2895,2.3054,2.3403,2.3769,2.4055,2.4291,2.4434,2.4529,2.4529,2.469,2.4865,2.5024,2.5184,2.5389,2.5563,2.5739,2.585,2.585,2.6073,2.6216,2.6216,2.6327,2.6391,2.6407,2.655,2.6629,2.6629,2.6629,2.6629,2.6629,2.6629,2.6629,2.6597,0.0,0.0,0.0,0.0,2.6216,2.6216,2.6216,2.6216,2.6216,2.6216,2.6311,2.6391,2.6391,2.6793,2.7263,2.7586,2.8167,2.8828,2.931,2.9652,3.0027,3.0613,3.0977,3.1269,3.1679,3.1928,3.2093,3.2093,3.2093,0.0,3.1157,3.1506,3.1891,3.1891,3.1891,3.1891,3.1891,3.1777,3.1561,3.1322,3.1139,3.0882,3.0479,3.0442,0.0,0.0,0.0,2.9868,2.9868,2.9617,0.0,0.0,0.0,2.9489,2.9489,2.9489,0.0,0.0,2.917,2.9005,0.0,0.0,0.0,0.0,0.0,0.0,0.0,0.0,0.0,0.0,0.0,0.0,0.0,0.0,0.0,0.0,2.3406,2.3739,2.41,2.388,2.3787,2.4116,2.445,2.4673,2.4673,2.4928,2.5135,2.5136,2.5167,2.5326,2.5644,2.566,0.0,0.0,0.0,2.628,2.628,2.6279,2.6295,2.6327,2.6613,2.6772,2.6772,2.7057,2.72,2.72,2.72,2.72,2.72,2.72,2.72,2.7137,2.655,2.6295,2.6295,2.6295,2.6295,2.6295,2.6295,0.0,0.0,2.6295,2.6583,2.6871,2.6871,2.7177,2.7699,2.8329,2.9021,2.9659,3.0245,3.0894,3.141,3.141,3.1446,3.1483,3.1483,3.152,3.1557,3.1557,3.1557,3.1557,3.1557,3.2038,3.2478,3.2514,3.2533,3.2551,3.2588,3.2294,3.2074,3.2074,3.1744,0.0,3.0956,3.0919,3.0754,3.0369,3.0296,3.0241,3.0204,3.0204,3.0204,3.0204,3.0204,3.0204,3.0204,3.0204,3.0204,3.0185,2.9452,2.9152,0.0,0.0,0.0,0.0,0.0,0.0,0.0,0.0,0.0,0.0,0.0,0.0,0.0,0.0,0.0,2.3782,2.418,2.4404,2.4498,2.4674,2.4722,2.4529,2.4785,2.5008,2.5008,2.5071,2.5199,2.5485,2.5501,2.566,2.6057,2.6073,2.6104,2.6216,2.6454,2.6597,2.6597,2.6851,2.6994,2.6994,2.7073,0.0,2.7105,2.7169,2.72,2.72,2.72,2.72,2.72,2.72,2.72,2.7185,2.7057,2.6994,2.6994,2.6994,2.6994,2.6994,2.6994,2.6994,2.6994,2.6994,2.7439,2.7999,2.7999,2.8789,0.0,2.9855,3.044,3.1023,3.1152,3.1281,3.141,3.141,3.1634,3.1891,3.1891,3.2129,3.2368,3.2368,3.2368,3.2368,3.2368,3.1946,3.1726,3.2074,3.2129,3.2239,3.2551,3.2533,3.2478,3.2478,3.2404,3.2203,3.1799,3.1781,3.1598,3.1208,3.0846,3.0534,3.0204,3.0204,3.0204,3.0204,3.0204,3.0204,3.0204,3.0204,3.0204,3.0204,3.0039,2.9965,0.0,0.0,0.0,0.0,0.0,0.0,0.0,0.0,0.0,0.0,0.0,2.2911,2.3464,0.0,2.3734,2.4259,2.4498,2.4673,2.4817,2.4992,2.504,2.4865,2.5008,2.5183,2.5326,2.5342,2.5485,2.5866,2.5898,2.6041,2.6422,2.6438,2.6534,2.6709,2.6851,2.6946,2.6946,2.7121,2.72,2.72,2.72,2.72,2.72,2.72,2.72,2.72,2.72,2.72,2.72,2.72,2.72,2.72,2.72,2.72,2.72,2.72,2.72,2.72,2.72,2.7434,2.7733,2.7733,2.8229,2.879,2.879,2.9283,2.9872,3.023,3.0588,3.0926,3.1313,3.141,3.141,3.141,3.1543,3.1689,3.1689,3.1854,3.1983,3.1983,3.1983,3.1983,3.1983,3.1685,3.1579,3.2203,3.2294,3.2368,3.257,3.2588,3.2588,3.2588,3.2588,3.2514,3.2313,3.2294,3.2203,3.2001,3.1799,3.1598,3.1414,3.1396,3.1396,3.1396,3.1396,3.1396,3.1396,3.1396,3.1396,3.1396,3.1396,3.0974,0.0,0.0,0.0,0.0,0.0,0.0,0.0,2.2573,2.2891,2.3149,2.3451,2.3753,2.4116,2.4209,2.4307,2.4657,2.472,2.4801,2.5167,2.5214,2.5246,2.531,2.5246,2.531,2.5675,2.5739,2.5882,2.6263,2.6311,2.6438,2.6788,2.6804,2.6914,2.72,2.72,2.72,2.72,2.72,2.72,2.72,2.72,2.72,2.72,2.72,2.72,2.72,2.728,2.7343,2.7407,2.7486,2.7502,2.7518,2.7582,2.7614,2.7582,2.7312,2.72,2.7234,2.7367,2.7799,2.8329,2.8461,2.8955,2.9513,2.9513,2.9593,2.9822,3.0343,3.0505,3.0635,3.1249,3.141,3.141,3.141,3.141,3.141,3.141,3.141,3.141,3.141,3.141,3.1428,3.1488,3.1538,3.1758,3.2386,3.2478,3.2514,3.2588,3.2588,3.2588,3.2588,3.2588,3.2588,3.2588,3.2588,3.2588,3.2588,3.2588,3.2588,3.2588,3.2588,3.2588,3.2588,3.2588,3.2588,3.2588,3.2588,3.2588,3.2588,3.2588,3.1909,2.1777,2.1905,2.2016,2.2366,2.2656,2.2974,0.0,2.3626,2.3909,2.3957,2.3989,2.4132,2.4482,2.4545,2.4642,2.4992,2.5056,2.5167,2.5501,2.5549,2.5691,2.6025,2.5755,2.5707,2.6088,2.612,2.6263,2.6629,2.6645,2.6804,2.7121,2.7137,2.7169,2.72,2.72,2.72,2.72,2.72,2.72,2.72,2.72,2.72,2.72,2.72,2.72,2.7216,2.75,2.7802,2.8138,2.8456,2.8634,2.8665,2.8948,2.9059,2.8916,2.7661,2.72,2.73,2.7932,2.8229,2.8395,2.8988,2.9643,3.0198,3.0198,3.0635,3.1184,3.1249,3.1281,3.1313,3.1377,3.141,3.141,3.141,3.141,3.141,3.141,3.141,3.141,3.141,3.141,3.1506,3.1873,3.1946,3.1964,3.2056,3.2074,3.2203,3.2551,3.2588,3.2588,3.2588,3.2588,3.2588,3.2588,3.2588,3.2588,3.2588,3.2588,3.2588,3.2588,3.2588,3.2588,3.2588,3.2588,3.2588,3.2588,3.2588,3.2588,3.2588,3.2588,3.2496,2.2191,2.2287,2.243,2.2958,2.3184,2.339,2.3769,2.3973,2.4161,2.4339,2.4386,2.4498,2.4817,2.4881,2.4944,2.5087,2.5247,2.5437,2.558,2.5802,2.6088,2.6438,2.6327,2.6295,2.647,2.6486,2.6725,2.7248,2.7296,2.7439,2.7738,2.7804,2.7804,2.7804,2.7804,2.7804,2.7804,2.7804,2.7804,2.7804,2.8011,2.8122,2.8156,2.8329,2.8424,2.8424,2.8583,2.8726,2.8853,2.9012,2.936,2.9786,2.9932,3.0283,3.0555,2.9505,2.8972,2.8862,2.9647,3.0037,3.0268,3.0551,3.1101,3.1631,3.1631,3.1862,3.2093,3.2093,3.2093,3.2093,3.2093,3.2093,3.2093,3.2093,3.2093,3.2093,3.2093,3.2093,3.2093,3.2093,3.2093,3.2148,3.2313,3.2349,3.2349,3.2349,3.2148,3.1983,3.1891,3.2093,3.2331,3.257,3.2588,3.2588,3.2588,3.2588,3.2588,3.2588,3.2588,3.2588,3.2588,3.2588,3.2588,3.2588,3.2588,3.2588,3.2588,3.2588,3.2588,3.2588,3.2588,3.2588,2.2672,2.2784,2.2927,2.353,2.3724,2.3896,2.4164,2.4307,2.445,2.4704,2.4722,2.4801,2.5056,2.5103,2.5135,2.5199,2.5437,2.5675,2.5866,2.6168,2.6486,2.6914,2.6962,2.6994,2.7089,2.7026,2.7216,2.7786,2.7834,2.7945,2.8183,2.8183,2.8183,2.8183,2.8183,2.823,2.8376,2.8376,2.8424,2.8519,2.8789,2.8952,2.8952,2.9171,2.9453,2.9765,2.9765,2.9957,3.0271,3.0368,3.0763,3.1268,3.1368,3.1779,3.2248,3.1888,3.1178,3.052,3.1288,3.1737,3.1969,3.2139,3.2546,3.2918,3.2808,3.2771,3.2735,3.2625,3.2588,3.2588,3.2588,3.2588,3.2588,3.2588,3.268,3.2771,3.2771,3.2845,3.2936,3.2936,3.2936,3.2973,3.3083,3.3101,3.3101,3.3101,3.2845,3.2441,3.1799,3.1983,3.2276,3.257,3.2698,3.2716,3.2606,3.2698,3.2716,3.2606,3.2588,3.2588,3.2588,3.2588,3.2588,3.2588,3.2588,3.2643,3.2771,3.2771,3.2826,3.2936,3.2936,3.2881,2.339,2.3486,2.3565,2.3973,2.4323,2.4577,2.4593,2.4833,2.5071,2.5087,2.5087,2.5103,2.5103,2.5103,2.523,2.5533,2.5596,2.5834,2.6582,2.6693,2.6914,2.758,2.7659,2.7786,2.8103,2.7849,2.7802,2.8151,2.8167,2.8183,2.8183,2.8183,2.8183,2.8183,2.8183,2.8392,2.8793,2.8793,2.8932,2.9266,2.9282,2.9282,2.9282,2.9298,2.9905,3.0953,3.0953,3.1588,3.2726,3.3032,3.3186,3.3257,3.358,3.3696,3.3847,3.4599,3.3487,3.1736,3.2491,3.2771,3.2858,3.3537,3.3745,3.3707,3.3287,3.3177,3.3086,3.2716,3.2588,3.2588,3.2588,3.2588,3.2588,3.2588,3.2918,3.3177,3.3177,3.347,3.378,3.378,3.378,3.3908,3.4275,3.4348,3.4348,3.4348,3.433,3.3908,3.2716,3.257,3.2588,3.2588,3.2955,3.3012,3.2625,3.2973,3.3028,3.2625,3.2588,3.2588,3.2588,3.2588,3.2588,3.2588,3.2588,3.279,3.3177,3.3177,3.336,3.378,3.378,3.3544,2.3486,2.3676,2.3989,2.4339,2.4529,2.4673,2.4881,2.5024,2.5103,2.5103,2.5103,2.5103,2.5103,2.5279,2.5469,2.558,2.6025,2.6406,2.6677,2.7073,2.7471,2.7675,2.8375,2.8959,2.9284,2.8542,2.8201,2.8567,2.8583,2.8694,2.8916,2.8932,2.9043,2.9246,2.9246,2.9405,2.979,2.979,3.0162,3.084,3.1566,3.2074,3.2308,3.2308,3.2486,3.2865,3.2865,3.3082,3.348,3.36,3.3952,3.4439,3.4541,3.4932,3.5418,3.5717,3.5299,3.4702,3.4667,3.4467,3.4303,3.4517,3.4588,3.457,3.4423,3.4386,3.4368,3.4222,3.4167,3.4167,3.4167,3.4167,3.4167,3.4167,3.4295,3.4386,3.4386,3.4496,3.4588,3.4588,3.4588,3.4625,3.4753,3.4789,3.4789,3.4789,3.4331,3.3872,3.345,3.3413,3.3413,3.3413,3.3523,3.345,3.3046,3.3104,3.3046,3.2625,3.2588,3.2588,3.2588,3.2588,3.2588,3.2588,3.2588,3.2661,3.2808,3.3049,3.3269,3.3397,3.3688,3.3743,2.3819,2.407,2.4354,2.4674,2.477,2.4833,2.5056,2.5103,2.5165,2.541,2.5257,2.5212,2.5571,2.5827,2.6006,2.5993,2.66,2.7148,2.7439,2.7875,2.833,2.8813,2.9523,3.0116,3.0467,2.9829,2.9395,2.9392,2.9373,2.9392,2.9472,2.9488,2.9756,3.04,3.0417,3.0762,3.1383,3.1346,3.1725,3.2395,3.3137,3.36,3.3802,3.3802,3.3954,3.4218,3.4218,3.4406,3.4669,3.4669,3.4969,3.5418,3.5418,3.5754,3.6201,3.6201,3.6201,3.6164,3.5925,3.5669,3.5412,3.5412,3.5412,3.5394,3.5247,3.5211,3.5174,3.5028,3.4991,3.4991,3.4991,3.4991,3.4991,3.4991,3.5101,3.5211,3.5211,3.5321,3.5412,3.5412,3.5412,3.5412,3.5412,3.5412,3.5412,3.5412,3.5009,3.4568,3.4293,3.4222,3.4222,3.4222,3.4222,3.4092,3.3635,3.3651,3.3468,3.3046,3.3028,3.3028,3.3028,3.3028,3.3028,3.3028,3.3028,3.3101,3.3248,3.3505,3.3794,3.4061,3.432,3.4519,2.4464,2.4655,2.4751,2.5024,2.5134,2.5134,2.5134,2.5165,2.538,2.6022,2.5625,2.5461,2.6438,2.6676,2.6735,2.676,2.7328,2.808,2.8826,2.8976,2.9479,3.0857,3.1063,3.127,3.1665,3.1735,3.1417,3.0636,3.0513,3.032,2.9984,2.9963,3.0453,3.1568,3.1675,3.2211,3.3292,3.3366,3.3555,3.3878,3.3916,3.3916,3.3916,3.3916,3.4331,3.5082,3.5082,3.5493,3.6201,3.6201,3.6201,3.6201,3.6201,3.6201,3.6201,3.6201,3.6201,3.6201,3.6201,3.6201,3.6201,3.6201,3.6201,3.6146,3.576,3.5614,3.5541,3.5156,3.5046,3.5046,3.5046,3.5046,3.5046,3.5046,3.5339,3.5614,3.5614,3.5944,3.6201,3.6201,3.6201,3.6201,3.6201,3.6201,3.6201,3.6201,3.6201,3.5925,3.5156,3.5046,3.5046,3.5046,3.5046,3.4881,3.4495,3.4458,3.4293,3.3908,3.3872,3.3872,3.3872,3.3872,3.3872,3.3872,3.3872,3.4055,3.444,3.4458,3.4873,3.5636,3.5655,3.5888,2.5294,2.5526,2.5633,2.521,2.5472,2.587,2.587,2.6205,2.6571,2.6753,2.6297,2.5999,2.6531,2.6874,2.7141,2.7392,2.8259,2.907,2.9562,2.9868,3.0259,3.0926,3.1739,3.2439,3.2843,3.3375,3.3482,3.305,3.2232,3.1818,3.2025,3.2042,3.2284,3.2824,3.2878,3.3123,3.3648,3.4249,3.4601,3.4707,3.5306,3.5605,3.5605,3.5605,3.5717,3.5903,3.5903,3.6015,3.6201,3.6201,3.6201,3.6201,3.6201,3.6201,3.6201,3.6201,3.6201,3.6201,3.6201,3.6201,3.6201,3.6201,3.6201,3.6182,3.6091,3.6054,3.6036,3.5925,3.5907,3.5907,3.5907,3.5907,3.5907,3.5907,3.5981,3.6054,3.6054,3.6146,3.6201,3.6201,3.6201,3.6201,3.6201,3.6201,3.6201,3.6201,3.6201,3.6127,3.5925,3.5907,3.5907,3.5907,3.5907,3.5742,3.5339,3.5302,3.5101,3.4716,3.468,3.468,3.468,3.468,3.468,3.468,3.468,3.4734,3.4826,3.5462,3.5846,3.6048,3.6657,3.7007,2.6171,2.6342,2.6419,2.6022,2.6236,2.6493,2.6493,2.6753,2.7086,2.7388,2.6705,2.6416,2.7509,2.7686,2.7832,2.8305,2.9349,3.019,3.0589,3.0956,3.1442,3.2155,3.2928,3.3515,3.3749,3.432,3.4665,3.4667,3.3585,3.2971,3.3022,3.3003,3.3322,3.402,3.4038,3.4291,3.4857,3.5306,3.553,3.553,3.5978,3.6201,3.6201,3.6201,3.6201,3.6201,3.6201,3.6201,3.6201,3.6201,3.6201,3.6201,3.6201,3.6201,3.6201,3.6201,3.6201,3.6201,3.6201,3.6201,3.6201,3.6201,3.6201,3.6201,3.6201,3.6201,3.6201,3.6201,3.6201,3.6201,3.6201,3.6201,3.6201,3.6201,3.6201,3.6201,3.6201,3.6201,3.6201,3.6201,3.6201,3.6201,3.6201,3.6201,3.6201,3.6201,3.6201,3.6201,3.6201,3.6201,3.6201,3.6201,3.6201,3.6109,3.5889,3.587,3.5779,3.5522,3.5522,3.5522,3.5522,3.5705,3.5795,3.5795,3.5959,3.6068,3.6068,3.6511,3.6806,3.7007,3.7454,3.7752,2.706,2.7146,2.7116,2.7025,2.7056,2.7146,2.7146,2.7207,2.7448,2.802,2.7177,2.6912,2.875,2.8734,2.8648,2.9309,3.0384,3.1269,3.1696,3.2072,3.2742,3.3765,3.4202,3.444,3.455,3.4863,3.5229,3.5669,3.4739,3.4028,3.3698,3.3678,3.4132,3.5139,3.5157,3.5493,3.6201,3.6201,3.6201,3.6201,3.6201,3.6201,3.6201,3.6201,3.6201,3.6201,3.6201,3.6201,3.6201,3.6201,3.6201,3.6201,3.6201,3.6201,3.6201,3.6201,3.6201,3.6201,3.6201,3.6201,3.6201,3.6201,3.6201,3.6201,3.6201,3.6201,3.6201,3.6201,3.6201,3.6201,3.6201,3.6201,3.6201,3.6201,3.6201,3.6201,3.6201,3.6201,3.6201,3.6201,3.6201,3.6201,3.6201,3.6201,3.6201,3.6201,3.6201,3.6201,3.6201,3.6201,3.6201,3.6201,3.6201,3.6201,3.6201,3.6201,3.6201,3.6201,3.6238,3.6275,3.6275,3.6664,3.6886,3.6886,3.7218,3.7421,3.7421,3.7439,3.7679,3.8009,3.8045,3.8265,2.7822,2.784,2.7689,2.7146,2.7418,2.784,2.784,2.8259,2.8677,2.8797,2.8199,2.7947,2.8906,2.9065,2.9298,2.9992,3.1073,3.1983,3.2366,3.2752,3.3349,3.4185,3.4367,3.466,3.5339,3.5431,3.565,3.6072,3.5925,3.5758,3.5683,3.5683,3.5793,3.5978,3.5978,3.6052,3.6201,3.6201,3.6201,3.6201,3.6201,3.6201,3.6201,3.6201,3.6201,3.6201,3.6201,3.6201,3.6201,3.6201,3.6201,3.6201,3.6201,3.6201,3.6201,3.6201,3.6201,3.6201,3.6201,3.6201,3.6201,3.6201,3.6201,3.6201,3.6201,3.6201,3.6201,3.6201,3.6201,3.6201,3.6201,3.6201,3.6201,3.6201,3.6201,3.6201,3.6201,3.6201,3.6201,3.6201,3.6201,3.6201,3.6201,3.6201,3.6201,3.6201,3.6201,3.6201,3.6201,3.6201,3.6201,3.6201,3.6201,3.6201,3.6201,3.6201,3.6201,3.6201,3.6497,3.6701,3.6701,3.7071,3.7292,3.7292,3.7365,3.7421,3.7421,3.7715,3.7936,3.8009,3.8338,3.8538,2.8528,2.8528,2.8439,2.811,2.8289,2.8528,2.8528,2.8767,2.9005,2.9005,2.8469,2.8341,2.9483,2.9409,2.9582,3.0703,3.168,3.2386,3.257,3.3138,3.3709,3.433,3.4587,3.4972,3.5522,3.5797,3.5999,3.6201,3.6201,3.6201,3.6201,3.6201,3.6201,3.6201,3.6201,3.6201,3.6201,3.6201,3.6201,3.6201,3.6201,3.6201,3.6201,3.6201,3.6201,3.6201,3.6201,3.6201,3.6201,3.6201,3.6201,3.6201,3.6201,3.6201,3.6201,3.6201,3.6201,3.6201,3.6201,3.6201,3.6201,3.6201,3.6201,3.6201,3.6201,3.6201,3.6201,3.6201,3.6201,3.6201,3.6201,3.6201,3.6201,3.6201,3.6201,3.6201,3.6201,3.6201,3.6201,3.6201,3.6201,3.6201,3.6201,3.6201,3.6201,3.6201,3.6201,3.6201,3.6201,3.6201,3.6201,3.6201,3.6201,3.6201,3.6201,3.6201,3.6293,3.6516,3.6701,3.6886,3.7107,3.7495,3.7715,3.7715,3.7936,3.8026,3.8026,3.8228,3.8302,3.8338,3.8501,3.8611,2.9005,2.9005,2.9005,2.9005,2.9005,2.9005,2.9005,2.9005,2.9005,2.9005,2.866,2.872,2.9965,2.9823,2.9955,3.1203,3.2089,3.2588,3.2588,3.3303,3.4,3.4477,3.4789,3.5174,3.5669,3.6017,3.6201,3.6201,3.6201,3.6201,3.6201,3.6201,3.6201,3.6201,3.6201,3.6201,3.6201,3.6201,3.6201,3.6201,3.6201,3.6201,3.6201,3.6201,3.6201,3.6201,3.6201,3.6201,3.6201,3.6201,3.6201,3.6201,3.6201,3.6201,3.6201,3.6201,3.6201,3.6201,3.6201,3.6201,3.6201,3.6201,3.6201,3.6201,3.6201,3.6201,3.6201,3.6201,3.6201,3.6201,3.6201,3.6201,3.6201,3.6201,3.6201,3.6201,3.6201,3.6201,3.6201,3.6201,3.6201,3.6201,3.6201,3.6201,3.6201,3.6201,3.6201,3.6201,3.6201,3.6201,3.6238,3.6312,3.6238,3.6238,3.6312,3.633,3.6516,3.6886,3.6997,3.7181,3.7532,3.7899,3.8119,3.8119,3.8428,3.8611,3.8611,3.8611,3.8611,3.8611,3.8611,3.8611,2.9005,2.9005,2.9005,2.9005,2.9005,2.9005,2.9005,2.9005,2.9005,2.9005,2.9239,2.9593,3.0112,3.0466,3.0819,3.1304,3.2089,3.2588,3.2588,3.3303,3.4057,3.4844,3.4973,3.5284,3.6072,3.6182,3.6201,3.6201,3.6201,3.6201,3.6201,3.6201,3.6201,3.6201,3.6201,3.6201,3.6201,3.6201,3.6201,3.6201,3.6201,3.6201,3.6201,3.6201,3.6201,3.6201,3.6201,3.6201,3.6201,3.6201,3.6201,3.6201,3.6201,3.6201,3.6201,3.6201,3.6201,3.6201,3.6201,3.6201,3.6201,3.6201,3.6201,3.6201,3.6201,3.6201,3.6201,3.6201,3.6201,3.6201,3.6201,3.6201,3.6201,3.6201,3.6201,3.6201,3.6201,3.6201,3.6201,3.6201,3.6201,3.6201,3.6201,3.6201,3.6201,3.6201,3.6201,3.6201,3.6201,3.6201,3.6349,3.6701,3.6442,3.6367,3.6701,3.6738,3.6923,3.7329,3.7679,3.7899,3.7936,3.8338,3.8538,3.8538,3.8574,3.8611,3.8611,3.8611,3.8611,3.8611,3.8611,3.8611,2.9153,2.942,2.9715,2.9124,2.9005,2.9005,2.9005,2.9005,2.9005,2.9005,2.9335,2.9739,3.013,3.0516,3.0919,3.1336,3.2089,3.2588,3.2588,3.3303,3.411,3.4899,3.4991,3.5302,3.6127,3.6201,3.6201,3.6201,3.6201,3.6201,3.6201,3.6201,3.6201,3.6201,3.6201,3.6201,3.6201,3.6201,3.6201,3.6201,3.6201,3.6201,3.6201,3.6201,3.6201,3.6201,3.6201,3.6201,3.6201,3.6201,3.6201,3.6201,3.6201,3.6201,3.6201,3.6201,3.6201,3.6201,3.6201,3.6201,3.6201,3.6201,3.6201,3.6201,3.6201,3.6201,3.6201,3.6201,3.6201,3.6201,3.6201,3.6201,3.6201,3.6201,3.6201,3.6201,3.6201,3.6201,3.6201,3.6201,3.6201,3.6201,3.6201,3.6201,3.6201,3.6201,3.6201,3.6201,3.6201,3.6201,3.6349,3.6775,3.6664,3.6738,3.7107,3.7144,3.7329,3.7752,3.7899,3.8119,3.8375,3.8501,3.8611,3.8611,3.8611,3.8611,3.8611,3.8611,3.8611,3.8611,3.8611,3.8611,2.9331,2.9686,3.0186,2.9213,2.9005,2.9005,2.9005,2.9005,2.9005,2.9005,2.9397,2.9855,3.0149,3.0626,3.1047,3.1373,3.2089,3.2588,3.2588,3.3303,3.411,3.4899,3.4991,3.5302,3.6127,3.6201,3.6201,3.6201,3.6201,3.6201,3.6201,3.6201,3.6201,3.6201,3.6201,3.6201,3.6201,3.6201,3.6201,3.6201,3.6201,3.6201,3.6201,3.6201,3.6201,3.6201,3.6201,3.6201,3.6201,3.6201,3.6201,3.6201,3.6201,3.6201,3.6201,3.6201,3.6201,3.6201,3.6201,3.6201,3.6201,3.6201,3.6201,3.6201,3.6201,3.6201,3.6201,3.6201,3.6201,3.6201,3.6201,3.6201,3.6201,3.6201,3.6201,3.6201,3.6201,3.6201,3.6201,3.6201,3.6201,3.6201,3.6201,3.6201,3.6201,3.6201,3.6201,3.6238,3.6349,3.6386,3.659,3.7107,3.7144,3.7255,3.7568,3.7568,3.7752,3.8155,3.8192,3.8302,3.8574,3.8611,3.8611,3.8611,3.8611,3.8611,3.8611,3.8611,3.8611,3.8611,3.8611,3.8611,2.9509,2.9686,3.0186,2.9213,2.9005,2.9005,2.9005,2.9005,2.9005,2.9005,2.9635,3.0204,3.0204,3.0846,3.141,3.141,3.2089,3.2588,3.2588,3.3303,3.411,3.4899,3.4991,3.5302,3.6127,3.6201,3.6201,3.6201,3.6201,3.6201,3.6201,3.6201,3.6201,3.6201,3.6201,3.6201,3.6201,3.6201,3.6201,3.6201,3.6201,3.6201,3.6201,3.6201,3.6201,3.6201,3.6201,3.6201,3.6201,3.6201,3.6201,3.6201,3.6201,3.6201,3.6201,3.6201,3.6201,3.6201,3.6201,3.6201,3.6201,3.6201,3.6201,3.6201,3.6201,3.6201,3.6201,3.6201,3.6201,3.6201,3.6201,3.6201,3.6201,3.6201,3.6201,3.6201,3.6201,3.6201,3.6201,3.6201,3.6201,3.6201,3.6201,3.6201,3.6201,3.6201,3.6201,3.6349,3.6738,3.6812,3.7107,3.7899,3.7972,3.7972,3.7972,3.7972,3.8155,3.8574,3.8574,3.8611,3.8611,3.8611,3.8611,3.8611,3.8611,3.8611,3.8611,3.8611,3.8611,3.8611,3.8611,3.8611,3.046,3.0636,3.0966,2.939,2.9005,2.9005,2.9005,2.9005,2.9097,2.9354,2.9819,3.0277,3.0552,3.1029,3.141,3.141,3.2089,3.2588,3.2588,3.3303,3.411,3.4899,3.5504,3.5925,3.6182,3.6201,3.6201,3.6201,3.6201,3.6201,3.6201,3.6201,3.6201,3.6201,3.6201,3.6201,3.6201,3.6201,3.6201,3.6201,3.6201,3.6201,3.6201,3.6201,3.6201,3.6201,3.6201,3.6201,3.6201,3.6201,3.6201,3.6201,3.6201,3.6201,3.6201,3.6201,3.6201,3.6201,3.6201,3.6201,3.6201,3.6201,3.6201,3.6201,3.6201,3.6201,3.6201,3.6201,3.6201,3.6201,3.6201,3.6201,3.6201,3.6201,3.6201,3.6201,3.6201,3.6201,3.6201,3.6201,3.6201,3.6201,3.6201,3.6442,3.6627,3.6627,3.6849,3.7071,3.7181,3.7218,3.7402,3.7936,3.8009,3.8119,3.8392,3.8411,3.8465,3.8574,3.8611,3.8611,3.8611,3.8611,3.8611,3.8611,3.8611,3.8611,3.8611,3.8611,3.8611,3.8611,3.8611,3.8611,3.1421,3.1343,3.143,2.9903,2.9538,2.945,2.9064,2.9272,2.9532,2.9579,2.991,3.0314,3.0717,3.1134,3.141,3.141,3.2089,3.2588,3.2588,3.3303,3.411,3.4899,3.5724,3.6201,3.6201,3.6201,3.6201,3.6201,3.6201,3.6201,3.6201,3.6201,3.6201,3.6201,3.6201,3.6201,3.6201,3.6201,3.6201,3.6201,3.6201,3.6201,3.6201,3.6201,3.6201,3.6201,3.6201,3.6201,0.0,3.6201,3.6201,3.6201,3.6201,3.6201,3.6201,3.6201,3.6201,3.6201,3.6201,3.6201,3.6201,3.6201,3.6201,3.6201,3.6201,3.6201,3.6201,3.6201,3.6201,3.6201,3.6201,3.6201,3.6201,3.6201,3.6201,3.6201,3.6201,3.6201,3.6201,3.6201,3.6312,3.6442,3.6442,3.6775,3.7034,3.7034,3.7218,3.7439,3.7605,3.7642,3.7789,3.8192,3.8228,3.8338,3.8574,3.8611,3.8611,3.8611,3.8611,3.8611,3.8611,3.8611,3.8611,3.8611,3.8611,3.8611,3.8611,3.8611,3.8611,3.8611,3.8611,3.8611,0.0,3.1949,3.1661,3.0723,3.0509,3.0245,2.9302,2.9793,0.0,2.9737,2.9947,3.0369,3.0754,3.1171,3.1428,3.1446,3.2074,3.2606,3.2643,3.3376,3.4148,3.4899,3.5724,3.6201,3.6201,3.6201,3.6201,3.6201,3.6201,3.6201,3.6201,3.6201,3.6201,3.6201,3.6201,3.6201,3.6201,3.6201,3.6201,3.6201,3.6201,3.6201,3.6201,3.6201,3.6201,3.6201,3.6201,3.6201,3.6201,3.6201,3.6201,3.6201,3.6201,3.6201,3.6201,3.6201,3.6201,3.6201,3.6201,3.6201,3.6201,3.6201,3.6201,3.6201,3.6201,3.6201,3.6201,3.6201,3.6201,3.6201,3.6201,3.6201,3.6201,3.6201,3.6201,3.6201,3.6201,3.6201,3.6201,3.6201,3.6516,3.6775,3.6775,3.7107,3.7421,3.7421,3.7439,3.7642,3.7972,3.8045,3.8192,3.8538,3.8611,3.8611,3.8611,3.8611,3.8611,3.8611,3.8611,3.8611,3.8611,3.8611,3.8611,3.8611,3.8611,3.8611,3.8611,3.8611,3.8611,3.8611,3.8611,3.8611,3.3981,0.0,3.2579,3.169,3.1459,3.1247,0.0,3.0494,3.0719,3.018,3.0369,3.0772,3.1176,3.1355,3.152,3.1799,3.2276,3.2698,3.3028,3.4002,3.4771,3.4973,3.5724,3.6201,3.6201,3.6201,3.6201,3.6201,3.6201,3.6201,3.6201,3.6201,3.6201,3.6201,3.6201,3.6201,3.6201,3.6201,3.6201,3.6201,3.6201,3.6201,3.6201,3.6201,3.6201,3.6201,3.6201,3.6201,3.6201,3.6201,3.6201,3.6201,3.6201,3.6201,3.6201,3.6201,3.6201,3.6201,3.6201,3.6201,3.6201,3.6201,3.6201,3.6201,3.6201,3.6201,3.6201,3.6201,3.6201,3.6201,3.6201,3.6201,3.6201,3.6201,3.6201,3.6201,3.6201,3.6201,3.6201,3.6201,3.6275,3.6349,3.6349,3.6923,3.7421,3.7421,3.7916,3.8355,3.8428,3.8465,3.8501,3.8574,3.8611,3.8611,3.8611,3.8611,3.8611,3.8611,3.8611,3.8611,3.8611,3.8611,3.8611,3.8611,3.8611,3.8611,3.8611,3.8611,3.8611,3.8611,3.8611,3.8611,3.4507,3.3818,3.2978,3.2522,3.2407,3.224,3.1513,3.1515,3.154,3.1231,3.0971,3.0919,3.1336,3.141,3.1538,3.1946,3.2331,3.2863,3.3651,3.446,3.5064,3.5247,3.5834,3.6201,3.6201,3.6201,3.6201,3.6201,3.6201,3.6201,3.6201,3.6201,3.6201,3.6201,3.6201,3.6201,3.6201,3.6201,3.6201,3.6201,3.6201,3.6201,3.6201,3.6201,3.6201,3.6201,3.6201,3.6201,3.6201,3.6201,3.6201,3.6201,3.6201,3.6201,3.6201,3.6201,3.6201,3.6201,3.6201,3.6201,3.6201,3.6201,3.6201,3.6201,3.6201,3.6201,3.6201,3.6201,3.6201,3.6201,3.6201,3.6201,3.6201,3.6201,3.6201,3.6201,3.6201,3.6201,3.6238,3.6442,3.6627,3.6812,3.6997,3.7549,3.7953,3.7953,3.8319,3.8611,3.8611,3.8611,3.8611,3.8611,3.8611,3.8611,3.8611,3.8611,3.8611,3.8611,3.8611,3.8611,3.8611,3.8611,3.8611,3.8611,3.8611,3.8611,3.8611,3.8611,3.8611,3.8611,3.8611,3.8611,3.4507,3.3818,3.3119,3.3261,3.3381,3.3272,3.2624,3.265,3.2734,3.2351,3.1678,3.1228,3.1561,3.1561,3.1616,3.2038,3.2478,3.3156,3.4257,3.477,3.5138,3.5541,3.5962,3.6201,3.6201,3.6201,3.6201,3.6201,3.6201,3.6201,3.6201,3.6201,3.6201,3.6201,3.6201,3.6238,3.6275,3.6238,3.6201,3.6201,3.6201,3.6238,3.6275,3.6275,3.6275,3.6275,3.6275,3.6238,3.6201,3.6201,3.6201,3.6201,3.6201,3.6201,3.6201,3.6201,3.6201,3.6201,3.6201,3.6238,3.6275,3.6201,3.6238,3.6275,3.6201,3.6201,3.6201,3.6275,3.6256,3.6201,3.6201,3.6201,3.6201,3.6201,3.6201,3.6201,3.6275,3.6275,3.6386,3.6812,3.7181,3.7532,3.7862,3.8265,3.8501,3.8501,3.8538,3.8611,3.8611,3.8611,3.8611,3.8611,3.8611,3.8611,3.8611,3.8611,3.8611,3.8611,3.8611,3.8611,3.8611,3.8611,3.8611,3.8611,3.8611,3.8611,3.8611,3.8611,3.8611,3.8611,3.8611,3.8611,3.4507,3.3818,3.3289,3.4093,3.4571,3.4447,3.2793,3.3642,3.4307,3.2641,3.2452,3.2575,3.2651,3.2235,3.2038,3.2441,3.3138,3.3817,3.433,3.477,3.5138,3.5541,3.5962,3.6201,3.6201,3.6201,3.6201,3.6201,3.6201,3.6201,3.6201,3.6201,3.6201,3.6201,3.6201,3.6349,3.6701,3.6349,3.6201,3.6201,3.6201,3.6386,3.6701,3.6701,3.6701,3.6701,3.6701,3.6497,3.6201,3.6201,3.6201,3.6201,3.6201,3.6201,3.6201,3.6201,3.6201,3.6201,3.6201,3.6442,3.6664,3.6312,3.6423,3.6627,3.6275,3.6201,3.6275,3.6627,3.6479,3.6201,3.6201,3.6201,3.6201,3.6201,3.6201,3.6275,3.6627,3.6701,3.6812,3.7218,3.7365,3.7421,3.7495,3.7826,3.8082,3.8082,3.8375,3.8611,3.8611,3.8611,3.8611,3.8611,3.8611,3.8611,3.8611,3.8611,3.8611,3.8611,3.8611,3.8611,3.8611,3.8611,3.8611,3.8611,3.8611,3.8611,3.8611,3.8611,3.8611,3.8611,3.8611,3.8611,3.5013,3.4631,3.4296,3.4495,3.4125,3.3526,3.2921,3.3186,3.334,3.2475,3.2194,3.2097,3.2097,3.2032,3.2203,3.2826,3.3431,3.4037,3.466,3.4881,3.5211,3.587,3.6091,3.6201,3.6201,3.6201,3.6275,3.6516,3.6516,3.6627,3.6849,3.6849,3.6849,3.6849,3.6849,3.6923,3.7107,3.6923,3.6849,3.6849,3.6849,3.6849,3.6812,3.7034,3.6886,3.6479,3.6701,3.6701,3.6516,3.6293,3.6479,3.6812,3.6627,3.6664,3.6849,3.6849,3.6849,3.6849,3.6849,3.696,3.7071,3.6923,3.696,3.7071,3.6886,3.6849,3.6886,3.7071,3.6701,3.6238,3.6479,3.6516,3.6516,3.6516,3.6701,3.6886,3.7071,3.7107,3.7218,3.7642,3.7715,3.7789,3.799,3.8192,3.8319,3.8319,3.8465,3.8611,3.8611,3.8611,3.8611,3.8611,3.8611,3.8611,3.8611,3.8611,3.8611,3.8611,3.8611,3.8611,3.8611,3.8611,3.8611,3.8611,3.8611,3.8611,3.8611,3.8611,3.8611,3.8611,3.8611,3.8611,3.5598,3.5485,3.5269,3.5042,3.4104,3.3166,3.2935,3.2949,3.2917,3.2611,3.227,3.2006,3.215,3.2353,3.2781,3.3487,3.393,3.4482,3.5167,3.5352,3.5684,3.6386,3.6479,3.6479,3.6479,3.6479,3.6627,3.6923,3.6923,3.7071,3.7365,3.7421,3.7421,3.7421,3.7421,3.7458,3.7532,3.7532,3.7495,3.7421,3.7421,3.7311,3.7071,3.7421,3.7181,3.6627,3.696,3.7034,3.6923,3.6627,3.6849,3.7384,3.7071,3.7107,3.7421,3.7421,3.7421,3.7421,3.7421,3.7458,3.7532,3.7439,3.7458,3.7532,3.7421,3.7421,3.7421,3.7532,3.7034,3.6553,3.6849,3.6923,3.6923,3.6923,3.7181,3.7421,3.7532,3.7532,3.7679,3.8045,3.8155,3.8228,3.8538,3.8611,3.8611,3.8611,3.8611,3.8611,3.8611,3.8611,3.8611,3.8611,3.8611,3.8611,3.8611,3.8611,3.8611,3.8611,3.8611,3.8611,3.8611,3.8611,3.8611,3.8611,3.8611,3.8611,3.8611,3.8611,3.8611,3.8611,3.8611,3.8611,3.625,3.5959,3.5732,3.6089,3.5954,3.5141,3.2802,3.3923,3.5041,3.3595,3.3524,3.3851,3.4297,3.4228,3.4267,3.472,3.5155,3.5625,3.606,3.6438,3.6818,3.7235,3.7292,3.7292,3.7292,3.7292,3.7347,3.7329,3.7365,3.7384,3.7421,3.7421,3.7421,3.7421,3.7421,3.7568,3.7936,3.7972,3.7752,3.7421,3.7421,3.7568,3.7899,3.7936,3.7936,3.7862,3.7899,3.7715,3.7329,3.7347,3.7347,3.7421,3.7384,3.7365,3.7421,3.7421,3.7421,3.7421,3.7421,3.7642,3.7899,3.7532,3.7642,3.7899,3.7532,3.7421,3.7495,3.7862,3.7642,3.7329,3.7347,3.7365,3.7365,3.7365,3.7365,3.7495,3.7862,3.7972,3.8082,3.8465,3.8538,3.8574,3.8611,3.8611,3.8611,3.8611,3.8611,3.8611,3.8611,3.8611,3.8611,3.8611,3.8611,3.8611,3.8611,3.8611,3.8611,3.8611,3.8611,3.8611,3.8611,3.8611,3.8611,3.8611,3.8611,3.8611,3.8611,3.8611,3.8611,3.8611,3.8611,3.8611,3.7193,3.655,3.5995,3.7039,3.6846,3.58,3.3628,3.4043,3.443,3.2746,3.295,3.3624,3.4299,3.4351,3.4444,3.4846,3.5297,3.5733,3.6131,3.6548,3.6965,3.7364,3.7421,3.7421,3.7421,3.7421,3.7495,3.7752,3.7789,3.7899,3.8136,3.8136,3.8136,3.8136,3.8136,3.8209,3.8355,3.8355,3.8282,3.8136,3.8136,3.8099,3.8009,3.8265,3.8119,3.7642,3.7899,3.7899,3.7752,3.7495,3.7696,3.8136,3.8136,3.8136,3.8136,3.8136,3.8136,3.8136,3.8136,3.8246,3.8355,3.8209,3.8246,3.8338,3.8173,3.8136,3.8173,3.8319,3.8246,3.8099,3.7826,3.7789,3.7789,3.7789,3.7972,3.8173,3.8338,3.8355,3.8428,3.8574,3.8611,3.8611,3.8611,3.8611,3.8611,3.8611,3.8611,3.8611,3.8611,3.8611,3.8611,3.8611,3.8611,3.8611,3.8611,3.8611,3.8611,3.8611,3.8611,3.8611,3.8611,3.8611,3.8611,3.8611,3.8611,3.8611,3.8611,3.8611,3.8611,3.8611,3.8611,3.8611,3.7472,3.7105,3.6865,3.7817,3.7729,3.6955,3.5223,3.482,3.4316,3.2712,3.3148,3.3978,3.4552,3.4763,3.4954,3.5207,3.5758,3.6218,3.6505,3.7022,3.7481,3.7731,3.777,3.777,3.777,3.777,3.788,3.8192,3.8192,3.8302,3.8574,3.8611,3.8611,3.8611,3.8611,3.8611,3.8611,3.8611,3.8611,3.8611,3.8611,3.8465,3.8192,3.8465,3.8282,3.777,3.8082,3.8192,3.8192,3.788,3.8099,3.8611,3.8611,3.8611,3.8611,3.8611,3.8611,3.8611,3.8611,3.8611,3.8611,3.8611,3.8611,3.8611,3.8611,3.8611,3.8611,3.8611,3.8611,3.8538,3.8265,3.8192,3.8192,3.8192,3.8392,3.8611,3.8611,3.8611,3.8611,3.8611,3.8611,3.8611,3.8611,3.8611,3.8611,3.8611,3.8611,3.8611,3.8611,3.8611,3.8611,3.8611,3.8611,3.8611,3.8611,3.8611,3.8611,3.8611,3.8611,3.8611,3.8611,3.8611,3.8611,3.8611,3.8611,3.8611,3.8611,3.8611,3.8611,3.8611,3.8611,3.8611,3.6929,3.7639,3.8372,3.8395,3.879,3.8833,3.7558,3.6428,3.5246,3.3887,3.4588,3.5391,3.541,3.5742,3.5982,3.5982,3.6738,3.7305,3.7305,3.8027,3.8611,3.8611,3.8611,3.8611,3.8611,3.8611,3.8611,3.8611,3.8611,3.8611,3.8611,3.8611,3.8611,3.8611,3.8611,3.8611,3.8611,3.8611,3.8611,3.8611,3.8611,3.8611,3.8611,3.8611,3.8611,3.8611,3.8611,3.8611,3.8611,3.8611,3.8611,3.8611,3.8611,3.8611,3.8611,3.8611,3.8611,3.8611,3.8611,3.8611,3.8611,3.8611,3.8611,3.8611,3.8611,3.8611,3.8611,3.8611,3.8611,3.8611,3.8611,3.8611,3.8611,3.8611,3.8611,3.8611,3.8611,3.8611,3.8611,3.8611,3.8611,3.8611,3.8611,3.8611,3.8611,3.8611,3.8611,3.8611,3.8611,3.8611,3.8611,3.8611,3.8611,3.8611,3.8611,3.8611,3.8611,3.8611,3.8611,3.8611,3.8611,3.8611,3.8611,3.8611,3.8611,3.8611,3.8611,3.8611,3.8611,3.8611,3.8611,3.8611,3.8698,3.7747,3.7019,3.8563,3.7503,3.6024,3.5969,3.6414,3.6594,3.5936,3.5586,3.5488,3.5781,3.5937,3.5982,3.5982,3.6738,3.7305,3.7305,3.8027,3.8611,3.8611,3.8611,3.8611,3.8611,3.8611,3.8611,3.8611,3.8611,3.8611,3.8611,3.8611,3.8611,3.8611,3.8611,3.8611,3.8611,3.8611,3.8611,3.8611,3.8611,3.8611,3.8611,3.8611,3.8611,3.8611,3.8611,3.8611,3.8611,3.8611,3.8611,3.8611,3.8611,3.8611,3.8611,3.8611,3.8611,3.8611,3.8611,3.8611,3.8611,3.8611,3.8611,3.8611,3.8611,3.8611,3.8611,3.8611,3.8611,3.8611,3.8611,3.8611,3.8611,3.8611,3.8611,3.8611,3.8611,3.8611,3.8611,3.8611,3.8611,3.8611,3.8611,3.8611,3.8611,3.8611,3.8611,3.8611,3.8611,3.8611,3.8611,3.8611,3.8611,3.8611,3.8611,3.8611,3.8611,3.8611,3.8611,3.8611,3.8611,3.8611,3.8611,3.8611,3.8611,3.8611,3.8611,3.8611,3.8611,3.8611,3.8611,3.8611,3.7622,3.7034,3.6691,3.7698,3.6829,3.5706,3.5666,3.5957,3.6227,3.6209,3.5878,3.5723,3.5976,3.5982,3.5982,3.5982,3.6738,3.7305,3.7305,3.8027,3.8611,3.8611,3.8611,3.8611,3.8611,3.8611,3.8611,3.8611,3.8611,3.8611,3.8611,3.8611,3.8611,3.8611,3.8611,3.8611,3.8611,3.8611,3.8611,3.8611,3.8611,3.8611,3.8611,3.8611,3.8611,3.8611,3.8611,3.8611,3.8611,3.8611,3.8611,3.8611,3.8611,3.8611,3.8611,3.8611,3.8611,3.8611,3.8611,3.8611,3.8611,3.8611,3.8611,3.8611,3.8611,3.8611,3.8611,3.8611,3.8611,3.8611,3.8611,3.8611,3.8611,3.8611,3.8611,3.8611,3.8611,3.8611,3.8611,3.8611,3.8611,3.8611,3.8611,3.8611,3.8611,3.8611,3.8611,3.8611,3.8611,3.8611,3.8611,3.8611,3.8611,3.8611,3.8611,3.8611,3.8611,3.8611,3.8611,3.8611,3.8611,3.8611,3.8611,3.8611,3.8611,3.8611,3.8611,3.8611,3.8611,3.8611,3.8611,3.8611,3.526,3.6166,3.708,3.6445,3.674,3.6936,3.6091,3.5308,3.4916,3.5459,3.579,3.5982,3.5982,3.5982,3.5982,3.5982,3.6738,3.7305,3.7305,3.8027,3.8611,3.8611,3.8611,3.8611,3.8611,3.8611,3.8611,3.8611,3.8611,3.8611,3.8611,3.8611,3.8611,3.8611,3.8611,3.8611,3.8611,3.8611,3.8611,3.8611,3.8611,3.8611,3.8611,3.8611,3.8611,3.8611,3.8611,3.8611,3.8611,3.8611,3.8611,3.8611,3.8611,3.8611,3.8611,3.8611,3.8611,3.8611,3.8611,3.8611,3.8611,3.8611,3.8611,3.8611,3.8611,3.8611,3.8611,3.8611,3.8611,3.8611,3.8611,3.8611,3.8611,3.8611,3.8611,3.8611,3.8611,3.8611,3.8611,3.8611,3.8611,3.8611,3.8611,3.8611,3.8611,3.8611,3.8611,3.8611,3.8611,3.8611,3.8611,3.8611,3.8611,3.8611,3.8611,3.8611,3.8611,3.8611,3.8611,3.8611,3.8611,3.8611,3.8611,3.8611,3.8611,3.8611,3.8611,3.865,3.8669,3.8669,3.8708,3.8728,3.8914,3.8021,3.711,3.8231,3.7384,3.6049,3.5179,3.51,3.5553,3.6638,3.6409,3.5982,3.5982,3.5982,3.5982,3.5982,3.6738,3.7305,3.7305,3.8027,3.8611,3.8611,3.8611,3.8611,3.8611,3.8611,3.8611,3.8611,3.8611,3.8611,3.8611,3.8611,3.8611,3.8611,3.8611,3.8611,3.8611,3.8611,3.8611,3.8611,3.8611,3.8611,3.8611,3.8611,3.8611,3.8611,3.8611,3.8611,3.8611,3.8611,3.8611,3.8611,3.8611,3.8611,3.8611,3.8611,3.8611,3.8611,3.8611,3.8611,3.8611,3.8611,3.8611,3.8611,3.8611,3.8611,3.8611,3.8611,3.8611,3.8611,3.8611,3.8611,3.8611,3.8611,3.8611,3.8611,3.8611,3.8611,3.8611,3.8611,3.8611,3.8611,3.8611,3.8611,3.8611,3.8611,3.8611,3.8611,3.8611,3.8611,3.8611,3.8611,3.8611,3.8611,3.8611,3.8611,3.8611,3.8611,3.8611,3.8611,3.8611,3.8611,3.8611,3.8611,3.8611,3.8611,3.8611,3.8906,3.9062,3.9082,3.9434,3.9609,3.8809,3.8439,3.7955,3.8231,3.7483,3.6368,3.5015,3.5059,3.565,3.6496,3.6333,3.5982,3.5982,3.5982,3.5982,3.5982,3.6562,3.6992,3.6992,3.7734,3.8262,3.8262,3.8457,3.8611,3.8611,3.8611,3.8611,3.8611,3.8611,3.8611,3.8611,3.8379,3.8262,3.8262,3.8066,3.7969,3.7969,3.7969,3.7969,3.7969,3.7969,3.8066,3.8281,3.8513,3.8611,3.8611,3.8611,3.8611,3.8611,3.8611,3.8611,3.8611,3.8611,3.8611,3.8611,3.8611,3.8611,3.8611,3.8611,3.8611,3.8611,3.8611,3.8611,3.8611,3.8611,3.8611,3.8611,3.8611,3.8611,3.8611,3.8611,3.8611,3.8611,3.8611,3.8611,3.8611,3.8611,3.8611,3.8611,3.8611,3.8611,3.8611,3.8611,3.8611,3.8611,3.8611,3.8611,3.8611,3.8611,3.8611,3.8611,3.8611,3.8611,3.8611,3.8611,3.8611,3.8611,3.8611,3.8611,3.8611,3.8611,3.8611,3.8611,3.8611,3.8769,3.8887,3.8887,3.9316,3.9531,3.9531,3.9785,3.9902,3.8067,3.8812,3.9324,3.781,3.7811,3.7561,3.5211,3.5316,3.5888,3.5971,3.5982,3.5982,3.5982,3.5982,3.5982,3.5982,3.6387,3.6714,3.6714,3.7324,3.7812,3.7812,3.8144,3.8396,3.8396,3.8396,3.8396,3.8396,3.8396,3.8396,3.8396,3.8008,3.7812,3.7812,3.748,3.7305,3.7305,3.7305,3.7305,3.7305,3.7305,3.7519,3.7894,3.8301,3.8496,3.8611,3.8611,3.8611,3.8611,3.8611,3.8611,3.8611,3.8611,3.8611,3.8611,3.8611,3.8611,3.8611,3.8611,3.8611,3.8611,3.8611,3.8611,3.8611,3.8611,3.8611,3.8611,3.8611,3.8611,3.8611,3.8611,3.8611,3.8611,3.8611,3.8611,3.8611,3.8611,3.8611,3.8611,3.8611,3.8611,3.8611,3.8611,3.8611,3.8611,3.8611,3.8611,3.8611,3.8611,3.8611,3.8611,3.8611,3.8611,3.8611,3.8611,3.8611,3.8611,3.8611,3.8611,3.8611,3.8611,3.8611,3.865,3.8691,3.9023,3.9238,3.9316,3.9785,4.0,4.0,4.0078,4.0117,4.0403,4.1136,4.1029,3.8592,3.9485,3.9879,3.5648,3.6275,3.7413,3.6234,3.5982,3.5982,3.5982,3.5982,3.5982,3.5982,3.6387,3.6714,3.6714,3.709,3.7383,3.7383,3.7441,3.7461,3.7461,3.7461,3.7461,3.7461,3.7461,3.7461,3.7461,3.7402,3.7383,3.7383,3.7324,3.7305,3.7305,3.7305,3.7305,3.7305,3.7305,3.7519,3.7894,3.7952,3.8223,3.8611,3.8611,3.8611,3.8611,3.8611,3.8611,3.8611,3.8611,3.8611,3.8611,3.8611,3.8611,3.8611,3.8611,3.8611,3.8611,3.8611,3.8611,3.8611,3.8611,3.8611,3.8611,3.8611,3.8611,3.8611,3.8611,3.8611,3.8611,3.8611,3.8611,3.8611,3.8611,3.8611,3.8611,3.8611,3.8611,3.8611,3.8611,3.8611,3.8611,3.8611,3.8611,3.8611,3.8611,3.8611,3.8611,3.8611,3.8611,3.8611,3.8611,3.8611,3.8611,3.8611,3.8611,3.8611,3.8611,3.8611,3.875,3.9101,3.918,3.9394,3.9805,4.0234,4.043,4.0449,4.082,4.1035,4.1028,4.1803,4.1941,3.9711,4.0333,4.0765,3.8007,3.7523,3.7534,3.7233,3.6539,3.5982,3.5982,3.5982,3.5982,3.5982,3.6172,3.6309,3.6309,3.668,3.6953,3.6953,3.7148,3.7305,3.7305,3.7305,3.7305,3.7305,3.7305,3.7305,3.7305,3.707,3.6953,3.6953,3.6699,3.6582,3.6582,3.6582,3.6582,3.6582,3.6836,3.7051,3.7246,3.7715,3.8164,3.8611,3.8611,3.8611,3.8611,3.8611,3.8611,3.8611,3.8611,3.8611,3.8611,3.8611,3.8611,3.8611,3.8611,3.8611,3.8611,3.8611,3.8611,3.8611,3.8611,3.8611,3.8611,3.8611,3.8611,3.8611,3.8611,3.8611,3.8611,3.8611,3.8611,3.8611,3.8611,3.8611,3.8611,3.8611,3.8611,3.8611,3.8611,3.8611,3.8611,3.8611,3.8611,3.8611,3.8611,3.8611,3.8611,3.8611,3.8611,3.8611,3.8611,3.8611,3.8611,3.8611,3.8611,3.8611,3.8611,3.8611,3.8769,3.9199,3.9453,3.9805,4.0254,4.0684,4.0879,4.0898,4.1074,4.1211,4.1369,4.2091,4.2371,4.0634,4.1122,4.1506,3.9708,3.8809,3.8258,3.7959,3.7179,3.6403,3.605,3.5982,3.5982,3.5982,3.5982,3.5982,3.5982,3.6289,3.6504,3.6504,3.6777,3.6973,3.6973,3.6973,3.6973,3.6973,3.6973,3.6973,3.6973,3.668,3.6504,3.6504,3.6191,3.5982,3.5982,3.5982,3.5982,3.5982,3.6348,3.6562,3.6734,3.7324,3.791,3.8418,3.8571,3.8611,3.8611,3.8611,3.8611,3.8611,3.8611,3.8611,3.8611,3.8611,3.8611,3.8611,3.8611,3.8611,3.8611,3.8611,3.8611,3.8611,3.8611,3.8611,3.8611,3.8611,3.8611,3.8611,3.8611,3.8611,3.8611,3.8611,3.8611,3.8611,3.8611,3.8611,3.8611,3.8611,3.8611,3.8611,3.8611,3.8611,3.8611,3.8611,3.8611,3.8611,3.8611,3.8611,3.8611,3.8611,3.8611,3.8611,3.8611,3.8611,3.8611,3.8611,3.8611,3.8611,3.8611,3.8611,3.8769,3.9199,3.9668,4.0098,4.0489,4.0957,4.1211,4.1211,4.1211,4.1211,4.1827,4.2356,4.2466,4.1105,4.2103,4.2576,3.9454,4.0065,4.0549,3.787,3.7687,3.7595,3.6253,3.5982,3.5982,3.5982,3.5982,3.5982,3.5982,3.6001,3.6055,3.6055,3.604,3.6094,3.6094,3.6094,3.6094,3.6094,3.6094,3.6094,3.6094,3.604,3.6055,3.6055,3.6001,3.5982,3.5982,3.5982,3.5982,3.5982,3.6001,3.6269,3.6714,3.6753,3.7187,3.7952,3.8398,3.8611,3.8611,3.8611,3.8611,3.8611,3.8611,3.8611,3.8611,3.8611,3.8611,3.8611,3.8611,3.8611,3.8611,3.8611,3.8611,3.8611,3.8611,3.8611,3.8611,3.8611,3.8611,3.8611,3.8611,3.8611,3.8611,3.8611,3.8611,3.8611,3.8611,3.8611,3.8611,3.8611,3.8611,3.8611,3.8611,3.8611,3.8611,3.8611,3.8611,3.8611,3.8611,3.8611,3.8611,3.8611,3.8611,3.8611,3.8611,3.8611,3.8611,3.8611,3.8611,3.8611,3.8611,3.8611,3.8769,3.9199,3.9668,4.0098,4.0489,4.0957,4.1211,4.1211,4.1211,4.1211,4.1442,4.214,4.27,4.2196,4.2819,4.3214,4.203,4.1345,4.0542,3.898,3.8073,3.7546,3.7367,3.6606,3.5982,3.5982,3.5982,3.5982,3.5982,3.5982,3.5982,3.5982,3.5982,3.5982,3.5982,3.5982,3.5982,3.5982,3.5982,3.5982,3.5982,3.5982,3.5982,3.5982,3.5982,3.5982,3.5982,3.5982,3.5982,3.5982,3.5982,3.6094,3.6269,3.6577,3.6871,3.7168,3.7851,3.832,3.8611,3.8611,3.8611,3.8611,3.8611,3.8611,3.8611,3.8611,3.8611,3.8611,3.8611,3.8611,3.8611,3.8611,3.8611,3.8611,3.8611,3.8611,3.8611,3.8611,3.8611,3.8611,3.8611,3.8611,3.8611,3.8611,3.8611,3.8611,3.8611,3.8611,3.8611,3.8611,3.8611,3.8611,3.8611,3.8611,3.8611,3.8611,3.8611,3.8611,3.8611,3.8611,3.8611,3.8611,3.8611,3.8611,3.8611,3.8611,3.8611,3.8611,3.8611,3.8611,3.8611,3.8611,3.8689,3.8789,3.9531,4.0098,4.0489,4.0957,4.1211,4.1211,4.1211,4.1211,4.1201,4.1851,4.2573,4.2741,4.303,4.3313,4.3481,4.2408,4.1091,4.0047,3.8722,3.7735,3.7657,3.6483,3.5799,3.66,3.6321,3.5982,3.5982,3.5982,3.5982,3.5982,3.5982,3.5982,3.5982,3.5982,3.5982,3.5982,3.5982,3.5982,3.5982,3.5982,3.5982,3.5982,3.5982,3.5982,3.5982,3.5982,3.5982,3.5982,3.5982,3.5982,3.6001,3.6328,3.6543,3.6734,3.7266,3.7832,3.8359,3.8552,3.8611,3.8611,3.8611,3.8611,3.8611,3.8611,3.8611,3.8611,3.8611,3.8611,3.8611,3.8611,3.8611,3.8611,3.8611,3.8611,3.8611,3.8611,3.8611,3.8611,3.8611,3.8611,3.8611,3.8611,3.8611,3.8611,3.8611,3.8611,3.8611,3.8611,3.8611,3.8611,3.8611,3.8611,3.8611,3.8611,3.8611,3.8611,3.8611,3.8611,3.8611,3.8611,3.8611,3.8611,3.8611,3.8611,3.8611,3.8611,3.8611,3.8611,3.8611,3.8611,3.8611,3.8611,3.9297,3.9883,4.0312,4.0898,4.1211,4.1211,4.1211,4.1211,0.0,0.0,0.0,4.2645,4.2789,4.2934,4.3385,4.315,4.243,4.0999,3.9663,3.8352,3.701,3.5646,3.5488,3.769,3.687,3.5982,3.5982,3.5982,3.5982,3.5982,3.5982,3.5982,3.5982,3.5982,3.5982,3.5982,3.5982,3.5982,3.5982,3.5982,3.5982,3.5982,3.5982,3.5982,3.5982,3.5982,3.5982,3.5982,3.5982,3.5982,3.5982,3.5982,3.625,3.6695,3.6695,3.7129,3.7874,3.8359,3.8591,3.8611,3.8611,3.8611,3.8611,3.8611,3.8611,3.8611,3.8611,3.8611,3.8611,3.8611,3.8611,3.8611,3.8611,3.8611,3.8611,3.8611,3.8611,3.8611,3.8611,3.8611,3.8611,3.8611,3.8611,3.8611,3.8611,3.8611,3.8611,3.8611,3.8611,3.8611,3.8611,3.8611,3.8611,3.8611,3.8611,3.8611,3.8611,3.8611,3.8611,3.8611,3.8611,3.8611,3.8611,3.8611,3.8611,3.8611,3.8611,3.8611,3.8611,3.8611,3.8611,3.8611,3.8984,3.9434,3.9902,4.0742,4.1211,4.1211,4.1211,4.1211,4.1201,0.0,0.0,0.0,0.0,0.0,4.3054,4.3174,4.2806,4.1068,4.0395,3.9725,3.8393,3.7074,3.6374,3.7053,3.6242,3.5664,3.5976,3.5982,3.5982,3.5982,3.5982,3.5982,3.5982,3.5982,3.5982,3.5982,3.5982,3.5982,3.5982,3.5982,3.5982,3.5982,3.5982,3.5982,3.5982,3.5982,3.5982,3.5982,3.5982,3.5982,3.5982,3.5982,3.6094,3.6211,3.6543,3.6832,3.707,3.7812,3.8281,3.8611,3.8611,3.8611,3.8611,3.8611,3.8611,3.8611,3.8611,3.8611,3.8611,3.8611,3.8611,3.8611,3.8611,3.8611,3.8611,3.8611,3.8611,3.8611,3.8611,3.8611,3.8611,3.8611,3.8611,3.8611,3.8611,3.8611,3.8611,3.8611,3.8611,3.8611,3.8611,3.8611,3.8611,3.8611,3.8611,3.8611,3.8611,3.8611,3.8611,3.8611,3.8611,3.8611,3.8611,3.8611,3.8611,3.8611,3.8611,3.8611,3.8611,3.8611,3.8611,3.8611,3.8984,3.9434,3.9902,4.0449,4.0859,4.1211,4.1211,4.1211,0.0,4.1442,4.173,4.1947,0.0,0.0,4.3078,4.3144,4.2957,4.2026,4.1098,4.0167,3.938,3.7991,3.6834,3.6538,3.6026,3.5619,3.5477,3.5644,3.5762,3.5762,3.5918,3.5982,3.5982,3.5982,3.5982,3.5982,3.5982,3.5982,3.5982,3.5982,3.5982,3.5982,3.5982,3.5982,3.5982,3.5982,3.5982,3.5982,3.5982,3.5982,3.5982,3.5982,3.5982,3.6035,3.6289,3.6504,3.6753,3.7383,3.791,3.832,3.8496,3.8611,3.8611,3.8611,3.8611,3.8611,3.8611,3.8611,3.8611,3.8611,3.8611,3.8611,3.8611,3.8611,3.8611,3.8611,3.8611,3.8611,3.8611,3.8611,3.8611,3.8611,3.8611,3.8611,3.8611,3.8611,3.8611,3.8611,3.8611,3.8611,3.8611,3.8611,3.8611,3.8611,3.8611,3.8611,3.8611,3.8611,3.8611,3.8611,3.8611,3.8611,3.8611,3.8611,3.8611,3.8611,3.8611,3.8611,3.8611,3.8611,3.8611,3.8611,3.8809,3.9258,3.9902,4.0312,4.0742,4.1211,4.1211,4.1211,4.1172,0.0,0.0,4.1803,4.1947,0.0,4.3144,4.3078,4.291,4.3337,4.1771,4.0276,4.0126,3.8732,3.7314,3.6384,3.606,3.5636,3.4825,3.5059,3.5312,3.5312,3.5644,3.5879,3.5879,3.5884,3.5923,3.5923,3.5962,3.5982,3.5982,3.5982,3.5982,3.5982,3.5982,3.5982,3.5982,3.5982,3.5982,3.5982,3.5982,3.5982,3.5982,3.5982,3.5982,3.5982,3.5982,3.623,3.6641,3.7051,3.75,3.7969,3.8398,3.8611,3.8611,3.8611,3.8611,3.8611,3.8611,3.8611,3.8611,3.8611,3.8611,3.8611,3.8611,3.8611,3.8611,3.8611,3.8611,3.8611,3.8611,3.8611,3.8611,3.8611,3.8611,3.8611,3.8611,3.8611,3.8611,3.8611,3.8611,3.8611,3.8611,3.8611,3.8611,3.8611,3.8611,3.8611,3.8611,3.8611,3.8611,3.8611,3.8611,3.8611,3.8611,3.8611,3.8611,3.8611,3.8611,3.8611,3.8611,3.8611,3.8611,3.8611,3.8708,3.9138,3.9902,4.0371,4.0801,4.1211,4.1211,4.1211,4.1105,4.1201,4.1249,4.1345,4.1682,0.0,4.226,4.2549,4.2813,4.291,4.2586,4.194,4.0837,4.0007,3.9085,3.7863,3.6473,3.532,3.4786,3.4785,3.4824,3.4824,3.4902,3.4961,3.4961,3.5293,3.5508,3.5508,3.582,3.5982,3.5982,3.5982,3.5982,3.5982,3.5982,3.5982,3.5982,3.5982,3.5982,3.5982,3.5982,3.5982,3.5982,3.5982,3.5982,3.5982,3.5982,3.604,3.6172,3.6621,3.7246,3.7969,3.8398,3.8611,3.8611,3.8611,3.8611,3.8611,3.8611,3.8611,3.8611,3.8611,3.8611,3.8611,3.8611,3.8611,3.8611,3.8611,3.8611,3.8611,3.8611,3.8611,3.8611,3.8611,3.8611,3.8611,3.8611,3.8611,3.8611,3.8611,3.8611,3.8611,3.8611,3.8611,3.8611,3.8611,3.8611,3.8611,3.8611,3.8611,3.8611,3.8611,3.8611,3.8611,3.8611,3.8611,3.8611,3.8611,3.8611,3.8611,3.8611,3.8611,3.8611,3.8611,3.9277,3.9726,3.9902,4.0664,4.1094,4.1211,4.1211,4.1211,4.1153,4.1201,4.1201,4.1201,4.1418,0.0,0.0,4.2212,4.2477,4.2741,4.2573,4.2203,4.1501,4.1169,4.0565,3.9281,3.8498,3.7694,3.6571,3.5228,3.4394,3.4394,3.457,3.4707,3.4707,3.4902,3.5137,3.5371,3.6169,3.6469,3.6016,3.5982,3.5982,3.5982,3.5982,3.5982,3.5982,3.6708,3.6674,3.6016,3.6708,3.6674,3.5982,3.5982,3.5982,3.5982,3.5982,3.5982,3.6055,3.6484,3.6949,3.7363,3.8008,3.8379,3.8611,3.8611,3.8611,3.8611,3.8611,3.8611,3.8611,3.8611,3.8611,3.8611,3.8611,3.8611,3.8611,3.8611,3.8611,3.8611,3.8611,3.8611,3.8611,3.8611,3.8611,3.8611,3.8611,3.8611,3.8611,3.8611,3.8611,3.8611,3.8611,3.8611,3.8611,3.8611,3.8611,3.8611,3.8611,3.8611,3.8611,3.8611,3.8611,3.8611,3.8611,3.8611,3.8611,3.8611,3.8611,3.8611,3.8611,3.8611,3.8611,3.8611,3.9453,3.9902,3.9902,4.0762,4.1211,4.1211,4.1211,4.1211,4.1177,4.1201,4.1201,4.1201,4.1201,4.1297,0.0,0.0,0.0,4.2236,4.1995,4.173,4.1827,4.1755,4.1333,4.0233,4.0161,3.9742,3.8368,3.6081,3.4592,3.4704,3.4787,3.4823,3.4823,3.4902,3.5139,3.5613,3.6684,3.7118,3.6703,3.6228,3.6118,3.6423,3.6152,3.5982,3.5982,3.7126,3.726,3.6403,3.7562,3.7495,3.6403,3.6403,3.6253,3.5982,3.5982,3.5982,3.6021,3.6406,3.6636,3.6792,3.7598,3.8144,3.8457,3.8591,3.8611,3.8611,3.8611,3.8611,3.8611,3.8611,3.8611,3.8611,3.8611,3.8611,3.8611,3.8611,3.8611,3.8611,3.8611,3.8611,3.8611,3.8611,3.8611,3.8611,3.8611,3.8611,3.8611,3.8611,3.8611,3.8611,3.8611,3.8611,3.8611,3.8611,3.8611,3.8611,3.8611,3.8611,3.8611,3.8611,3.8611,3.8611,3.8611,3.8611,3.8611,3.8611,3.8611,3.8611,3.8611,3.8611,3.8611,3.8611,3.9453,3.9902,3.9902,4.0762,4.1211,4.1211,4.1211,4.1211,4.1052,4.1201,4.1201,4.1201,4.1201,4.1105,4.0667,0.0,4.0595,4.0643,0.0,4.0715,4.1201,0.0,0.0,4.0401,3.9055,3.8143,3.8335,3.7126,3.6385,3.6876,3.5974,3.5324,3.5324,3.5643,3.6054,3.6527,3.7003,3.7805,3.8949,3.7104,3.6573,3.7829,3.664,3.5982,3.5982,3.6152,3.6775,3.7842,3.8009,3.8009,3.7842,3.7842,3.7193,3.5982,3.5982,3.5982,3.5982,3.6074,3.6328,3.6792,3.7598,3.7913,3.8047,3.8437,3.8611,3.8611,3.8611,3.8611,3.8611,3.8611,3.8611,3.8611,3.8611,3.8611,3.8611,3.8611,3.8611,3.8611,3.8611,3.8611,3.8611,3.8611,3.8611,3.8611,3.8611,3.8611,3.8611,3.8611,3.8611,3.8611,3.8611,3.8611,3.8611,3.8611,3.8611,3.8611,3.8611,3.8611,3.8611,3.8611,3.8611,3.8611,3.8611,3.8611,3.8611,3.8611,3.8611,3.8611,3.8611,3.8611,3.8611,3.8611,3.9453,3.9902,3.9902,4.0762,4.1211,4.1211,4.1211,4.1211,4.1153,4.1201,4.1201,4.1201,4.1201,4.1081,4.0523,4.0403,4.0306,3.9994,0.0,0.0,0.0,0.0,0.0,0.0,4.0026,3.9684,3.9561,3.9109,3.8403,3.7424,3.6824,3.6215,3.5469,3.6875,3.7422,3.635,3.7854,3.8629,3.8196,3.8049,3.762,3.689,3.7092,3.6843,3.6016,3.6809,3.7092,3.691,3.854,3.8904,3.8142,3.897,3.854,3.7227,3.7227,3.6742,3.5982,3.5982,3.6133,3.6348,3.6953,3.75,3.7969,3.8418,3.8611,3.8611,3.8611,3.8611,3.8611,3.8611,3.8611,3.8611,3.8611,3.8611,3.8611,3.8611,3.8611,3.8611,3.8611,3.8611,3.8611,3.8611,3.8611,3.8611,3.8611,3.8611,3.8611,3.8611,3.8611,3.8611,3.8611,3.8611,3.8611,3.8611,3.8611,3.8611,3.8611,3.8611,3.8611,3.8611,3.8611,3.8611,3.8611,3.8611,3.8611,3.8611,3.8611,3.8611,3.8611,3.8611,3.8728,3.8926,3.957,4.0019,4.0254,4.0879,4.1211,4.1211,4.1211,4.1211,4.1201,4.1201,4.1201,4.1201,4.1201,4.1081,4.0523,4.0282,4.0042,3.9489,3.9272,0.0,0.0,0.0,3.9729,3.9729,0.0,4.0234,3.9994,3.997,3.9439,3.8085,3.774,3.7156,3.6032,3.791,3.8552,3.6991,3.8736,3.9505,3.8645,3.8744,3.843,3.7537,3.7514,3.7227,3.6573,3.7193,3.7193,3.6606,3.8672,3.9299,3.8705,3.931,3.9299,3.8639,3.7842,3.7159,3.6539,3.6152,3.5982,3.6055,3.6538,3.7051,3.7656,3.8203,3.8476,3.8611,3.8611,3.8611,3.8611,3.8611,3.8611,3.8611,3.8611,3.8611,3.8611,3.8611,3.8611,3.8611,3.8611,3.8611,3.8611,3.8611,3.8611,3.8611,3.8611,3.8611,3.8611,3.8611,3.8611,3.8611,3.8611,3.8611,3.8611,3.8611,3.8611,3.8611,3.8611,3.8611,3.8611,3.8611,3.8611,3.8611,3.8611,3.8611,3.8611,3.8611,3.8611,3.8611,3.8611,3.8611,3.8769,3.9199,3.9668,4.0098,4.0489,4.0957,4.1211,4.1211,4.1211,4.1211,4.1201,4.1201,4.1201,4.1201,4.1201,4.1081,4.0523,3.9994,3.9489,3.8933,3.8407,3.8072,3.8072,3.8072,3.8096,0.0,3.8096,0.0,0.0,3.8836,3.9001,3.9474,3.8829,3.8076,3.7303,3.8447,3.9157,3.9092,3.9579,4.0469,4.1779,3.9,3.8573,4.1231,3.7893,3.6708,3.8009,3.6742,3.6742,3.8042,3.8109,3.8871,4.0094,3.8772,3.8904,3.9964,3.726,3.6809,3.7909,3.6539,3.5982,3.6055,3.6538,3.6714,3.6851,3.7637,3.8223,3.8611,3.8611,3.8611,3.8611,3.8611,3.8611,3.8611,3.8611,3.8611,3.8611,3.8611,3.8611,3.8611,3.8611,3.8611,3.8611,3.8611,3.8611,3.8611,3.8611,3.8611,3.8611,3.8611,3.8611,3.8611,3.8611,3.8611,3.8611,3.8611,3.8611,3.8611,3.8611,3.8611,3.8611,3.8611,3.8611,3.8611,3.8611,3.8611,3.8611,3.8611,3.8611,3.8611,3.8611,3.8611,3.8769,3.9199,3.9668,4.0098,4.0489,4.0957,4.1211,4.1211,4.1211,4.1211,4.1201,4.1201,4.1201,4.1201,4.1201,4.1081,4.0523,4.0258,3.9874,3.8981,3.8671,3.8431,3.8072,3.8,3.8,0.0,0.0,3.8046,0.0,3.8262,3.8479,3.9008,3.9149,3.8891,3.8112,3.842,3.8469,3.7955,3.8095,3.8498,3.9258,3.9168,3.9388,4.0085,3.9816,3.9606,3.9474,3.8075,3.7629,3.8109,3.9014,3.9244,3.8904,4.1161,4.0968,3.8871,3.9768,3.9376,3.8042,3.7595,3.7394,3.7314,3.6547,3.6426,3.6812,3.7617,3.7991,3.8184,3.8476,3.8611,3.8611,3.8611,3.8611,3.8611,3.8611,3.8611,3.8611,3.8611,3.8611,3.8611,3.8611,3.8611,3.8611,3.8611,3.8611,3.8611,3.8611,3.8611,3.8611,3.8611,3.8611,3.8611,3.8611,3.8611,3.8611,3.8611,3.8611,3.8611,3.8611,3.8611,3.8611,3.8611,3.8611,3.8611,3.8611,3.8611,3.8611,3.8611,3.8611,3.8611,3.8611,3.8611,3.8962,3.9648,3.9824,4.0234,4.0957,4.1094,4.1211,4.1211,4.1211,4.1211,4.1201,4.1201,4.1201,4.1201,4.1201,4.11,4.0739,4.0523,4.0138,3.9272,3.8933,3.8647,3.8094,3.8,3.8,0.0,0.0,3.8,0.0,3.8,3.8118,3.8479,3.9008,3.9181,3.8868,3.8992,3.8909,3.8442,3.8149,3.8313,3.9017,3.9198,3.9574,4.0313,4.0589,4.0738,4.0669,3.9454,3.8606,3.8109,3.9035,3.9244,3.8882,4.0581,4.0968,4.0322,4.0646,4.0354,3.954,3.9047,3.854,3.8009,3.7092,3.6615,3.6523,3.7226,3.7676,3.7952,3.8418,3.8611,3.8611,3.8611,3.8611,3.8611,3.8611,3.8611,3.8747,3.9353,3.9099,3.8747,3.9373,3.908,3.8611,3.8611,3.8611,3.8611,3.8611,3.8611,3.8611,3.8611,3.8611,3.8611,3.8611,3.8611,3.8611,3.8611,3.8611,3.8611,3.8611,3.8611,3.8611,3.8611,3.8611,3.8611,3.8611,3.8611,3.8611,3.8611,3.8611,3.8611,3.8611,3.8611,3.9178,4.0332,4.0059,4.0469,4.1621,4.1328,4.1211,4.1211,4.1211,4.1211]},{"header":{"parameterUnit":"m.s-1","parameterCategory":1,"la1":30.6,"la2":29.2853,"lo1":-89.7004,"lo2":-87.6739,"dy":0.0162,"dx":0.0183,"nx":112,"ny":82,"refTime":"2023-05-29T06:00:00:Z","depth":0,"parameterNumber":3,"parameterNumberName":"V-component_of_WINDS"},"data":[0.0,0.0,0.0,0.0,0.0,0.0,0.0,0.0,0.0,0.0,0.0,0.0,0.0,0.0,0.0,0.0,0.0,0.0,0.0,0.0,0.0,0.0,0.0,0.0,0.0,0.0,0.0,0.0,0.0,0.0,0.0,0.0,0.0,0.0,0.0,0.0,0.0,0.0,0.0,0.0,0.0,0.0,0.0,0.0,0.0,0.0,0.0,0.0,0.0,0.0,0.0,0.0,0.0,0.0,0.0,0.0,0.0,0.0,0.0,0.0,0.0,0.0,0.0,0.0,0.0,0.0,0.0,0.0,0.0,0.0,0.0,0.0,0.0,0.0,0.0,0.0,0.0,0.0,0.0,0.0,0.0,0.0,0.0,0.0,0.0,0.0,0.0,0.0,0.0,0.0,4.5076,4.4601,4.5186,4.5638,4.5742,4.5742,4.5343,4.4394,0.0,0.0,0.0,0.0,0.0,0.0,0.0,0.0,0.0,0.0,0.0,0.0,0.0,0.0,0.0,0.0,0.0,0.0,0.0,0.0,0.0,0.0,0.0,0.0,0.0,0.0,0.0,0.0,0.0,0.0,0.0,0.0,0.0,0.0,0.0,0.0,0.0,0.0,0.0,0.0,0.0,0.0,0.0,0.0,0.0,0.0,0.0,0.0,0.0,0.0,0.0,0.0,0.0,0.0,0.0,0.0,0.0,0.0,0.0,0.0,0.0,0.0,0.0,0.0,0.0,0.0,0.0,0.0,0.0,0.0,0.0,0.0,0.0,0.0,0.0,0.0,0.0,0.0,0.0,0.0,0.0,0.0,0.0,0.0,0.0,0.0,0.0,0.0,0.0,0.0,0.0,0.0,0.0,0.0,0.0,0.0,0.0,0.0,0.0,0.0,0.0,0.0,0.0,0.0,4.5585,4.6158,4.6343,4.6686,4.7307,4.7341,4.6916,4.5917,0.0,0.0,0.0,0.0,0.0,0.0,0.0,0.0,0.0,0.0,0.0,0.0,0.0,0.0,0.0,0.0,0.0,0.0,0.0,0.0,0.0,0.0,0.0,0.0,0.0,0.0,0.0,0.0,0.0,0.0,0.0,0.0,0.0,0.0,0.0,0.0,0.0,0.0,0.0,0.0,0.0,0.0,0.0,0.0,0.0,0.0,0.0,0.0,0.0,0.0,0.0,0.0,0.0,0.0,0.0,0.0,0.0,0.0,0.0,0.0,0.0,0.0,0.0,0.0,0.0,0.0,0.0,0.0,0.0,0.0,0.0,0.0,0.0,0.0,0.0,0.0,0.0,0.0,0.0,0.0,0.0,0.0,0.0,0.0,0.0,0.0,0.0,0.0,0.0,0.0,0.0,0.0,0.0,0.0,0.0,0.0,0.0,0.0,0.0,0.0,0.0,0.0,0.0,4.572,4.6062,4.7086,4.7203,4.7341,4.7686,4.7686,4.7258,4.6252,4.5589,0.0,0.0,0.0,0.0,0.0,0.0,0.0,0.0,0.0,0.0,0.0,0.0,0.0,0.0,0.0,0.0,0.0,0.0,0.0,0.0,0.0,0.0,0.0,0.0,0.0,0.0,0.0,0.0,0.0,0.0,0.0,0.0,0.0,0.0,0.0,0.0,0.0,0.0,0.0,0.0,0.0,0.0,0.0,0.0,0.0,0.0,0.0,0.0,0.0,0.0,0.0,0.0,0.0,0.0,0.0,0.0,0.0,0.0,0.0,0.0,0.0,0.0,0.0,0.0,0.0,0.0,0.0,0.0,0.0,0.0,0.0,0.0,0.0,0.0,0.0,0.0,0.0,0.0,0.0,0.0,0.0,0.0,0.0,0.0,0.0,0.0,0.0,0.0,0.0,0.0,0.0,0.0,0.0,0.0,0.0,0.0,0.0,0.0,0.0,0.0,0.0,0.0,4.648,4.6753,4.7851,4.7962,4.8031,4.8238,4.8238,4.782,4.6788,4.6727,0.0,0.0,0.0,0.0,0.0,0.0,0.0,0.0,0.0,0.0,0.0,0.0,0.0,0.0,0.0,0.0,0.0,0.0,0.0,0.0,0.0,0.0,0.0,0.0,0.0,0.0,0.0,0.0,0.0,0.0,0.0,0.0,0.0,0.0,0.0,0.0,0.0,0.0,0.0,0.0,0.0,0.0,0.0,0.0,0.0,0.0,0.0,0.0,0.0,0.0,0.0,0.0,0.0,0.0,0.0,0.0,0.0,0.0,0.0,0.0,0.0,0.0,0.0,0.0,0.0,0.0,0.0,0.0,0.0,0.0,0.0,0.0,0.0,0.0,0.0,0.0,0.0,0.0,0.0,0.0,0.0,0.0,0.0,0.0,0.0,0.0,0.0,0.0,0.0,0.0,0.0,0.0,0.0,0.0,0.0,0.0,0.0,0.0,0.0,0.0,0.0,0.0,4.7289,4.7865,4.8637,4.8706,4.9031,4.9769,4.9824,4.9393,4.8312,4.8233,0.0,0.0,0.0,0.0,0.0,0.0,0.0,0.0,0.0,0.0,0.0,0.0,0.0,0.0,0.0,0.0,0.0,0.0,0.0,0.0,0.0,0.0,0.0,0.0,0.0,0.0,0.0,0.0,0.0,0.0,0.0,0.0,0.0,0.0,0.0,0.0,0.0,0.0,0.0,0.0,0.0,0.0,0.0,0.0,0.0,0.0,0.0,0.0,0.0,0.0,0.0,0.0,0.0,0.0,0.0,0.0,0.0,0.0,0.0,0.0,0.0,0.0,0.0,0.0,0.0,0.0,0.0,0.0,0.0,0.0,0.0,0.0,0.0,0.0,0.0,0.0,0.0,0.0,0.0,0.0,0.0,0.0,0.0,0.0,0.0,0.0,0.0,0.0,0.0,0.0,0.0,0.0,0.0,0.0,0.0,0.0,0.0,0.0,0.0,0.0,0.0,0.0,4.8,4.8366,4.9416,4.9548,4.9651,4.9962,5.0011,4.953,4.848,0.0,0.0,0.0,0.0,0.0,0.0,0.0,0.0,0.0,0.0,0.0,0.0,0.0,0.0,0.0,0.0,0.0,0.0,0.0,0.0,0.0,0.0,0.0,0.0,0.0,0.0,0.0,0.0,0.0,0.0,0.0,0.0,0.0,0.0,0.0,0.0,0.0,0.0,0.0,0.0,0.0,0.0,0.0,0.0,0.0,0.0,0.0,0.0,0.0,0.0,0.0,0.0,0.0,0.0,0.0,0.0,0.0,0.0,0.0,0.0,0.0,0.0,0.0,0.0,0.0,0.0,0.0,0.0,0.0,0.0,0.0,0.0,0.0,0.0,0.0,0.0,0.0,0.0,0.0,0.0,0.0,0.0,0.0,0.0,0.0,0.0,0.0,0.0,0.0,0.0,0.0,0.0,0.0,0.0,0.0,0.0,0.0,0.0,0.0,0.0,0.0,0.0,4.8582,4.8699,4.9037,4.9913,5.0011,5.0011,5.0011,5.0011,4.953,4.848,0.0,0.0,0.0,0.0,0.0,0.0,0.0,0.0,0.0,0.0,0.0,0.0,0.0,0.0,0.0,0.0,0.0,0.0,0.0,0.0,0.0,0.0,0.0,0.0,0.0,0.0,0.0,0.0,0.0,0.0,0.0,0.0,0.0,0.0,0.0,0.0,0.0,0.0,0.0,0.0,0.0,0.0,0.0,0.0,0.0,0.0,0.0,0.0,0.0,0.0,0.0,0.0,0.0,0.0,0.0,0.0,0.0,0.0,0.0,0.0,0.0,0.0,0.0,0.0,0.0,0.0,0.0,0.0,0.0,0.0,0.0,0.0,0.0,0.0,0.0,0.0,0.0,0.0,0.0,0.0,0.0,0.0,0.0,0.0,0.0,0.0,0.0,0.0,0.0,0.0,0.0,0.0,0.0,0.0,0.0,0.0,0.0,0.0,0.0,0.0,0.0,0.0,4.8442,4.935,5.0011,5.0011,5.0011,5.0011,5.0011,5.0011,4.953,0.0,0.0,0.0,0.0,0.0,0.0,0.0,0.0,0.0,0.0,0.0,0.0,0.0,0.0,0.0,0.0,0.0,0.0,0.0,0.0,0.0,0.0,0.0,0.0,0.0,0.0,0.0,0.0,0.0,0.0,0.0,0.0,0.0,0.0,0.0,0.0,0.0,0.0,0.0,0.0,0.0,0.0,0.0,0.0,0.0,0.0,0.0,0.0,0.0,0.0,0.0,0.0,0.0,0.0,0.0,0.0,0.0,0.0,0.0,0.0,0.0,0.0,0.0,0.0,0.0,0.0,0.0,0.0,0.0,0.0,0.0,0.0,0.0,0.0,0.0,0.0,0.0,0.0,0.0,0.0,0.0,0.0,0.0,0.0,0.0,0.0,0.0,0.0,0.0,0.0,0.0,0.0,0.0,0.0,0.0,0.0,0.0,0.0,0.0,0.0,0.0,0.0,0.0,4.956,4.9801,5.0011,5.0011,5.0011,5.0011,5.0011,5.0011,4.953,4.848,0.0,0.0,0.0,0.0,0.0,0.0,0.0,0.0,0.0,0.0,0.0,0.0,0.0,0.0,0.0,0.0,0.0,0.0,0.0,0.0,0.0,0.0,0.0,0.0,0.0,0.0,0.0,0.0,0.0,0.0,0.0,0.0,0.0,0.0,0.0,0.0,0.0,0.0,0.0,0.0,0.0,0.0,0.0,0.0,0.0,0.0,0.0,0.0,0.0,0.0,0.0,0.0,0.0,0.0,0.0,0.0,0.0,0.0,0.0,0.0,0.0,0.0,0.0,0.0,0.0,0.0,0.0,0.0,0.0,0.0,0.0,0.0,0.0,0.0,0.0,0.0,0.0,0.0,0.0,0.0,0.0,0.0,0.0,0.0,0.0,0.0,0.0,0.0,0.0,0.0,0.0,0.0,0.0,0.0,0.0,0.0,0.0,0.0,0.0,0.0,0.0,0.0,4.9426,4.9742,5.0114,5.0424,5.0168,5.0114,5.041,5.0183,4.9619,4.8762,0.0,0.0,0.0,0.0,0.0,0.0,0.0,0.0,0.0,0.0,0.0,0.0,0.0,0.0,0.0,0.0,0.0,0.0,0.0,0.0,0.0,0.0,0.0,0.0,0.0,0.0,0.0,0.0,0.0,0.0,0.0,0.0,0.0,0.0,0.0,0.0,0.0,0.0,0.0,0.0,0.0,0.0,0.0,0.0,0.0,0.0,0.0,0.0,0.0,0.0,0.0,0.0,0.0,0.0,0.0,0.0,0.0,0.0,0.0,0.0,0.0,0.0,0.0,0.0,0.0,0.0,0.0,0.0,0.0,0.0,0.0,0.0,0.0,0.0,0.0,0.0,0.0,0.0,0.0,0.0,0.0,0.0,0.0,0.0,0.0,0.0,0.0,0.0,0.0,0.0,0.0,0.0,0.0,0.0,0.0,0.0,0.0,0.0,0.0,0.0,0.0,0.0,4.8807,4.957,5.0444,5.1134,5.0582,5.0479,5.1134,5.0582,4.9978,4.9445,0.0,0.0,0.0,0.0,0.0,0.0,0.0,0.0,0.0,0.0,0.0,0.0,0.0,0.0,0.0,0.0,0.0,0.0,0.0,0.0,0.0,0.0,0.0,0.0,0.0,0.0,0.0,0.0,0.0,0.0,0.0,0.0,0.0,0.0,0.0,0.0,0.0,0.0,0.0,0.0,0.0,0.0,0.0,0.0,0.0,0.0,0.0,0.0,0.0,0.0,0.0,0.0,0.0,0.0,0.0,0.0,0.0,0.0,0.0,0.0,4.9662,4.9269,0.0,0.0,0.0,0.0,0.0,0.0,0.0,0.0,0.0,0.0,0.0,0.0,0.0,0.0,0.0,0.0,0.0,0.0,0.0,0.0,0.0,0.0,0.0,0.0,0.0,0.0,0.0,0.0,0.0,0.0,0.0,0.0,0.0,0.0,0.0,0.0,0.0,0.0,0.0,0.0,5.0769,5.134,5.1789,5.1961,5.1824,5.1789,5.1961,5.1824,5.1524,5.1042,5.0916,0.0,0.0,0.0,0.0,0.0,0.0,0.0,0.0,0.0,0.0,0.0,0.0,0.0,0.0,0.0,0.0,0.0,0.0,0.0,0.0,0.0,0.0,0.0,0.0,0.0,0.0,0.0,0.0,0.0,0.0,0.0,0.0,0.0,0.0,0.0,0.0,0.0,0.0,0.0,0.0,0.0,0.0,0.0,0.0,0.0,0.0,0.0,0.0,0.0,0.0,0.0,0.0,0.0,0.0,0.0,0.0,0.0,0.0,0.0,4.9471,4.9293,0.0,0.0,0.0,0.0,0.0,0.0,0.0,0.0,0.0,0.0,0.0,0.0,0.0,0.0,0.0,0.0,0.0,0.0,0.0,0.0,0.0,0.0,0.0,0.0,0.0,0.0,0.0,0.0,0.0,0.0,0.0,0.0,0.0,0.0,0.0,0.0,0.0,0.0,0.0,0.0,5.1469,5.1897,5.2341,5.272,5.2444,5.2375,5.272,5.241,5.2096,5.1831,5.1613,0.0,0.0,0.0,0.0,0.0,0.0,0.0,0.0,0.0,0.0,0.0,0.0,0.0,0.0,0.0,0.0,0.0,0.0,0.0,0.0,0.0,0.0,0.0,0.0,0.0,0.0,0.0,0.0,0.0,0.0,0.0,0.0,0.0,0.0,0.0,0.0,0.0,0.0,0.0,0.0,0.0,0.0,0.0,0.0,0.0,0.0,0.0,0.0,0.0,0.0,0.0,0.0,0.0,4.9448,4.9519,4.9519,4.9662,4.9733,4.9733,4.9733,4.9555,4.9293,4.9293,0.0,0.0,0.0,0.0,0.0,0.0,0.0,0.0,0.0,0.0,0.0,0.0,0.0,0.0,0.0,0.0,0.0,0.0,0.0,0.0,0.0,0.0,5.1272,5.1272,5.1755,5.1858,5.0651,0.0,0.0,0.0,0.0,0.0,0.0,0.0,0.0,0.0,0.0,0.0,5.1925,5.2305,5.2858,5.3529,5.2996,5.2858,5.3529,5.2961,5.2617,5.2617,5.2242,5.1991,0.0,0.0,0.0,0.0,0.0,0.0,0.0,0.0,0.0,0.0,0.0,0.0,0.0,0.0,0.0,0.0,0.0,0.0,0.0,0.0,0.0,0.0,0.0,0.0,0.0,0.0,0.0,0.0,0.0,0.0,0.0,0.0,4.4596,4.4596,0.0,0.0,0.0,0.0,0.0,0.0,0.0,0.0,0.0,0.0,0.0,0.0,0.0,4.8544,4.9293,4.9198,4.9198,4.9305,5.0019,5.034,5.0388,5.1066,5.1387,5.1387,5.1387,0.0,4.9293,4.9293,0.0,0.0,0.0,0.0,0.0,0.0,0.0,0.0,0.0,0.0,0.0,0.0,0.0,0.0,0.0,0.0,0.0,0.0,0.0,0.0,0.0,0.0,5.2065,5.2065,5.2134,5.2168,5.1961,5.1927,5.1927,5.203,5.2065,5.2099,0.0,0.0,0.0,0.0,0.0,0.0,5.3409,5.3866,5.4237,5.4341,5.4237,5.4237,5.4341,5.4237,5.4203,5.4203,5.4155,5.3882,5.3428,5.2699,0.0,0.0,0.0,0.0,0.0,0.0,0.0,0.0,0.0,0.0,0.0,0.0,0.0,0.0,0.0,0.0,0.0,0.0,0.0,0.0,0.0,0.0,0.0,0.0,0.0,0.0,0.0,0.0,0.0,4.5891,4.5963,4.5963,4.6248,4.6462,0.0,0.0,0.0,0.0,0.0,0.0,0.0,0.0,0.0,4.8817,4.8817,4.921,4.9983,4.9983,5.0411,5.1315,5.1685,5.2065,5.248,5.2837,5.298,5.298,5.298,5.2587,5.1861,5.1018,5.0637,5.0637,0.0,0.0,0.0,0.0,5.1173,5.1208,5.1565,5.1721,5.1792,5.222,0.0,0.0,0.0,0.0,0.0,0.0,0.0,5.2984,5.3301,5.3235,5.3112,5.3112,5.3307,5.3479,5.3479,5.3479,5.3375,5.2961,5.2858,5.2996,5.341,5.3479,0.0,0.0,0.0,5.4055,5.4141,5.4351,5.4478,5.4478,5.4478,5.4478,5.4478,5.4478,5.4478,5.4478,5.4478,5.4383,5.4159,5.3557,5.3125,0.0,0.0,0.0,0.0,0.0,0.0,0.0,0.0,0.0,0.0,0.0,0.0,0.0,0.0,0.0,0.0,0.0,0.0,0.0,0.0,0.0,0.0,0.0,0.0,0.0,0.0,0.0,0.0,4.6616,4.7009,4.7009,4.7009,4.7009,0.0,0.0,0.0,0.0,0.0,0.0,4.8472,4.8984,4.9483,4.9912,4.9912,5.0375,5.1374,5.141,5.1993,5.3184,5.3184,5.3457,5.4001,5.4001,5.4001,5.4001,5.4001,5.4001,5.3894,5.2766,5.2279,5.2279,5.2279,5.2279,5.2279,5.2279,5.2279,5.2279,5.2279,5.2279,5.2386,5.3006,5.3184,5.3278,5.3836,0.0,0.0,0.0,0.0,5.394,5.4131,5.4196,5.4221,5.4221,5.4452,5.462,5.462,5.4542,5.4356,5.3804,5.3667,5.3873,5.441,5.4478,0.0,5.4478,5.4478,5.4478,5.4478,5.4478,5.4478,5.4478,5.4478,5.4478,5.4478,5.4478,5.4478,5.4478,5.4478,5.4478,5.4478,5.4127,5.3915,5.3915,0.0,0.0,0.0,0.0,0.0,0.0,0.0,0.0,0.0,0.0,0.0,0.0,0.0,0.0,0.0,0.0,0.0,0.0,0.0,0.0,0.0,0.0,0.0,0.0,0.0,0.0,0.0,0.0,0.0,4.7009,4.7009,0.0,0.0,0.0,0.0,4.8127,4.8817,4.9234,4.9234,4.9257,4.9983,5.153,5.1565,5.2315,5.38,5.3823,5.3859,5.393,5.393,5.3966,5.4001,5.4001,5.4001,5.4001,5.4001,5.4001,5.4001,5.393,5.3872,5.3872,5.3872,5.3872,5.3872,5.3872,5.3872,5.3872,5.3872,5.3872,5.3894,5.3943,5.393,5.3943,5.3979,5.4001,0.0,0.0,5.4904,5.4811,5.5603,5.5601,5.5402,5.5402,5.5184,5.4976,5.4976,5.4714,5.4494,5.446,5.4444,5.4444,5.4478,0.0,5.4478,5.4478,5.4478,5.4478,5.4478,5.4478,5.4478,5.4478,5.4478,5.4478,5.4478,5.4478,5.4478,5.4478,5.4478,5.4478,5.4478,5.4463,5.4447,5.4447,5.3948,0.0,0.0,0.0,0.0,0.0,0.0,0.0,0.0,0.0,0.0,0.0,0.0,0.0,0.0,0.0,0.0,0.0,0.0,0.0,0.0,0.0,0.0,0.0,0.0,0.0,0.0,0.0,0.0,4.7723,4.777,0.0,4.8413,4.8734,4.8925,4.8925,5.0102,5.0852,5.0852,5.1802,5.2587,5.3158,5.3194,5.3444,5.4001,5.4001,5.4264,5.4764,5.4764,5.5049,5.5562,5.5562,5.5562,5.5562,5.5562,5.5562,5.5562,5.5562,5.4942,5.4001,5.4001,5.4001,5.4001,5.4001,5.4001,5.4001,5.4001,5.4001,5.4073,5.4585,5.512,5.5562,5.5562,5.5562,5.5598,5.5883,5.5873,5.5968,5.6801,5.6766,5.6617,5.6902,5.6718,5.6422,5.6219,5.6058,5.5977,5.5977,5.5563,5.5203,5.5203,5.5632,5.5977,5.5977,5.5977,5.5977,5.5977,5.5977,5.577,5.5272,5.5203,5.503,5.4547,5.4478,5.4478,5.4478,5.4478,5.4478,5.4478,5.4478,5.4478,5.4478,5.4303,5.4207,0.0,0.0,0.0,0.0,0.0,0.0,0.0,0.0,0.0,0.0,0.0,0.0,0.0,0.0,0.0,0.0,0.0,0.0,0.0,0.0,0.0,0.0,0.0,0.0,0.0,4.7402,4.7687,4.8472,4.8794,4.9174,4.9662,5.0197,5.0518,5.0518,5.1744,5.2493,5.2493,5.3444,5.4108,5.4407,5.4407,5.455,5.4799,5.4799,5.5085,5.5598,5.5883,5.6276,5.6825,5.7061,5.7168,5.7168,5.7168,5.7168,5.7168,5.7168,5.6547,5.5535,5.5013,5.4799,5.4799,5.4799,5.4799,5.4799,5.4799,5.4799,5.4906,5.5441,5.6133,5.6789,5.6789,5.6989,5.7168,5.7168,5.7084,5.7121,5.7655,5.7567,5.7363,5.768,5.7541,5.7241,5.7034,5.6887,5.6805,5.6805,5.6357,5.5996,5.5996,5.646,5.6805,5.6805,5.6805,5.6805,5.6805,5.6805,5.6598,5.6065,5.5996,5.5685,5.4927,5.4858,5.4754,5.4513,5.4478,5.4478,5.4478,5.4478,5.4478,5.4478,5.4478,5.4478,5.4478,0.0,0.0,0.0,0.0,0.0,0.0,0.0,0.0,0.0,0.0,0.0,0.0,0.0,0.0,0.0,0.0,0.0,0.0,0.0,0.0,0.0,0.0,0.0,4.833,4.827,4.8544,4.9305,5.009,5.0589,5.0589,5.2042,5.2934,5.2934,5.3635,5.4037,5.4037,5.4073,5.4443,5.5192,5.5263,5.5669,5.6418,5.6454,5.6454,5.649,5.7253,5.7646,5.7646,5.8367,5.8709,5.8709,5.8709,5.8709,5.8709,5.8709,5.8709,5.8531,5.7061,5.6454,5.6454,5.6454,5.6454,5.6454,5.6454,5.6454,5.6454,5.6454,5.7003,5.7646,5.7646,5.8117,5.8659,5.8659,5.8443,5.8193,5.8228,5.7988,5.7728,5.7747,5.7564,5.7393,5.7377,5.7138,5.6943,5.6943,5.6943,5.6909,5.684,5.684,5.6874,5.6874,5.6874,0.0,5.6874,5.6874,5.6874,5.684,5.684,5.6529,5.572,5.5651,5.534,5.4632,5.4547,5.4513,5.4513,5.4513,5.4478,5.4478,5.4478,5.4478,5.4478,0.0,0.0,0.0,0.0,0.0,0.0,0.0,0.0,0.0,0.0,0.0,0.0,0.0,0.0,0.0,0.0,0.0,0.0,0.0,0.0,0.0,4.9662,4.9912,4.9103,4.9495,5.0174,5.0959,5.1756,5.2457,5.298,5.3444,5.3693,5.3693,5.4443,5.4871,5.4871,5.5419,5.5847,5.6062,5.6633,5.7039,5.7253,5.781,5.8082,5.8082,5.8296,5.8403,5.8403,5.8617,5.8709,5.8709,5.8709,5.8709,5.8709,5.8709,5.8709,5.8638,5.8224,5.8082,5.8082,5.8082,5.8082,5.8082,5.8082,5.8082,5.8082,5.8082,5.8224,5.8403,5.8403,5.8388,5.834,5.834,5.8103,5.7987,5.8565,5.8628,5.8643,5.9015,5.9427,5.9711,5.9459,5.9737,6.0047,6.0047,6.0047,5.953,5.7874,5.8047,5.8392,5.8392,5.8392,5.8392,5.8392,5.8392,5.8185,5.7667,5.7598,5.7288,5.6529,5.646,5.6391,5.6184,5.5616,5.5306,5.5306,5.4789,5.4478,5.4478,5.4478,5.4478,0.0,0.0,0.0,0.0,0.0,0.0,0.0,0.0,0.0,0.0,0.0,0.0,0.0,0.0,0.0,0.0,0.0,0.0,0.0,0.0,0.0,0.0,5.0994,5.1458,5.1303,5.1422,5.1779,5.2564,5.3385,5.4028,5.4478,5.4799,5.5013,5.5013,5.5455,5.5847,5.6204,5.6646,5.7025,5.7332,5.781,5.806,5.806,5.8474,5.8709,5.8709,5.9045,5.9188,5.9223,5.9544,5.9723,5.9723,5.9723,5.9723,5.9723,5.9723,5.9723,5.9651,0.0,0.0,0.0,0.0,5.8709,5.8709,5.8709,5.8709,5.8709,5.8709,5.8923,5.9188,5.9188,5.9306,5.9393,5.9244,5.897,5.878,5.9109,5.9069,5.9011,5.9281,5.9664,5.9908,5.9737,6.0047,6.0358,6.0358,6.0358,0.0,5.8599,5.9254,5.9978,5.9978,5.9978,5.9978,5.9978,5.9685,5.9357,5.8909,5.8564,5.8081,5.7322,5.7253,0.0,0.0,0.0,5.6099,5.6099,5.5701,0.0,0.0,0.0,5.546,5.546,5.546,0.0,0.0,5.4789,5.4478,0.0,0.0,0.0,0.0,0.0,0.0,0.0,0.0,0.0,0.0,0.0,0.0,0.0,0.0,0.0,0.0,5.2649,5.3398,5.405,5.3635,5.3505,5.4086,5.4835,5.5334,5.5334,5.599,5.6454,5.6539,5.6525,5.6882,5.7681,5.7717,0.0,0.0,0.0,5.8852,5.8852,5.8938,5.8973,5.8959,5.9687,6.0044,6.0044,6.0772,6.1093,6.1093,6.1093,6.1093,6.1093,6.1093,6.1093,6.095,5.9544,5.8973,5.8973,5.8973,5.8973,5.8973,5.8973,0.0,0.0,5.8973,5.9444,6.0,6.0,6.0419,6.0869,6.0578,6.025,5.9895,5.9601,5.9267,5.8995,5.8995,5.9064,5.9133,5.9133,5.9202,5.9271,5.9271,5.9271,5.9271,5.9271,6.0254,6.1082,6.1151,6.1185,6.122,6.1289,6.0737,6.0323,6.0323,5.9702,0.0,5.8219,5.815,5.784,5.7116,5.6978,5.6874,5.6805,5.6805,5.6805,5.6805,5.6805,5.6805,5.6805,5.6805,5.6805,5.6771,5.5391,5.4754,0.0,0.0,0.0,0.0,0.0,0.0,0.0,0.0,0.0,0.0,0.0,0.0,0.0,0.0,0.0,5.3337,5.4228,5.4813,5.4942,5.5419,5.5526,5.5013,5.5669,5.6169,5.6169,5.6311,5.6682,5.7324,5.736,5.7717,5.8438,5.8474,5.8545,5.8709,5.933,5.9651,5.9651,6.0308,6.0629,6.0629,6.0808,0.0,6.0879,6.1022,6.1093,6.1093,6.1093,6.1093,6.1093,6.1093,6.1093,6.1058,6.0772,6.0629,6.0629,6.0629,6.0629,6.0629,6.0629,6.0629,6.0629,6.0629,6.0558,6.0473,6.0473,6.0188,0.0,5.9797,5.9501,5.92,5.9132,5.9064,5.8995,5.8995,5.9495,5.9978,5.9978,6.0427,6.0875,6.0875,6.0875,6.0875,6.0875,6.0082,5.9668,6.0323,6.0427,6.0634,6.122,6.1185,6.1082,6.1082,6.0944,6.0565,5.9806,5.9771,5.9426,5.8616,5.8012,5.7426,5.6805,5.6805,5.6805,5.6805,5.6805,5.6805,5.6805,5.6805,5.6805,5.6805,5.6495,5.6357,0.0,0.0,0.0,0.0,0.0,0.0,0.0,0.0,0.0,0.0,0.0,5.1458,5.2623,0.0,5.323,5.4407,5.4942,5.5334,5.574,5.6133,5.624,5.5847,5.6169,5.6561,5.6968,5.7003,5.7324,5.8096,5.8167,5.8488,5.9259,5.9295,5.9509,5.9901,6.0308,6.0522,6.0522,6.0915,6.1093,6.1093,6.1093,6.1093,6.1093,6.1093,6.1093,6.1093,6.1093,6.1093,6.1093,6.1093,6.1093,6.1093,6.1093,6.1093,6.1093,6.1093,6.1093,6.1093,6.1093,6.0989,6.0854,6.0854,6.0625,6.036,6.036,6.0123,5.9832,5.9652,5.947,5.925,5.9047,5.8995,5.8995,5.8995,5.9323,5.9599,5.9599,5.9909,6.0151,6.0151,6.0151,6.0151,6.0151,5.9513,5.9392,6.0565,6.0737,6.0875,6.1254,6.1289,6.1289,6.1289,6.1289,6.1151,6.0771,6.0737,6.0565,6.0185,5.9806,5.9426,5.9081,5.9047,5.9047,5.9047,5.9047,5.9047,5.9047,5.9047,5.9047,5.9047,5.9047,5.8254,0.0,0.0,0.0,0.0,0.0,0.0,0.0,5.0625,5.1339,5.1993,5.2671,5.335,5.4086,5.4215,5.4514,5.5299,5.5441,5.5705,5.6525,5.6633,5.6704,5.6847,5.6704,5.6932,5.7753,5.781,5.8131,5.8902,5.8923,5.9295,6.0079,6.0115,6.0451,6.1093,6.1093,6.1093,6.1093,6.1093,6.1093,6.1093,6.1093,6.1093,6.1093,6.1093,6.1093,6.1093,6.1272,6.1414,6.1557,6.1736,6.1771,6.1807,6.195,6.2021,6.195,6.1343,6.1093,6.1078,6.1019,6.0823,6.0578,6.0516,6.0282,6.001,6.001,5.9927,5.9814,5.9551,5.9468,5.9401,5.9081,5.8995,5.8995,5.8995,5.8995,5.8995,5.8995,5.8995,5.8995,5.8995,5.8995,5.903,5.9219,5.9237,5.965,6.0909,6.1082,6.1151,6.1289,6.1289,6.1289,6.1289,6.1289,6.1289,6.1289,6.1289,6.1289,6.1289,6.1289,6.1289,6.1289,6.1289,6.1289,6.1289,6.1289,6.1289,6.1289,6.1289,6.1289,6.1289,6.1289,6.0013,4.8841,4.9127,4.9376,5.0161,5.0887,5.1601,0.0,5.3064,5.3622,5.3729,5.38,5.4121,5.4906,5.5049,5.5348,5.6133,5.6276,5.6525,5.736,5.7467,5.7703,5.8367,5.7846,5.7739,5.851,5.8581,5.8902,5.9723,5.9758,6.0115,6.0915,6.095,6.1022,6.1093,6.1093,6.1093,6.1093,6.1093,6.1093,6.1093,6.1093,6.1093,6.1093,6.1093,6.1093,6.1129,6.1858,6.2536,6.3199,6.3912,6.4218,6.4289,6.5019,6.5268,6.4947,6.2128,6.1093,6.1049,6.0762,6.0625,6.0547,6.0266,5.9946,5.9668,5.9668,5.9401,5.9115,5.9081,5.9064,5.9047,5.9012,5.8995,5.8995,5.8995,5.8995,5.8995,5.8995,5.8995,5.8995,5.8995,5.8995,5.9254,5.9944,6.0082,6.0116,6.0289,6.0323,6.0565,6.122,6.1289,6.1289,6.1289,6.1289,6.1289,6.1289,6.1289,6.1289,6.1289,6.1289,6.1289,6.1289,6.1289,6.1289,6.1289,6.1289,6.1289,6.1289,6.1289,6.1289,6.1289,6.1289,6.1116,4.9769,4.9983,5.0304,5.1565,5.2149,5.2613,5.3385,5.3765,5.4108,5.4585,5.4692,5.4942,5.574,5.5883,5.6026,5.6347,5.6789,5.7217,5.7539,5.7953,5.851,5.9295,5.9131,5.9059,5.9366,5.9402,5.9937,6.12,6.1307,6.1628,6.2393,6.2449,6.2449,6.2449,6.2449,6.2449,6.2449,6.2449,6.2449,6.2449,6.2913,6.3163,6.3148,6.3627,6.3841,6.3841,6.4198,6.4519,6.4804,6.5161,6.5177,6.4983,6.5303,6.5313,6.497,6.3909,6.3208,6.2785,6.2419,6.1841,6.1293,6.1109,6.0875,6.0601,6.0601,6.048,6.0358,6.0358,6.0358,6.0358,6.0358,6.0358,6.0358,6.0358,6.0358,6.0358,6.0358,6.0358,6.0358,6.0358,6.0358,6.0461,6.0771,6.084,6.084,6.084,6.0461,6.0151,5.9978,6.0358,6.0806,6.1254,6.1289,6.1289,6.1289,6.1289,6.1289,6.1289,6.1289,6.1289,6.1289,6.1289,6.1289,6.1289,6.1289,6.1289,6.1289,6.1289,6.1289,6.1289,6.1289,6.1289,5.0923,5.1173,5.1494,5.285,5.3362,5.3671,5.4193,5.4514,5.4835,5.5406,5.5526,5.5705,5.6276,5.6383,5.6454,5.6682,5.7217,5.7753,5.8181,5.8688,5.9402,6.0451,6.0558,6.0629,6.0843,6.0701,6.1129,6.25,6.2607,6.2857,6.3392,6.3392,6.3392,6.3392,6.3392,6.35,6.3734,6.3734,6.3841,6.4055,6.4662,6.4931,6.4931,6.5518,6.5863,6.598,6.598,6.6021,6.6136,6.6349,6.6253,6.6016,6.6228,6.6162,6.5935,6.611,6.5367,6.4166,6.3795,6.3136,6.2405,6.2318,6.2106,6.191,6.1703,6.1634,6.1565,6.1358,6.1289,6.1289,6.1289,6.1289,6.1289,6.1289,6.1461,6.1634,6.1634,6.1772,6.1944,6.1944,6.1944,6.2013,6.222,6.2255,6.2255,6.2255,6.1772,6.1013,5.9806,6.0151,6.0703,6.1254,6.1496,6.153,6.1323,6.1496,6.153,6.1323,6.1289,6.1289,6.1289,6.1289,6.1289,6.1289,6.1289,6.1392,6.1634,6.1634,6.1737,6.1944,6.1944,6.1841,5.2613,5.2827,5.3006,5.3765,5.455,5.512,5.5156,5.5776,5.6311,5.6347,5.6347,5.6383,5.6383,5.6383,5.6668,5.7432,5.7574,5.811,5.9616,5.9865,6.0451,6.2036,6.2215,6.25,6.3214,6.2643,6.2536,6.3321,6.3357,6.3392,6.3392,6.3392,6.3392,6.3392,6.3392,6.377,6.4575,6.4575,6.4983,6.5732,6.5768,6.5768,6.5768,6.5804,6.6002,6.638,6.638,6.6599,6.7005,6.7725,6.8041,6.8093,6.8849,6.9183,6.911,6.8736,6.689,6.4532,6.4199,6.4057,6.3969,6.3659,6.3549,6.3393,6.2687,6.248,6.2307,6.153,6.1289,6.1289,6.1289,6.1289,6.1289,6.1289,6.191,6.248,6.248,6.3032,6.3531,6.3531,6.3531,6.3772,6.4462,6.46,6.46,6.46,6.4565,6.3772,6.153,6.1254,6.1289,6.1289,6.1979,6.2169,6.1358,6.2013,6.2117,6.1358,6.1289,6.1289,6.1289,6.1289,6.1289,6.1289,6.1289,6.1668,6.248,6.248,6.2825,6.3531,6.3531,6.317,5.2827,5.3255,5.38,5.4585,5.5013,5.5334,5.5883,5.6204,5.6383,5.6383,5.6383,5.6383,5.6383,5.686,5.7289,5.7539,5.8452,5.9309,5.983,6.0808,6.17,6.225,6.2535,6.2998,6.3795,6.336,6.3341,6.4162,6.4198,6.4448,6.4947,6.4983,6.5233,6.5784,6.5784,6.6141,6.691,6.691,6.6957,6.6992,6.7214,6.7623,6.8117,6.8117,6.8205,6.8327,6.8327,6.8396,6.855,6.8795,6.8753,6.8511,6.8809,6.8743,6.8494,6.8338,6.7719,6.6841,6.6242,6.5686,6.5286,6.5174,6.5136,6.5102,6.4826,6.4757,6.4722,6.4446,6.4343,6.4343,6.4343,6.4343,6.4343,6.4343,6.4584,6.4757,6.4757,6.4964,6.5136,6.5136,6.5136,6.5205,6.5447,6.5516,6.5516,6.5516,6.4653,6.3703,6.291,6.2841,6.2841,6.2841,6.3048,6.291,6.2151,6.2342,6.2151,6.1358,6.1289,6.1289,6.1289,6.1289,6.1289,6.1289,6.1289,6.1427,6.1703,6.2238,6.2652,6.2894,6.3358,6.3462,5.3577,5.4063,5.4621,5.5419,5.5633,5.5776,5.6276,5.6383,5.6355,5.6245,5.6314,5.6462,5.6601,5.7085,5.7648,5.8296,5.9136,5.9918,6.0472,6.1432,6.2255,6.2679,6.2952,6.3406,6.4235,6.406,6.4131,6.4776,6.4828,6.5248,6.6196,6.6232,6.654,6.7193,6.7228,6.75,6.8075,6.8092,6.8132,6.8205,6.8413,6.8795,6.9305,6.9305,6.9231,6.9101,6.9101,6.9008,6.8876,6.8876,6.8724,6.8494,6.8494,6.8319,6.8083,6.8083,6.8083,6.8014,6.7566,6.7083,6.6689,6.6689,6.6689,6.6654,6.6378,6.6309,6.624,6.5964,6.5895,6.5895,6.5895,6.5895,6.5895,6.5895,6.6102,6.6309,6.6309,6.6516,6.6689,6.6689,6.6689,6.6689,6.6689,6.6689,6.6689,6.6689,6.5842,6.5014,6.4496,6.4446,6.4446,6.4446,6.4446,6.4117,6.3342,6.3289,6.2944,6.2151,6.2117,6.2117,6.2117,6.2117,6.2117,6.2117,6.2117,6.2255,6.253,6.3013,6.339,6.3558,6.404,6.4243,5.4786,5.5214,5.5428,5.6204,5.6369,5.6369,5.6369,5.6355,5.6259,5.5964,5.6148,5.6522,5.7021,5.7125,5.7744,5.9579,5.9621,5.9961,6.1467,6.1699,6.2152,6.3354,6.3514,6.3847,6.4654,6.4707,6.4862,6.5234,6.5249,6.5769,6.6952,6.7004,6.7212,6.7602,6.7638,6.7817,6.8164,6.8127,6.8513,6.9268,6.925,6.925,6.925,6.925,6.9045,6.8667,6.8667,6.8455,6.8083,6.8083,6.8083,6.8083,6.8083,6.8083,6.8083,6.8083,6.8083,6.8083,6.8083,6.8083,6.8083,6.8083,6.8083,6.798,6.7256,6.7068,6.693,6.6206,6.5999,6.5999,6.5999,6.5999,6.5999,6.5999,6.6551,6.7068,6.7068,6.7601,6.8083,6.8083,6.8083,6.8083,6.8083,6.8083,6.8083,6.8083,6.8083,6.7566,6.6206,6.5999,6.5999,6.5999,6.5999,6.5688,6.4876,6.4807,6.4496,6.3772,6.3703,6.3703,6.3703,6.3703,6.3703,6.3703,6.3703,6.4048,6.4772,6.4807,6.5072,6.5548,6.5583,6.55,5.4709,5.529,5.5843,5.6292,5.6217,5.6035,5.6035,5.5879,5.5706,5.5619,5.5836,5.6234,5.6977,5.755,5.8287,5.9334,5.9748,6.0269,6.1203,6.1836,6.2558,6.3407,6.3746,6.427,6.5072,6.4889,6.5097,6.6017,6.5812,6.6057,6.6954,6.6989,6.7306,6.7957,6.7974,6.8289,6.8989,6.8693,6.8648,6.8857,6.8551,6.8397,6.8397,6.8397,6.8338,6.8241,6.8241,6.8182,6.8083,6.8083,6.8083,6.8083,6.8083,6.8083,6.8083,6.8083,6.8083,6.8083,6.8083,6.8083,6.8083,6.8083,6.8083,6.8049,6.7876,6.7807,6.7773,6.7566,6.7532,6.7532,6.7532,6.7532,6.7532,6.7532,6.7669,6.7807,6.7807,6.798,6.8083,6.8083,6.8083,6.8083,6.8083,6.8083,6.8083,6.8083,6.8083,6.7945,6.7566,6.7532,6.7532,6.7532,6.7532,6.7221,6.6462,6.6393,6.6102,6.5378,6.5309,6.5309,6.5309,6.5309,6.5309,6.5309,6.5309,6.5412,6.5585,6.5998,6.6279,6.6392,6.6816,6.6935,5.4945,5.5383,5.5779,5.5964,5.5865,5.57,5.57,5.5619,5.5458,5.5309,5.5598,5.6169,5.7032,5.7641,5.8351,5.951,6.0091,6.0634,6.1352,6.2173,6.2891,6.345,6.402,6.4553,6.5003,6.5145,6.5626,6.6595,6.6272,6.6493,6.7426,6.7479,6.7757,6.8327,6.8362,6.8497,6.8781,6.8551,6.8435,6.8435,6.8201,6.8083,6.8083,6.8083,6.8083,6.8083,6.8083,6.8083,6.8083,6.8083,6.8083,6.8083,6.8083,6.8083,6.8083,6.8083,6.8083,6.8083,6.8083,6.8083,6.8083,6.8083,6.8083,6.8083,6.8083,6.8083,6.8083,6.8083,6.8083,6.8083,6.8083,6.8083,6.8083,6.8083,6.8083,6.8083,6.8083,6.8083,6.8083,6.8083,6.8083,6.8083,6.8083,6.8083,6.8083,6.8083,6.8083,6.8083,6.8083,6.8083,6.8083,6.8083,6.8083,6.7911,6.7497,6.7463,6.729,6.6896,6.6896,6.6896,6.6896,6.6798,6.6706,6.6706,6.6662,6.6603,6.6603,6.6896,6.7001,6.6935,6.7223,6.7325,5.5253,5.5428,5.5443,5.5487,5.5472,5.5428,5.5428,5.5398,5.5279,5.4992,5.5413,5.6106,5.7117,5.7475,5.8172,5.9762,6.0362,6.0876,6.1623,6.244,6.3149,6.3671,6.4324,6.4772,6.4979,6.5654,6.6344,6.7083,6.6822,6.7055,6.8051,6.8104,6.8271,6.8593,6.8628,6.8455,6.8083,6.8083,6.8083,6.8083,6.8083,6.8083,6.8083,6.8083,6.8083,6.8083,6.8083,6.8083,6.8083,6.8083,6.8083,6.8083,6.8083,6.8083,6.8083,6.8083,6.8083,6.8083,6.8083,6.8083,6.8083,6.8083,6.8083,6.8083,6.8083,6.8083,6.8083,6.8083,6.8083,6.8083,6.8083,6.8083,6.8083,6.8083,6.8083,6.8083,6.8083,6.8083,6.8083,6.8083,6.8083,6.8083,6.8083,6.8083,6.8083,6.8083,6.8083,6.8083,6.8083,6.8083,6.8083,6.8083,6.8083,6.8083,6.8083,6.8083,6.8083,6.8083,6.8064,6.8044,6.8044,6.7879,6.7759,6.7759,6.7577,6.751,6.751,6.7455,6.7366,6.718,6.716,6.7035,5.5048,5.5083,5.5159,5.5428,5.5294,5.5083,5.5083,5.4869,5.4652,5.4589,5.49,5.5597,5.7039,5.7352,5.7891,5.9422,6.001,6.0549,6.1274,6.2086,6.3052,6.4377,6.4634,6.5186,6.6462,6.6723,6.7137,6.7842,6.7832,6.7875,6.8092,6.8092,6.8122,6.8201,6.8201,6.8162,6.8083,6.8083,6.8083,6.8083,6.8083,6.8083,6.8083,6.8083,6.8083,6.8083,6.8083,6.8083,6.8083,6.8083,6.8083,6.8083,6.8083,6.8083,6.8083,6.8083,6.8083,6.8083,6.8083,6.8083,6.8083,6.8083,6.8083,6.8083,6.8083,6.8083,6.8083,6.8083,6.8083,6.8083,6.8083,6.8083,6.8083,6.8083,6.8083,6.8083,6.8083,6.8083,6.8083,6.8083,6.8083,6.8083,6.8083,6.8083,6.8083,6.8083,6.8083,6.8083,6.8083,6.8083,6.8083,6.8083,6.8083,6.8083,6.8083,6.8083,6.8083,6.8083,6.7925,6.7859,6.7859,6.7658,6.7536,6.7536,6.7496,6.751,6.751,6.7346,6.7222,6.718,6.6993,6.6833,5.473,5.473,5.4776,5.4946,5.4853,5.473,5.473,5.4605,5.4478,5.4478,5.4761,5.5398,5.6787,5.7177,5.7746,5.9058,6.0134,6.0909,6.1254,6.2324,6.348,6.4565,6.5048,6.5773,6.6896,6.7325,6.7704,6.8083,6.8083,6.8083,6.8083,6.8083,6.8083,6.8083,6.8083,6.8083,6.8083,6.8083,6.8083,6.8083,6.8083,6.8083,6.8083,6.8083,6.8083,6.8083,6.8083,6.8083,6.8083,6.8083,6.8083,6.8083,6.8083,6.8083,6.8083,6.8083,6.8083,6.8083,6.8083,6.8083,6.8083,6.8083,6.8083,6.8083,6.8083,6.8083,6.8083,6.8083,6.8083,6.8083,6.8083,6.8083,6.8083,6.8083,6.8083,6.8083,6.8083,6.8083,6.8083,6.8083,6.8083,6.8083,6.8083,6.8083,6.8083,6.8083,6.8083,6.8083,6.8083,6.8083,6.8083,6.8083,6.8083,6.8083,6.8083,6.8083,6.8078,6.7959,6.7859,6.7759,6.7638,6.7469,6.7346,6.7346,6.7222,6.7126,6.7126,6.7056,6.7014,6.6993,6.6854,6.6791,5.4478,5.4478,5.4478,5.4478,5.4478,5.4478,5.4478,5.4478,5.4478,5.4478,5.4837,5.5466,5.6578,5.7138,5.7774,5.884,6.0271,6.1289,6.1289,6.2634,6.3945,6.4841,6.5516,6.624,6.7172,6.7738,6.8083,6.8083,6.8083,6.8083,6.8083,6.8083,6.8083,6.8083,6.8083,6.8083,6.8083,6.8083,6.8083,6.8083,6.8083,6.8083,6.8083,6.8083,6.8083,6.8083,6.8083,6.8083,6.8083,6.8083,6.8083,6.8083,6.8083,6.8083,6.8083,6.8083,6.8083,6.8083,6.8083,6.8083,6.8083,6.8083,6.8083,6.8083,6.8083,6.8083,6.8083,6.8083,6.8083,6.8083,6.8083,6.8083,6.8083,6.8083,6.8083,6.8083,6.8083,6.8083,6.8083,6.8083,6.8083,6.8083,6.8083,6.8083,6.8083,6.8083,6.8083,6.8083,6.8083,6.8083,6.8064,6.8024,6.8064,6.8064,6.8024,6.8059,6.7959,6.7759,6.7699,6.7597,6.7448,6.7243,6.7118,6.7118,6.6896,6.6791,6.6791,6.6791,6.6791,6.6791,6.6791,6.6791,5.4478,5.4478,5.4478,5.4478,5.4478,5.4478,5.4478,5.4478,5.4478,5.4478,5.5062,5.5803,5.6633,5.7374,5.8115,5.8875,6.0271,6.1289,6.1289,6.2634,6.4136,6.5619,6.5861,6.6447,6.7842,6.8049,6.8083,6.8083,6.8083,6.8083,6.8083,6.8083,6.8083,6.8083,6.8083,6.8083,6.8083,6.8083,6.8083,6.8083,6.8083,6.8083,6.8083,6.8083,6.8083,6.8083,6.8083,6.8083,6.8083,6.8083,6.8083,6.8083,6.8083,6.8083,6.8083,6.8083,6.8083,6.8083,6.8083,6.8083,6.8083,6.8083,6.8083,6.8083,6.8083,6.8083,6.8083,6.8083,6.8083,6.8083,6.8083,6.8083,6.8083,6.8083,6.8083,6.8083,6.8083,6.8083,6.8083,6.8083,6.8083,6.8083,6.8083,6.8083,6.8083,6.8083,6.8083,6.8083,6.8083,6.8083,6.8004,6.7859,6.7999,6.8039,6.7859,6.7839,6.7739,6.7516,6.7366,6.7243,6.7222,6.6993,6.6833,6.6833,6.6812,6.6791,6.6791,6.6791,6.6791,6.6791,6.6791,6.6791,5.4399,5.4255,5.4094,5.4415,5.4478,5.4478,5.4478,5.4478,5.4478,5.4478,5.5099,5.5858,5.6667,5.7391,5.815,5.8857,6.0271,6.1289,6.1289,6.2634,6.4152,6.5723,6.5895,6.6482,6.7945,6.8083,6.8083,6.8083,6.8083,6.8083,6.8083,6.8083,6.8083,6.8083,6.8083,6.8083,6.8083,6.8083,6.8083,6.8083,6.8083,6.8083,6.8083,6.8083,6.8083,6.8083,6.8083,6.8083,6.8083,6.8083,6.8083,6.8083,6.8083,6.8083,6.8083,6.8083,6.8083,6.8083,6.8083,6.8083,6.8083,6.8083,6.8083,6.8083,6.8083,6.8083,6.8083,6.8083,6.8083,6.8083,6.8083,6.8083,6.8083,6.8083,6.8083,6.8083,6.8083,6.8083,6.8083,6.8083,6.8083,6.8083,6.8083,6.8083,6.8083,6.8083,6.8083,6.8083,6.8083,6.8083,6.8004,6.7819,6.7879,6.7839,6.7638,6.7618,6.7516,6.7325,6.7243,6.7118,6.6972,6.6854,6.6791,6.6791,6.6791,6.6791,6.6791,6.6791,6.6791,6.6791,6.6791,6.6791,5.4303,5.411,5.3833,5.4367,5.4478,5.4478,5.4478,5.4478,5.4478,5.4478,5.5288,5.615,5.6702,5.7598,5.8392,5.8926,6.0271,6.1289,6.1289,6.2634,6.4152,6.5723,6.5895,6.6482,6.7945,6.8083,6.8083,6.8083,6.8083,6.8083,6.8083,6.8083,6.8083,6.8083,6.8083,6.8083,6.8083,6.8083,6.8083,6.8083,6.8083,6.8083,6.8083,6.8083,6.8083,6.8083,6.8083,6.8083,6.8083,6.8083,6.8083,6.8083,6.8083,6.8083,6.8083,6.8083,6.8083,6.8083,6.8083,6.8083,6.8083,6.8083,6.8083,6.8083,6.8083,6.8083,6.8083,6.8083,6.8083,6.8083,6.8083,6.8083,6.8083,6.8083,6.8083,6.8083,6.8083,6.8083,6.8083,6.8083,6.8083,6.8083,6.8083,6.8083,6.8083,6.8083,6.8083,6.8064,6.8004,6.7984,6.7919,6.7638,6.7618,6.7557,6.7428,6.7428,6.7325,6.7097,6.7077,6.7014,6.6812,6.6791,6.6791,6.6791,6.6791,6.6791,6.6791,6.6791,6.6791,6.6791,6.6791,6.6791,5.4207,5.411,5.3833,5.4367,5.4478,5.4478,5.4478,5.4478,5.4478,5.4478,5.5736,5.6805,5.6805,5.8012,5.8995,5.8995,6.0271,6.1289,6.1289,6.2634,6.4152,6.5723,6.5895,6.6482,6.7945,6.8083,6.8083,6.8083,6.8083,6.8083,6.8083,6.8083,6.8083,6.8083,6.8083,6.8083,6.8083,6.8083,6.8083,6.8083,6.8083,6.8083,6.8083,6.8083,6.8083,6.8083,6.8083,6.8083,6.8083,6.8083,6.8083,6.8083,6.8083,6.8083,6.8083,6.8083,6.8083,6.8083,6.8083,6.8083,6.8083,6.8083,6.8083,6.8083,6.8083,6.8083,6.8083,6.8083,6.8083,6.8083,6.8083,6.8083,6.8083,6.8083,6.8083,6.8083,6.8083,6.8083,6.8083,6.8083,6.8083,6.8083,6.8083,6.8083,6.8083,6.8083,6.8083,6.8004,6.7839,6.7799,6.7638,6.7243,6.7201,6.7201,6.7201,6.7201,6.7097,6.6812,6.6812,6.6791,6.6791,6.6791,6.6791,6.6791,6.6791,6.6791,6.6791,6.6791,6.6791,6.6791,6.6791,6.6791,5.3633,5.3533,5.3298,5.4271,5.4478,5.4478,5.4478,5.4478,5.4651,5.5134,5.6081,5.6943,5.746,5.8357,5.8995,5.8995,6.0271,6.1289,6.1289,6.2634,6.4152,6.5723,6.6773,6.7566,6.8049,6.8083,6.8083,6.8083,6.8083,6.8083,6.8083,6.8083,6.8083,6.8083,6.8083,6.8083,6.8083,6.8083,6.8083,6.8083,6.8083,6.8083,6.8083,6.8083,6.8083,6.8083,6.8083,6.8083,6.8083,6.8083,6.8083,6.8083,6.8083,6.8083,6.8083,6.8083,6.8083,6.8083,6.8083,6.8083,6.8083,6.8083,6.8083,6.8083,6.8083,6.8083,6.8083,6.8083,6.8083,6.8083,6.8083,6.8083,6.8083,6.8083,6.8083,6.8083,6.8083,6.8083,6.8083,6.8083,6.8083,6.8083,6.8083,6.7999,6.7899,6.7899,6.7779,6.7658,6.7597,6.7577,6.7475,6.7222,6.718,6.7118,6.6917,6.6951,6.6875,6.6812,6.6791,6.6791,6.6791,6.6791,6.6791,6.6791,6.6791,6.6791,6.6791,6.6791,6.6791,6.6791,6.6791,6.6791,5.3076,5.3077,5.3026,5.3946,5.4191,5.4239,5.4447,5.4335,5.4461,5.5412,5.6253,5.7012,5.7771,5.8478,5.8995,5.8995,6.0271,6.1289,6.1289,6.2634,6.4152,6.5723,6.7187,6.8083,6.8083,6.8083,6.8083,6.8083,6.8083,6.8083,6.8083,6.8083,6.8083,6.8083,6.8083,6.8083,6.8083,6.8083,6.8083,6.8083,6.8083,6.8083,6.8083,6.8083,6.8083,6.8083,6.8083,6.8083,0.0,6.8083,6.8083,6.8083,6.8083,6.8083,6.8083,6.8083,6.8083,6.8083,6.8083,6.8083,6.8083,6.8083,6.8083,6.8083,6.8083,6.8083,6.8083,6.8083,6.8083,6.8083,6.8083,6.8083,6.8083,6.8083,6.8083,6.8083,6.8083,6.8083,6.8083,6.8083,6.8024,6.7999,6.7999,6.7819,6.7678,6.7678,6.7577,6.7455,6.7407,6.7387,6.7304,6.7077,6.7056,6.6993,6.6812,6.6791,6.6791,6.6791,6.6791,6.6791,6.6791,6.6791,6.6791,6.6791,6.6791,6.6791,6.6791,6.6791,6.6791,6.6791,6.6791,6.6791,0.0,5.2715,5.2888,5.3483,5.3651,5.38,5.4319,5.4096,0.0,5.5416,5.6322,5.7116,5.784,5.8547,5.903,5.9064,6.0323,6.1323,6.1392,6.2772,6.4308,6.5723,6.7187,6.8083,6.8083,6.8083,6.8083,6.8083,6.8083,6.8083,6.8083,6.8083,6.8083,6.8083,6.8083,6.8083,6.8083,6.8083,6.8083,6.8083,6.8083,6.8083,6.8083,6.8083,6.8083,6.8083,6.8083,6.8083,6.8083,6.8083,6.8083,6.8083,6.8083,6.8083,6.8083,6.8083,6.8083,6.8083,6.8083,6.8083,6.8083,6.8083,6.8083,6.8083,6.8083,6.8083,6.8083,6.8083,6.8083,6.8083,6.8083,6.8083,6.8083,6.8083,6.8083,6.8083,6.8083,6.8083,6.8083,6.8083,6.7959,6.7819,6.7819,6.7638,6.751,6.751,6.7455,6.7387,6.7201,6.716,6.7077,6.6833,6.6791,6.6791,6.6791,6.6791,6.6791,6.6791,6.6791,6.6791,6.6791,6.6791,6.6791,6.6791,6.6791,6.6791,6.6791,6.6791,6.6791,6.6791,6.6791,6.6791,5.1522,0.0,5.2327,5.2871,5.3009,5.3179,0.0,5.4242,5.4923,5.6242,5.7116,5.7874,5.8633,5.8892,5.9202,5.9806,6.0703,6.1496,6.2117,6.4032,6.5481,6.5861,6.7187,6.8083,6.8083,6.8083,6.8083,6.8083,6.8083,6.8083,6.8083,6.8083,6.8083,6.8083,6.8083,6.8083,6.8083,6.8083,6.8083,6.8083,6.8083,6.8083,6.8083,6.8083,6.8083,6.8083,6.8083,6.8083,6.8083,6.8083,6.8083,6.8083,6.8083,6.8083,6.8083,6.8083,6.8083,6.8083,6.8083,6.8083,6.8083,6.8083,6.8083,6.8083,6.8083,6.8083,6.8083,6.8083,6.8083,6.8083,6.8083,6.8083,6.8083,6.8083,6.8083,6.8083,6.8083,6.8083,6.8083,6.8083,6.8044,6.8004,6.8004,6.7739,6.751,6.751,6.7188,6.6938,6.6896,6.6875,6.6854,6.6812,6.6791,6.6791,6.6791,6.6791,6.6791,6.6791,6.6791,6.6791,6.6791,6.6791,6.6791,6.6791,6.6791,6.6791,6.6791,6.6791,6.6791,6.6791,6.6791,6.6791,5.1218,5.1582,5.2077,5.2363,5.2434,5.2675,5.3566,5.4108,5.4906,5.656,5.7414,5.815,5.8857,5.8995,5.9237,6.0082,6.0806,6.1806,6.3289,6.4895,6.6033,6.6378,6.7394,6.8083,6.8083,6.8083,6.8083,6.8083,6.8083,6.8083,6.8083,6.8083,6.8083,6.8083,6.8083,6.8083,6.8083,6.8083,6.8083,6.8083,6.8083,6.8083,6.8083,6.8083,6.8083,6.8083,6.8083,6.8083,6.8083,6.8083,6.8083,6.8083,6.8083,6.8083,6.8083,6.8083,6.8083,6.8083,6.8083,6.8083,6.8083,6.8083,6.8083,6.8083,6.8083,6.8083,6.8083,6.8083,6.8083,6.8083,6.8083,6.8083,6.8083,6.8083,6.8083,6.8083,6.8083,6.8083,6.8064,6.7999,6.7899,6.7799,6.7699,6.7394,6.7167,6.7167,6.6959,6.6791,6.6791,6.6791,6.6791,6.6791,6.6791,6.6791,6.6791,6.6791,6.6791,6.6791,6.6791,6.6791,6.6791,6.6791,6.6791,6.6791,6.6791,6.6791,6.6791,6.6791,6.6791,6.6791,6.6791,6.6791,5.1218,5.1582,5.1987,5.1897,5.1959,5.2353,5.363,5.4071,5.4749,5.6602,5.7518,5.8118,5.8737,5.9047,5.9461,6.0254,6.1082,6.2358,6.4427,6.5393,6.6171,6.693,6.7635,6.8083,6.8083,6.8083,6.8083,6.8083,6.8083,6.8083,6.8083,6.8083,6.8083,6.8083,6.8083,6.8064,6.8044,6.8064,6.8083,6.8083,6.8083,6.8064,6.8044,6.8044,6.8044,6.8044,6.8044,6.8064,6.8083,6.8083,6.8083,6.8083,6.8083,6.8083,6.8083,6.8083,6.8083,6.8083,6.8083,6.8064,6.8044,6.8083,6.8064,6.8044,6.8083,6.8083,6.8083,6.8044,6.8098,6.8083,6.8083,6.8083,6.8083,6.8083,6.8083,6.8083,6.8044,6.8044,6.7984,6.7799,6.7597,6.7448,6.7263,6.7035,6.6854,6.6854,6.6833,6.6791,6.6791,6.6791,6.6791,6.6791,6.6791,6.6791,6.6791,6.6791,6.6791,6.6791,6.6791,6.6791,6.6791,6.6791,6.6791,6.6791,6.6791,6.6791,6.6791,6.6791,6.6791,6.6791,6.6791,6.6791,5.1218,5.1582,5.1878,5.1448,5.1739,5.2478,5.371,5.4564,5.5439,5.6751,5.7578,5.8092,5.8228,5.9216,6.0254,6.1013,6.2324,6.36,6.4565,6.5393,6.6171,6.693,6.7635,6.8083,6.8083,6.8083,6.8083,6.8083,6.8083,6.8083,6.8083,6.8083,6.8083,6.8083,6.8083,6.8004,6.7859,6.8004,6.8083,6.8083,6.8083,6.7984,6.7859,6.7859,6.7859,6.7859,6.7859,6.7925,6.8083,6.8083,6.8083,6.8083,6.8083,6.8083,6.8083,6.8083,6.8083,6.8083,6.8083,6.7999,6.7879,6.8024,6.7965,6.7899,6.8044,6.8083,6.8044,6.7899,6.7979,6.8083,6.8083,6.8083,6.8083,6.8083,6.8083,6.8044,6.7899,6.7859,6.7799,6.7577,6.7496,6.751,6.7469,6.7284,6.7139,6.7139,6.6972,6.6791,6.6791,6.6791,6.6791,6.6791,6.6791,6.6791,6.6791,6.6791,6.6791,6.6791,6.6791,6.6791,6.6791,6.6791,6.6791,6.6791,6.6791,6.6791,6.6791,6.6791,6.6791,6.6791,6.6791,6.6791,5.0826,5.1464,5.2062,5.1931,5.2548,5.3394,5.4318,5.5435,5.6389,5.6891,5.7857,5.858,5.858,5.9459,6.0565,6.1737,6.2875,6.4014,6.5186,6.5688,6.6309,6.7463,6.7876,6.8083,6.8083,6.8083,6.8044,6.7959,6.7959,6.7899,6.7779,6.7779,6.7779,6.7779,6.7779,6.7739,6.7638,6.7739,6.7779,6.7779,6.7779,6.7779,6.7799,6.7678,6.7759,6.7979,6.7859,6.7859,6.7959,6.8078,6.7979,6.7799,6.7899,6.7879,6.7779,6.7779,6.7779,6.7779,6.7779,6.7719,6.7658,6.7739,6.7719,6.7658,6.7759,6.7779,6.7759,6.7658,6.7859,6.8064,6.7979,6.7959,6.7959,6.7959,6.7859,6.7759,6.7658,6.7638,6.7577,6.7387,6.7346,6.7304,6.7146,6.7077,6.6959,6.6959,6.6875,6.6791,6.6791,6.6791,6.6791,6.6791,6.6791,6.6791,6.6791,6.6791,6.6791,6.6791,6.6791,6.6791,6.6791,6.6791,6.6791,6.6791,6.6791,6.6791,6.6791,6.6791,6.6791,6.6791,6.6791,6.6791,5.037,5.1212,5.2165,5.2506,5.3212,5.4123,5.5221,5.6075,5.6727,5.7129,5.7993,5.8718,5.8907,5.9819,6.1008,6.2403,6.3229,6.4174,6.5535,6.5879,6.6499,6.7807,6.7979,6.7979,6.7979,6.7979,6.7899,6.7739,6.7739,6.7658,6.7496,6.751,6.751,6.751,6.751,6.7489,6.7448,6.7448,6.7469,6.751,6.751,6.7571,6.7658,6.751,6.7597,6.7899,6.7719,6.7678,6.7739,6.7899,6.7779,6.753,6.7658,6.7638,6.751,6.751,6.751,6.751,6.751,6.7489,6.7448,6.7455,6.7489,6.7448,6.751,6.751,6.751,6.7448,6.7678,6.7939,6.7779,6.7739,6.7739,6.7739,6.7597,6.751,6.7448,6.7448,6.7366,6.716,6.7097,6.7056,6.6833,6.6791,6.6791,6.6791,6.6791,6.6791,6.6791,6.6791,6.6791,6.6791,6.6791,6.6791,6.6791,6.6791,6.6791,6.6791,6.6791,6.6791,6.6791,6.6791,6.6791,6.6791,6.6791,6.6791,6.6791,6.6791,6.6791,6.6791,6.6791,6.6791,4.9951,5.088,5.1991,5.2694,5.3116,5.3984,5.6387,5.604,5.5671,5.7462,5.7775,5.7901,5.859,6.0343,6.1978,6.2799,6.3585,6.4352,6.5138,6.5821,6.6593,6.7434,6.7536,6.7536,6.7536,6.7536,6.755,6.7516,6.7496,6.753,6.751,6.751,6.751,6.751,6.751,6.7428,6.7222,6.7201,6.7325,6.751,6.751,6.7428,6.7243,6.7222,6.7222,6.7263,6.7243,6.7346,6.7516,6.755,6.755,6.751,6.753,6.7496,6.751,6.751,6.751,6.751,6.751,6.7387,6.7243,6.7448,6.7387,6.7243,6.7448,6.751,6.7469,6.7263,6.7387,6.7516,6.755,6.7496,6.7496,6.7496,6.7496,6.7469,6.7263,6.7201,6.7139,6.6875,6.6833,6.6812,6.6791,6.6791,6.6791,6.6791,6.6791,6.6791,6.6791,6.6791,6.6791,6.6791,6.6791,6.6791,6.6791,6.6791,6.6791,6.6791,6.6791,6.6791,6.6791,6.6791,6.6791,6.6791,6.6791,6.6791,6.6791,6.6791,6.6791,6.6791,6.6791,6.6791,5.0034,5.1419,5.2805,5.3081,5.3548,5.4346,5.6035,5.6378,5.66,5.7366,5.8239,5.9204,6.0393,6.126,6.2059,6.2863,6.3596,6.4381,6.5098,6.585,6.6601,6.7407,6.751,6.751,6.751,6.751,6.7469,6.7325,6.7304,6.7243,6.7063,6.7063,6.7063,6.7063,6.7063,6.7022,6.6938,6.6938,6.698,6.7063,6.7063,6.7084,6.718,6.7035,6.7118,6.7387,6.7243,6.7243,6.7325,6.7469,6.7312,6.7063,6.7063,6.7063,6.7063,6.7063,6.7063,6.7063,6.7063,6.7001,6.6938,6.7022,6.7001,6.6993,6.7043,6.7063,6.7043,6.6959,6.7001,6.7084,6.7284,6.7304,6.7304,6.7304,6.7201,6.7043,6.6993,6.6938,6.6896,6.6812,6.6791,6.6791,6.6791,6.6791,6.6791,6.6791,6.6791,6.6791,6.6791,6.6791,6.6791,6.6791,6.6791,6.6791,6.6791,6.6791,6.6791,6.6791,6.6791,6.6791,6.6791,6.6791,6.6791,6.6791,6.6791,6.6791,6.6791,6.6791,6.6791,6.6791,6.6791,6.6791,5.0411,5.1839,5.3202,5.3202,5.3695,5.4467,5.5556,5.6132,5.6761,5.7745,5.9114,6.044,6.1461,6.1836,6.2176,6.2706,6.3606,6.4424,6.4934,6.5854,6.6671,6.7202,6.727,6.727,6.727,6.727,6.7208,6.7077,6.7077,6.7014,6.6812,6.6791,6.6791,6.6791,6.6791,6.6791,6.6791,6.6791,6.6791,6.6791,6.6791,6.6875,6.7077,6.6875,6.698,6.727,6.7139,6.7077,6.7077,6.7208,6.7084,6.6791,6.6791,6.6791,6.6791,6.6791,6.6791,6.6791,6.6791,6.6791,6.6791,6.6791,6.6791,6.6791,6.6791,6.6791,6.6791,6.6791,6.6791,6.6833,6.7035,6.7077,6.7077,6.7077,6.6917,6.6791,6.6791,6.6791,6.6791,6.6791,6.6791,6.6791,6.6791,6.6791,6.6791,6.6791,6.6791,6.6791,6.6791,6.6791,6.6791,6.6791,6.6791,6.6791,6.6791,6.6791,6.6791,6.6791,6.6791,6.6791,6.6791,6.6791,6.6791,6.6791,6.6791,6.6791,6.6791,6.6791,6.6791,6.6791,6.6791,6.6791,5.1003,5.1984,5.2996,5.3028,5.3513,5.4253,5.5096,5.5102,5.5727,5.8693,6.0363,6.1298,6.1332,6.1907,6.24,6.24,6.3632,6.4613,6.4613,6.5865,6.6791,6.6791,6.6791,6.6791,6.6791,6.6791,6.6791,6.6791,6.6791,6.6791,6.6791,6.6791,6.6791,6.6791,6.6791,6.6791,6.6791,6.6791,6.6791,6.6791,6.6791,6.6791,6.6791,6.6791,6.6791,6.6791,6.6791,6.6791,6.6791,6.6791,6.6791,6.6791,6.6791,6.6791,6.6791,6.6791,6.6791,6.6791,6.6791,6.6791,6.6791,6.6791,6.6791,6.6791,6.6791,6.6791,6.6791,6.6791,6.6791,6.6791,6.6791,6.6791,6.6791,6.6791,6.6791,6.6791,6.6791,6.6791,6.6791,6.6791,6.6791,6.6791,6.6791,6.6791,6.6791,6.6791,6.6791,6.6791,6.6791,6.6791,6.6791,6.6791,6.6791,6.6791,6.6791,6.6791,6.6791,6.6791,6.6791,6.6791,6.6791,6.6791,6.6791,6.6791,6.6791,6.6791,6.6791,6.6791,6.6791,6.6791,6.6791,6.6791,5.0661,5.1954,5.3238,5.3629,5.4376,5.5274,5.6054,5.5672,5.5881,5.8427,6.0188,6.1467,6.1975,6.2245,6.24,6.24,6.3632,6.4613,6.4613,6.5865,6.6791,6.6791,6.6791,6.6791,6.6791,6.6791,6.6791,6.6791,6.6791,6.6791,6.6791,6.6791,6.6791,6.6791,6.6791,6.6791,6.6791,6.6791,6.6791,6.6791,6.6791,6.6791,6.6791,6.6791,6.6791,6.6791,6.6791,6.6791,6.6791,6.6791,6.6791,6.6791,6.6791,6.6791,6.6791,6.6791,6.6791,6.6791,6.6791,6.6791,6.6791,6.6791,6.6791,6.6791,6.6791,6.6791,6.6791,6.6791,6.6791,6.6791,6.6791,6.6791,6.6791,6.6791,6.6791,6.6791,6.6791,6.6791,6.6791,6.6791,6.6791,6.6791,6.6791,6.6791,6.6791,6.6791,6.6791,6.6791,6.6791,6.6791,6.6791,6.6791,6.6791,6.6791,6.6791,6.6791,6.6791,6.6791,6.6791,6.6791,6.6791,6.6791,6.6791,6.6791,6.6791,6.6791,6.6791,6.6791,6.6791,6.6791,6.6791,6.6791,5.2381,5.3323,5.4268,5.5237,5.5445,5.5711,5.6801,5.7126,5.7694,5.9451,6.0833,6.1873,6.2313,6.24,6.24,6.24,6.3632,6.4613,6.4613,6.5865,6.6791,6.6791,6.6791,6.6791,6.6791,6.6791,6.6791,6.6791,6.6791,6.6791,6.6791,6.6791,6.6791,6.6791,6.6791,6.6791,6.6791,6.6791,6.6791,6.6791,6.6791,6.6791,6.6791,6.6791,6.6791,6.6791,6.6791,6.6791,6.6791,6.6791,6.6791,6.6791,6.6791,6.6791,6.6791,6.6791,6.6791,6.6791,6.6791,6.6791,6.6791,6.6791,6.6791,6.6791,6.6791,6.6791,6.6791,6.6791,6.6791,6.6791,6.6791,6.6791,6.6791,6.6791,6.6791,6.6791,6.6791,6.6791,6.6791,6.6791,6.6791,6.6791,6.6791,6.6791,6.6791,6.6791,6.6791,6.6791,6.6791,6.6791,6.6791,6.6791,6.6791,6.6791,6.6791,6.6791,6.6791,6.6791,6.6791,6.6791,6.6791,6.6791,6.6791,6.6791,6.6791,6.6791,6.6791,6.6791,6.6791,6.6791,6.6791,6.6791,5.4884,5.5228,5.556,5.7001,5.6439,5.5937,5.7549,5.9127,6.04,6.1033,6.1834,6.24,6.24,6.24,6.24,6.24,6.3632,6.4613,6.4613,6.5865,6.6791,6.6791,6.6791,6.6791,6.6791,6.6791,6.6791,6.6791,6.6791,6.6791,6.6791,6.6791,6.6791,6.6791,6.6791,6.6791,6.6791,6.6791,6.6791,6.6791,6.6791,6.6791,6.6791,6.6791,6.6791,6.6791,6.6791,6.6791,6.6791,6.6791,6.6791,6.6791,6.6791,6.6791,6.6791,6.6791,6.6791,6.6791,6.6791,6.6791,6.6791,6.6791,6.6791,6.6791,6.6791,6.6791,6.6791,6.6791,6.6791,6.6791,6.6791,6.6791,6.6791,6.6791,6.6791,6.6791,6.6791,6.6791,6.6791,6.6791,6.6791,6.6791,6.6791,6.6791,6.6791,6.6791,6.6791,6.6791,6.6791,6.6791,6.6791,6.6791,6.6791,6.6791,6.6791,6.6791,6.6791,6.6791,6.6791,6.6791,6.6791,6.6791,6.6791,6.6791,6.6791,6.6791,6.6791,6.6859,6.6893,6.6893,6.696,6.6994,5.2649,5.3488,5.4503,5.4726,5.6015,5.7621,5.9204,6.0338,6.0888,6.0378,6.1427,6.24,6.24,6.24,6.24,6.24,6.3632,6.4613,6.4613,6.5865,6.6791,6.6791,6.6791,6.6791,6.6791,6.6791,6.6791,6.6791,6.6791,6.6791,6.6791,6.6791,6.6791,6.6791,6.6791,6.6791,6.6791,6.6791,6.6791,6.6791,6.6791,6.6791,6.6791,6.6791,6.6791,6.6791,6.6791,6.6791,6.6791,6.6791,6.6791,6.6791,6.6791,6.6791,6.6791,6.6791,6.6791,6.6791,6.6791,6.6791,6.6791,6.6791,6.6791,6.6791,6.6791,6.6791,6.6791,6.6791,6.6791,6.6791,6.6791,6.6791,6.6791,6.6791,6.6791,6.6791,6.6791,6.6791,6.6791,6.6791,6.6791,6.6791,6.6791,6.6791,6.6791,6.6791,6.6791,6.6791,6.6791,6.6791,6.6791,6.6791,6.6791,6.6791,6.6791,6.6791,6.6791,6.6791,6.6791,6.6791,6.6791,6.6791,6.6791,6.6791,6.6791,6.6791,6.6791,6.7387,6.7658,6.7692,6.8301,6.8605,5.3355,5.3766,5.4205,5.4536,5.6698,5.8986,5.989,6.0723,6.1283,6.1193,6.1834,6.24,6.24,6.24,6.24,6.24,6.3328,6.4072,6.4072,6.5358,6.6271,6.6271,6.6609,6.6791,6.6791,6.6791,6.6791,6.6791,6.6791,6.6791,6.6791,6.6474,6.6271,6.6271,6.5933,6.5764,6.5764,6.5764,6.5764,6.5764,6.5764,6.5933,6.6305,6.6622,6.6791,6.6791,6.6791,6.6791,6.6791,6.6791,6.6791,6.6791,6.6791,6.6791,6.6791,6.6791,6.6791,6.6791,6.6791,6.6791,6.6791,6.6791,6.6791,6.6791,6.6791,6.6791,6.6791,6.6791,6.6791,6.6791,6.6791,6.6791,6.6791,6.6791,6.6791,6.6791,6.6791,6.6791,6.6791,6.6791,6.6791,6.6791,6.6791,6.6791,6.6791,6.6791,6.6791,6.6791,6.6791,6.6791,6.6791,6.6791,6.6791,6.6791,6.6791,6.6791,6.6791,6.6791,6.6791,6.6791,6.6791,6.6791,6.6791,6.6791,6.7151,6.7354,6.7354,6.8098,6.847,6.847,6.891,6.9113,5.4555,5.4412,5.4188,5.5207,5.7465,5.9531,6.0001,6.0709,6.1461,6.2226,6.24,6.24,6.24,6.24,6.24,6.24,6.3024,6.3511,6.3511,6.4647,6.5493,6.5493,6.6068,6.6419,6.6419,6.6419,6.6419,6.6419,6.6419,6.6419,6.6419,6.5831,6.5493,6.5493,6.4918,6.4613,6.4613,6.4613,6.4613,6.4613,6.4613,6.4986,6.5717,6.6339,6.6677,6.6791,6.6791,6.6791,6.6791,6.6791,6.6791,6.6791,6.6791,6.6791,6.6791,6.6791,6.6791,6.6791,6.6791,6.6791,6.6791,6.6791,6.6791,6.6791,6.6791,6.6791,6.6791,6.6791,6.6791,6.6791,6.6791,6.6791,6.6791,6.6791,6.6791,6.6791,6.6791,6.6791,6.6791,6.6791,6.6791,6.6791,6.6791,6.6791,6.6791,6.6791,6.6791,6.6791,6.6791,6.6791,6.6791,6.6791,6.6791,6.6791,6.6791,6.6791,6.6791,6.6791,6.6791,6.6791,6.6791,6.6791,6.6859,6.7015,6.759,6.7963,6.8098,6.891,6.9282,6.9282,6.9417,6.9485,5.3192,5.3369,5.4139,5.576,5.6852,5.7957,5.9697,6.0597,6.1278,6.2209,6.24,6.24,6.24,6.24,6.24,6.24,6.3024,6.3511,6.3511,6.4241,6.4749,6.4749,6.485,6.4884,6.4884,6.4884,6.4884,6.4884,6.4884,6.4884,6.4884,6.4783,6.4749,6.4749,6.4647,6.4613,6.4613,6.4613,6.4613,6.4613,6.4613,6.4986,6.5717,6.5818,6.6203,6.6791,6.6791,6.6791,6.6791,6.6791,6.6791,6.6791,6.6791,6.6791,6.6791,6.6791,6.6791,6.6791,6.6791,6.6791,6.6791,6.6791,6.6791,6.6791,6.6791,6.6791,6.6791,6.6791,6.6791,6.6791,6.6791,6.6791,6.6791,6.6791,6.6791,6.6791,6.6791,6.6791,6.6791,6.6791,6.6791,6.6791,6.6791,6.6791,6.6791,6.6791,6.6791,6.6791,6.6791,6.6791,6.6791,6.6791,6.6791,6.6791,6.6791,6.6791,6.6791,6.6791,6.6791,6.6791,6.6791,6.6791,6.7117,6.7726,6.7861,6.8233,6.8944,6.9688,7.0026,7.006,7.0703,7.0985,5.281,5.3445,5.4474,5.5353,5.635,5.7481,5.8876,5.9832,6.0654,6.1434,6.203,6.24,6.24,6.24,6.24,6.24,6.2651,6.2888,6.2888,6.3531,6.4005,6.4005,6.4343,6.4613,6.4613,6.4613,6.4613,6.4613,6.4613,6.4613,6.4613,6.4208,6.4005,6.4005,6.3565,6.3362,6.3362,6.3362,6.3362,6.3362,6.3802,6.4174,6.4512,6.5324,6.6102,6.6791,6.6791,6.6791,6.6791,6.6791,6.6791,6.6791,6.6791,6.6791,6.6791,6.6791,6.6791,6.6791,6.6791,6.6791,6.6791,6.6791,6.6791,6.6791,6.6791,6.6791,6.6791,6.6791,6.6791,6.6791,6.6791,6.6791,6.6791,6.6791,6.6791,6.6791,6.6791,6.6791,6.6791,6.6791,6.6791,6.6791,6.6791,6.6791,6.6791,6.6791,6.6791,6.6791,6.6791,6.6791,6.6791,6.6791,6.6791,6.6791,6.6791,6.6791,6.6791,6.6791,6.6791,6.6791,6.6791,6.6791,6.7151,6.7895,6.8335,6.8944,6.9722,7.0466,7.0804,7.0838,7.1142,7.1289,5.2891,5.3814,5.4784,5.5165,5.6019,5.6997,5.7979,5.8773,5.9551,6.0527,6.142,6.211,6.2361,6.24,6.24,6.24,6.24,6.24,6.24,6.2854,6.3226,6.3226,6.37,6.4038,6.4038,6.4038,6.4038,6.4038,6.4038,6.4038,6.4038,6.3531,6.3226,6.3226,6.2685,6.24,6.24,6.24,6.24,6.24,6.2956,6.3328,6.3545,6.4647,6.5662,6.6542,6.6724,6.6791,6.6791,6.6791,6.6791,6.6791,6.6791,6.6791,6.6791,6.6791,6.6791,6.6791,6.6791,6.6791,6.6791,6.6791,6.6791,6.6791,6.6791,6.6791,6.6791,6.6791,6.6791,6.6791,6.6791,6.6791,6.6791,6.6791,6.6791,6.6791,6.6791,6.6791,6.6791,6.6791,6.6791,6.6791,6.6791,6.6791,6.6791,6.6791,6.6791,6.6791,6.6791,6.6791,6.6791,6.6791,6.6791,6.6791,6.6791,6.6791,6.6791,6.6791,6.6791,6.6791,6.6791,6.6791,6.7151,6.7895,6.8707,6.9451,7.0217,7.0939,7.1289,7.1289,7.1289,7.1289,5.3476,5.4153,5.4908,5.5741,5.5873,5.6054,5.7206,5.7352,5.7776,5.9659,6.0605,6.135,6.2243,6.24,6.24,6.24,6.24,6.24,6.24,6.2434,6.2448,6.2448,6.2502,6.2516,6.2516,6.2516,6.2516,6.2516,6.2516,6.2516,6.2516,6.2502,6.2448,6.2448,6.2434,6.24,6.24,6.24,6.24,6.24,6.2434,6.2821,6.3511,6.3579,6.441,6.5818,6.6508,6.6791,6.6791,6.6791,6.6791,6.6791,6.6791,6.6791,6.6791,6.6791,6.6791,6.6791,6.6791,6.6791,6.6791,6.6791,6.6791,6.6791,6.6791,6.6791,6.6791,6.6791,6.6791,6.6791,6.6791,6.6791,6.6791,6.6791,6.6791,6.6791,6.6791,6.6791,6.6791,6.6791,6.6791,6.6791,6.6791,6.6791,6.6791,6.6791,6.6791,6.6791,6.6791,6.6791,6.6791,6.6791,6.6791,6.6791,6.6791,6.6791,6.6791,6.6791,6.6791,6.6791,6.6791,6.6791,6.7151,6.7895,6.8707,6.9451,7.0217,7.0939,7.1289,7.1289,7.1289,7.1289,5.2983,5.3876,5.4776,5.5116,5.5426,5.5811,5.6221,5.6388,5.6969,5.8753,5.9762,6.06,6.1352,6.1991,6.24,6.24,6.24,6.24,6.24,6.24,6.24,6.24,6.24,6.24,6.24,6.24,6.24,6.24,6.24,6.24,6.24,6.24,6.24,6.24,6.24,6.24,6.24,6.24,6.24,6.24,6.24,6.2516,6.2821,6.3274,6.3781,6.4377,6.5561,6.6373,6.6791,6.6791,6.6791,6.6791,6.6791,6.6791,6.6791,6.6791,6.6791,6.6791,6.6791,6.6791,6.6791,6.6791,6.6791,6.6791,6.6791,6.6791,6.6791,6.6791,6.6791,6.6791,6.6791,6.6791,6.6791,6.6791,6.6791,6.6791,6.6791,6.6791,6.6791,6.6791,6.6791,6.6791,6.6791,6.6791,6.6791,6.6791,6.6791,6.6791,6.6791,6.6791,6.6791,6.6791,6.6791,6.6791,6.6791,6.6791,6.6791,6.6791,6.6791,6.6791,6.6791,6.6791,6.6927,6.7184,6.847,6.9451,7.0217,7.0939,7.1289,7.1289,7.1289,7.1289,5.2676,5.3506,5.4429,5.4645,5.5014,5.5438,5.5653,5.5643,5.6041,5.746,5.8502,5.9375,6.0117,6.1019,6.1694,6.1903,6.2203,6.24,6.24,6.24,6.24,6.24,6.24,6.24,6.24,6.24,6.24,6.24,6.24,6.24,6.24,6.24,6.24,6.24,6.24,6.24,6.24,6.24,6.24,6.24,6.24,6.24,6.2434,6.2922,6.3294,6.3545,6.4546,6.5527,6.644,6.669,6.6791,6.6791,6.6791,6.6791,6.6791,6.6791,6.6791,6.6791,6.6791,6.6791,6.6791,6.6791,6.6791,6.6791,6.6791,6.6791,6.6791,6.6791,6.6791,6.6791,6.6791,6.6791,6.6791,6.6791,6.6791,6.6791,6.6791,6.6791,6.6791,6.6791,6.6791,6.6791,6.6791,6.6791,6.6791,6.6791,6.6791,6.6791,6.6791,6.6791,6.6791,6.6791,6.6791,6.6791,6.6791,6.6791,6.6791,6.6791,6.6791,6.6791,6.6791,6.6791,6.6791,6.6791,6.8064,6.9079,6.9823,7.0838,7.1289,7.1289,7.1289,7.1289,0.0,0.0,0.0,5.4522,5.4706,5.4891,5.553,5.5168,5.4985,5.5915,5.6776,5.7669,5.8586,5.9471,6.0247,6.0833,6.1743,6.24,6.24,6.24,6.24,6.24,6.24,6.24,6.24,6.24,6.24,6.24,6.24,6.24,6.24,6.24,6.24,6.24,6.24,6.24,6.24,6.24,6.24,6.24,6.24,6.24,6.24,6.24,6.2787,6.3477,6.3477,6.4309,6.5683,6.644,6.6757,6.6791,6.6791,6.6791,6.6791,6.6791,6.6791,6.6791,6.6791,6.6791,6.6791,6.6791,6.6791,6.6791,6.6791,6.6791,6.6791,6.6791,6.6791,6.6791,6.6791,6.6791,6.6791,6.6791,6.6791,6.6791,6.6791,6.6791,6.6791,6.6791,6.6791,6.6791,6.6791,6.6791,6.6791,6.6791,6.6791,6.6791,6.6791,6.6791,6.6791,6.6791,6.6791,6.6791,6.6791,6.6791,6.6791,6.6791,6.6791,6.6791,6.6791,6.6791,6.6791,6.6791,6.7523,6.8301,6.9113,7.0567,7.1289,7.1289,7.1289,7.1289,5.2676,0.0,0.0,0.0,0.0,0.0,5.5045,5.5199,5.5534,5.601,5.6306,5.6733,5.7595,5.8546,5.9212,5.9297,6.0617,6.1772,6.2313,6.24,6.24,6.24,6.24,6.24,6.24,6.24,6.24,6.24,6.24,6.24,6.24,6.24,6.24,6.24,6.24,6.24,6.24,6.24,6.24,6.24,6.24,6.24,6.24,6.24,6.2516,6.2719,6.3294,6.3714,6.4208,6.5493,6.6305,6.6791,6.6791,6.6791,6.6791,6.6791,6.6791,6.6791,6.6791,6.6791,6.6791,6.6791,6.6791,6.6791,6.6791,6.6791,6.6791,6.6791,6.6791,6.6791,6.6791,6.6791,6.6791,6.6791,6.6791,6.6791,6.6791,6.6791,6.6791,6.6791,6.6791,6.6791,6.6791,6.6791,6.6791,6.6791,6.6791,6.6791,6.6791,6.6791,6.6791,6.6791,6.6791,6.6791,6.6791,6.6791,6.6791,6.6791,6.6791,6.6791,6.6791,6.6791,6.6791,6.6791,6.7523,6.8301,6.9113,7.006,7.077,7.1289,7.1289,7.1289,0.0,5.2983,5.3353,5.3629,0.0,0.0,5.5076,5.5222,5.5417,5.5834,5.5794,5.5796,5.6306,5.6924,5.754,5.819,5.915,6.0169,6.1293,6.1738,6.1941,6.1941,6.2212,6.24,6.24,6.24,6.24,6.24,6.24,6.24,6.24,6.24,6.24,6.24,6.24,6.24,6.24,6.24,6.24,6.24,6.24,6.24,6.24,6.24,6.24,6.2415,6.2854,6.3226,6.3579,6.4749,6.5662,6.6373,6.6677,6.6791,6.6791,6.6791,6.6791,6.6791,6.6791,6.6791,6.6791,6.6791,6.6791,6.6791,6.6791,6.6791,6.6791,6.6791,6.6791,6.6791,6.6791,6.6791,6.6791,6.6791,6.6791,6.6791,6.6791,6.6791,6.6791,6.6791,6.6791,6.6791,6.6791,6.6791,6.6791,6.6791,6.6791,6.6791,6.6791,6.6791,6.6791,6.6791,6.6791,6.6791,6.6791,6.6791,6.6791,6.6791,6.6791,6.6791,6.6791,6.6791,6.6791,6.6791,6.7218,6.7996,6.9113,6.9823,7.0567,7.1289,7.1289,7.1289,5.2698,0.0,0.0,5.3445,5.3629,0.0,5.5222,5.5076,5.486,5.5468,5.5243,5.4992,5.5102,5.5186,5.5779,5.7318,5.7568,5.8153,5.9865,6.0723,6.1163,6.1163,6.1738,6.2144,6.2144,6.2231,6.2299,6.2299,6.2367,6.24,6.24,6.24,6.24,6.24,6.24,6.24,6.24,6.24,6.24,6.24,6.24,6.24,6.24,6.24,6.24,6.24,6.24,6.2753,6.3463,6.4174,6.4952,6.5764,6.6508,6.6791,6.6791,6.6791,6.6791,6.6791,6.6791,6.6791,6.6791,6.6791,6.6791,6.6791,6.6791,6.6791,6.6791,6.6791,6.6791,6.6791,6.6791,6.6791,6.6791,6.6791,6.6791,6.6791,6.6791,6.6791,6.6791,6.6791,6.6791,6.6791,6.6791,6.6791,6.6791,6.6791,6.6791,6.6791,6.6791,6.6791,6.6791,6.6791,6.6791,6.6791,6.6791,6.6791,6.6791,6.6791,6.6791,6.6791,6.6791,6.6791,6.6791,6.6791,6.696,6.7704,6.9113,6.9925,7.0669,7.1289,7.1289,7.1289,5.2553,5.2676,5.2737,5.286,5.3291,0.0,5.4029,5.4399,5.4737,5.486,5.4815,5.4967,5.5695,5.5381,5.5368,5.6399,5.6704,5.7567,5.9798,6.025,6.0317,6.0317,6.0452,6.0554,6.0554,6.1129,6.1501,6.1501,6.2042,6.24,6.24,6.24,6.24,6.24,6.24,6.24,6.24,6.24,6.24,6.24,6.24,6.24,6.24,6.24,6.24,6.24,6.24,6.2502,6.2651,6.3429,6.4512,6.5764,6.6508,6.6791,6.6791,6.6791,6.6791,6.6791,6.6791,6.6791,6.6791,6.6791,6.6791,6.6791,6.6791,6.6791,6.6791,6.6791,6.6791,6.6791,6.6791,6.6791,6.6791,6.6791,6.6791,6.6791,6.6791,6.6791,6.6791,6.6791,6.6791,6.6791,6.6791,6.6791,6.6791,6.6791,6.6791,6.6791,6.6791,6.6791,6.6791,6.6791,6.6791,6.6791,6.6791,6.6791,6.6791,6.6791,6.6791,6.6791,6.6791,6.6791,6.6791,6.6791,6.803,6.8808,6.9113,7.0432,7.1176,7.1289,7.1289,7.1289,5.2614,5.2676,5.2676,5.2676,5.2953,0.0,0.0,5.3968,5.4306,5.4645,5.4429,5.4322,5.4762,5.4572,5.4634,5.5516,5.6015,5.6747,5.8031,5.8993,5.9573,5.9573,5.9877,6.0114,6.0114,6.0452,6.0858,6.1264,6.1251,6.1527,6.2381,6.24,6.24,6.24,6.24,6.24,6.24,6.1931,6.1951,6.2381,6.1931,6.1951,6.24,6.24,6.24,6.24,6.24,6.24,6.2448,6.3193,6.3917,6.4715,6.5831,6.6474,6.6791,6.6791,6.6791,6.6791,6.6791,6.6791,6.6791,6.6791,6.6791,6.6791,6.6791,6.6791,6.6791,6.6791,6.6791,6.6791,6.6791,6.6791,6.6791,6.6791,6.6791,6.6791,6.6791,6.6791,6.6791,6.6791,6.6791,6.6791,6.6791,6.6791,6.6791,6.6791,6.6791,6.6791,6.6791,6.6791,6.6791,6.6791,6.6791,6.6791,6.6791,6.6791,6.6791,6.6791,6.6791,6.6791,6.6791,6.6791,6.6791,6.6791,6.8335,6.9113,6.9113,7.0601,7.1289,7.1289,7.1289,7.1289,5.2645,5.2676,5.2676,5.2676,5.2676,5.2799,0.0,0.0,0.0,5.3999,5.3691,5.3353,5.3476,5.3383,5.3563,5.4248,5.4835,5.5332,5.563,5.7047,5.8144,5.8259,5.8982,5.9414,5.9414,5.9549,5.9953,6.0762,6.0305,6.0497,6.1615,6.2122,6.2322,6.2144,6.2302,6.24,6.24,6.1635,6.1554,6.211,6.137,6.1411,6.211,6.211,6.2243,6.24,6.24,6.24,6.2468,6.3057,6.3376,6.3646,6.5121,6.6068,6.6609,6.6757,6.6791,6.6791,6.6791,6.6791,6.6791,6.6791,6.6791,6.6791,6.6791,6.6791,6.6791,6.6791,6.6791,6.6791,6.6791,6.6791,6.6791,6.6791,6.6791,6.6791,6.6791,6.6791,6.6791,6.6791,6.6791,6.6791,6.6791,6.6791,6.6791,6.6791,6.6791,6.6791,6.6791,6.6791,6.6791,6.6791,6.6791,6.6791,6.6791,6.6791,6.6791,6.6791,6.6791,6.6791,6.6791,6.6791,6.6791,6.6791,6.8335,6.9113,6.9113,7.0601,7.1289,7.1289,7.1289,7.1289,5.2544,5.2676,5.2676,5.2676,5.2676,5.2553,5.2052,0.0,5.1959,5.2021,0.0,5.2113,5.2676,0.0,0.0,5.2061,5.23,5.268,5.3312,5.4208,5.5037,5.5648,5.6468,5.7014,5.7014,5.7598,5.8262,5.9026,5.965,5.9701,5.9055,6.1146,6.201,6.1206,6.1971,6.24,6.24,6.2302,6.189,6.1152,6.1049,6.1049,6.1152,6.1152,6.1595,6.24,6.24,6.24,6.24,6.2482,6.2922,6.3646,6.5121,6.5751,6.5899,6.6576,6.6791,6.6791,6.6791,6.6791,6.6791,6.6791,6.6791,6.6791,6.6791,6.6791,6.6791,6.6791,6.6791,6.6791,6.6791,6.6791,6.6791,6.6791,6.6791,6.6791,6.6791,6.6791,6.6791,6.6791,6.6791,6.6791,6.6791,6.6791,6.6791,6.6791,6.6791,6.6791,6.6791,6.6791,6.6791,6.6791,6.6791,6.6791,6.6791,6.6791,6.6791,6.6791,6.6791,6.6791,6.6791,6.6791,6.6791,6.6791,6.8335,6.9113,6.9113,7.0601,7.1289,7.1289,7.1289,7.1289,5.2614,5.2676,5.2676,5.2676,5.2676,5.2522,5.1867,5.1713,5.159,5.119,0.0,0.0,0.0,0.0,0.0,0.0,5.2104,5.2365,5.2262,5.2552,5.3407,5.5093,5.5636,5.6034,5.6556,5.5977,5.6271,5.8032,5.7531,5.7813,5.9312,5.9869,6.0646,6.1777,6.1656,6.185,6.2381,6.187,6.1656,6.181,6.0715,6.0482,6.0966,6.044,6.0715,6.1574,6.1574,6.1911,6.24,6.24,6.2584,6.2956,6.4005,6.4952,6.5764,6.6542,6.6791,6.6791,6.6791,6.6791,6.6791,6.6791,6.6791,6.6791,6.6791,6.6791,6.6791,6.6791,6.6791,6.6791,6.6791,6.6791,6.6791,6.6791,6.6791,6.6791,6.6791,6.6791,6.6791,6.6791,6.6791,6.6791,6.6791,6.6791,6.6791,6.6791,6.6791,6.6791,6.6791,6.6791,6.6791,6.6791,6.6791,6.6791,6.6791,6.6791,6.6791,6.6791,6.6791,6.6791,6.6791,6.6791,6.6994,6.7421,6.8538,6.9316,6.9722,7.0804,7.1289,7.1289,7.1289,7.1289,5.2676,5.2676,5.2676,5.2676,5.2676,5.2522,5.1867,5.1559,5.1251,5.0543,5.0266,0.0,0.0,0.0,5.0851,5.0851,0.0,5.1498,5.119,5.1159,5.1864,5.3826,5.4402,5.5086,5.6152,5.4902,5.474,5.6555,5.5708,5.6028,5.8178,5.8675,5.9533,6.0881,6.1217,6.1574,6.201,6.1595,6.1595,6.1991,6.063,6.0226,6.0609,6.0172,6.0226,6.0652,6.1152,6.1615,6.203,6.2302,6.24,6.2448,6.3207,6.4174,6.5222,6.617,6.6643,6.6791,6.6791,6.6791,6.6791,6.6791,6.6791,6.6791,6.6791,6.6791,6.6791,6.6791,6.6791,6.6791,6.6791,6.6791,6.6791,6.6791,6.6791,6.6791,6.6791,6.6791,6.6791,6.6791,6.6791,6.6791,6.6791,6.6791,6.6791,6.6791,6.6791,6.6791,6.6791,6.6791,6.6791,6.6791,6.6791,6.6791,6.6791,6.6791,6.6791,6.6791,6.6791,6.6791,6.6791,6.6791,6.7151,6.7895,6.8707,6.9451,7.0217,7.0939,7.1289,7.1289,7.1289,7.1289,5.2676,5.2676,5.2676,5.2676,5.2676,5.2522,5.1867,5.119,5.0543,4.9887,4.9158,4.8676,4.8676,4.8676,4.8706,0.0,4.8706,0.0,0.0,4.9764,5.0032,5.0753,5.2176,5.3689,5.5174,5.4527,5.4019,5.4115,5.4727,5.4753,5.3958,5.7752,5.9114,5.734,6.0568,6.1931,6.1049,6.1911,6.1911,6.1028,6.0986,6.0504,5.9653,6.0567,6.0482,5.974,6.1554,6.187,6.1111,6.203,6.24,6.2448,6.3207,6.3511,6.3748,6.5189,6.6203,6.6791,6.6791,6.6791,6.6791,6.6791,6.6791,6.6791,6.6791,6.6791,6.6791,6.6791,6.6791,6.6791,6.6791,6.6791,6.6791,6.6791,6.6791,6.6791,6.6791,6.6791,6.6791,6.6791,6.6791,6.6791,6.6791,6.6791,6.6791,6.6791,6.6791,6.6791,6.6791,6.6791,6.6791,6.6791,6.6791,6.6791,6.6791,6.6791,6.6791,6.6791,6.6791,6.6791,6.6791,6.6791,6.7151,6.7895,6.8707,6.9451,7.0217,7.0939,7.1289,7.1289,7.1289,7.1289,5.2676,5.2676,5.2676,5.2676,5.2676,5.2522,5.1867,5.1528,5.1036,4.9949,4.9497,4.9189,4.8676,4.8583,4.8583,0.0,0.0,4.8696,0.0,4.8974,4.9251,4.9928,5.0905,5.2081,5.3616,5.3492,5.3745,5.4776,5.5106,5.5302,5.5485,5.6264,5.7109,5.8052,5.8615,5.9275,6.0065,6.1007,6.1329,6.0986,6.0365,6.0215,6.0482,5.8921,5.9056,6.0504,5.987,6.0129,6.1028,6.135,6.1473,6.1567,6.2433,6.3091,6.368,6.5155,6.5886,6.6136,6.6643,6.6791,6.6791,6.6791,6.6791,6.6791,6.6791,6.6791,6.6791,6.6791,6.6791,6.6791,6.6791,6.6791,6.6791,6.6791,6.6791,6.6791,6.6791,6.6791,6.6791,6.6791,6.6791,6.6791,6.6791,6.6791,6.6791,6.6791,6.6791,6.6791,6.6791,6.6791,6.6791,6.6791,6.6791,6.6791,6.6791,6.6791,6.6791,6.6791,6.6791,6.6791,6.6791,6.6791,6.74,6.8673,6.8977,6.9688,7.0939,7.1176,7.1289,7.1289,7.1289,7.1289,5.2676,5.2676,5.2676,5.2676,5.2676,5.2606,5.2144,5.1867,5.1374,5.0266,4.9887,4.9466,4.8758,4.8583,4.8583,0.0,0.0,4.8583,0.0,4.8583,4.8789,4.9251,4.9928,5.0832,5.205,5.2396,5.2943,5.3956,5.4545,5.4907,5.5081,5.5336,5.5931,5.6844,5.7366,5.7978,5.8693,5.9891,6.0673,6.0986,6.0397,6.0215,6.045,5.9323,5.9056,5.9499,5.9278,5.9477,6.0022,6.0343,6.0715,6.1049,6.1656,6.2393,6.326,6.4478,6.5256,6.5818,6.6542,6.6791,6.6791,6.6791,6.6791,6.6791,6.6791,6.6791,6.7028,6.8076,6.7637,6.7028,6.811,6.7603,6.6791,6.6791,6.6791,6.6791,6.6791,6.6791,6.6791,6.6791,6.6791,6.6791,6.6791,6.6791,6.6791,6.6791,6.6791,6.6791,6.6791,6.6791,6.6791,6.6791,6.6791,6.6791,6.6791,6.6791,6.6791,6.6791,6.6791,6.6791,6.6791,6.6791,6.7772,6.9857,6.9383,7.0094,7.209,7.1582,7.1289,7.1289,7.1289,7.1289]}]]